GFSCGP_925_thetae_000.txt.gz
Theta_e
334 332 331 331 334 336 339 339 343 342 345 347 345 345 348 345 347 350 351 350 350 348 351 351 352 355 353 353 354 356 358 357 357 358 355 354 356 355 355 355 351 352 352 351
332 331 331 332 334 334 335 336 337 340 341 343 348 348 347 345 345 348 350 350 349 349 349 348 348 348 349 355 357 356 358 359 359 357 358 357 354 354 352 351 352 351 350 350
331 331 331 332 332 332 334 333 334 339 340 339 341 349 348 346 345 345 346 348 348 348 348 351 350 349 350 352 355 355 357 356 357 359 357 352 352 345 345 347 348 348 344 341
330 331 332 332 331 331 331 331 332 333 337 339 340 344 351 348 346 346 345 346 347 347 348 349 350 351 351 353 355 355 357 358 358 353 345 343 335 332 343 340 340 337 336 338
329 330 331 331 332 331 331 332 331 332 332 333 336 341 350 349 348 345 345 345 345 345 346 346 347 348 349 353 354 358 360 356 351 346 337 338 337 337 334 336 336 337 336 338
329 330 329 329 330 330 331 334 333 332 332 336 335 341 348 352 355 345 343 344 345 345 346 346 345 346 348 351 352 358 358 350 346 343 341 339 336 338 337 338 338 338 335 334
328 329 331 331 330 331 332 335 337 337 337 337 335 338 346 345 345 348 349 349 345 346 347 348 346 347 348 350 352 358 353 351 346 341 338 335 335 336 338 340 339 336 334 335
328 329 331 331 331 332 332 334 336 343 339 338 338 341 345 338 343 350 349 350 345 345 349 349 350 348 351 351 354 353 353 352 347 341 338 338 338 338 339 341 339 336 335 336
330 332 332 331 332 333 333 335 334 335 334 334 336 337 336 336 336 334 338 336 346 345 345 349 351 351 352 352 353 353 353 353 348 341 343 343 341 340 339 339 338 336 337 337
332 335 332 331 332 332 333 334 333 334 339 339 335 335 337 343 337 336 334 335 339 347 347 346 349 352 354 353 353 352 352 353 346 343 344 343 338 337 339 339 338 337 336 336
332 335 333 332 331 331 332 334 333 333 333 336 337 338 341 344 339 335 335 336 336 339 348 349 350 353 356 352 352 349 350 351 345 341 342 339 335 335 337 338 336 336 336 336
332 332 335 333 332 332 332 333 335 337 340 339 340 336 336 336 334 334 335 335 337 340 345 352 351 354 356 353 351 347 345 346 345 342 341 339 338 337 336 336 336 336 335 334
332 333 334 334 333 332 332 333 332 333 335 343 339 338 340 334 335 336 336 337 346 348 355 355 352 353 355 354 351 345 342 343 342 341 340 338 337 338 338 338 337 336 335 334
335 330 335 331 335 334 334 331 331 332 338 338 337 339 338 338 339 344 340 341 342 351 351 357 355 354 354 353 349 345 341 339 339 339 340 339 338 338 338 338 338 336 336 336
331 339 331 330 330 331 332 332 331 332 335 337 338 340 341 342 340 338 337 337 339 346 352 358 355 355 354 353 348 345 340 338 337 336 337 338 337 338 339 339 338 336 335 336
330 335 331 331 331 330 330 330 333 332 331 331 333 338 339 340 340 337 334 335 339 341 342 351 356 354 357 353 349 344 340 340 336 339 338 337 338 338 338 339 339 337 337 336
337 333 338 335 332 333 334 332 331 332 334 333 337 340 341 340 336 334 335 336 340 341 342 343 354 354 357 352 348 343 342 338 337 339 339 338 338 338 339 338 337 336 335 334
342 347 339 337 340 340 334 334 332 332 333 333 336 338 340 336 333 333 334 338 337 340 341 344 346 352 354 350 347 346 343 338 341 342 341 340 339 339 340 339 337 336 335 335
335 346 341 342 337 336 336 336 336 338 340 336 335 337 337 335 333 339 341 336 336 340 345 346 339 345 351 349 347 346 342 342 343 343 342 341 341 340 340 340 338 337 336 334
336 342 346 339 338 338 340 337 336 337 339 339 337 338 337 335 335 345 344 338 338 339 341 343 343 346 352 349 349 346 342 343 342 342 342 342 341 341 341 340 338 337 335 333
336 338 336 336 337 333 334 336 336 341 343 339 338 337 336 340 341 342 341 339 338 340 341 344 345 348 352 348 347 342 340 343 342 341 342 341 341 341 339 338 337 336 335 328
342 340 338 340 339 340 337 338 340 349 341 339 339 340 339 336 335 336 337 343 343 343 342 344 349 351 350 346 344 342 343 340 341 340 340 340 340 339 337 336 335 334 333 333
337 342 351 347 347 343 339 341 340 337 342 337 337 335 335 334 334 334 337 338 345 345 343 343 347 351 348 344 339 344 343 344 344 343 342 340 338 336 337 334 333 338 336 334
341 338 340 340 342 340 337 334 333 334 334 332 332 333 333 334 334 338 339 340 347 346 346 343 347 349 347 349 347 348 348 347 346 346 345 342 340 339 337 334 335 334 333 331
340 340 338 340 338 339 335 332 332 332 332 332 332 332 332 335 337 341 341 347 350 349 344 346 346 342 338 335 331 331 344 344 347 346 344 341 340 336 335 332 329 329 325 323
330 336 338 337 335 337 333 329 329 328 328 330 333 332 331 333 338 342 348 349 348 346 343 339 337 335 332 334 339 338 326 341 341 339 337 336 334 330 331 330 322 322 322 321

GFSCGP_925_thetae_003.txt.gz
Theta_e
324 330 331 329 327 328 335 336 343 343 338 339 343 351 351 348 348 348 349 350 351 351 352 351 352 350 351 352 353 353 354 356 355 356 355 357 355 352 352 351 351 351 351 350
326 331 332 332 330 331 331 342 343 342 340 341 341 348 347 345 347 348 350 349 350 348 354 354 353 351 352 352 355 356 356 357 358 358 356 357 357 355 355 352 351 351 349 349
326 332 333 332 329 331 330 332 340 344 344 342 344 345 348 345 343 346 349 348 348 349 351 354 354 353 354 356 355 357 357 357 358 354 356 354 348 350 347 349 352 349 346 339
327 330 331 329 329 330 328 330 331 339 344 345 344 351 347 344 341 345 349 348 346 348 347 348 347 350 357 356 356 358 358 354 357 356 357 352 347 339 345 344 341 337 334 335
328 329 329 329 329 330 328 329 329 329 337 335 340 337 346 342 342 343 344 348 346 346 347 348 348 349 352 356 355 354 357 356 357 346 340 334 333 335 339 340 338 332 337 337
327 328 327 328 330 330 331 329 328 327 326 329 332 336 350 346 344 343 343 344 345 346 347 347 348 350 353 354 355 354 357 357 349 341 332 329 331 336 335 337 335 336 336 335
327 327 326 327 327 328 329 326 333 332 331 331 329 331 346 345 343 341 341 339 341 344 346 346 346 349 354 354 358 358 358 348 345 339 339 338 337 336 335 336 339 337 334 338
326 326 326 327 325 325 327 326 335 339 336 335 332 336 339 345 344 341 341 339 339 343 343 344 344 347 352 353 357 360 354 348 344 342 340 336 336 334 338 343 338 335 330 336
325 327 328 328 329 328 329 331 329 331 334 333 334 338 340 344 343 343 344 340 337 339 343 342 343 345 351 351 358 357 353 349 346 341 339 339 341 338 340 339 338 332 339 336
325 328 327 329 328 328 329 330 330 328 333 337 334 341 339 338 339 342 344 340 340 338 343 343 342 345 351 351 356 355 353 350 346 345 341 344 343 341 337 338 337 335 334 334
325 325 329 328 327 328 330 330 330 329 329 330 334 338 342 340 336 333 331 332 336 341 340 344 344 346 350 352 355 354 353 351 347 345 342 344 343 338 338 339 338 336 336 337
325 327 330 329 329 329 328 328 333 333 334 335 335 339 336 337 334 334 337 336 334 337 340 342 346 349 351 352 355 354 354 351 346 345 343 342 335 334 336 338 336 336 335 335
326 327 329 335 329 328 328 328 329 331 329 333 339 337 338 333 333 335 334 336 337 336 337 341 347 351 353 353 352 353 353 351 346 341 344 340 338 337 336 337 337 337 336 335
331 327 331 330 334 330 329 330 330 327 328 330 334 338 336 337 341 337 337 336 341 341 350 344 350 353 354 353 350 349 349 348 345 343 341 340 338 338 337 337 337 337 336 335
329 332 331 329 329 329 332 332 330 329 328 332 332 341 336 335 336 335 334 335 337 345 348 350 346 355 355 353 348 345 345 346 343 342 342 340 338 338 338 338 338 339 336 335
328 335 332 332 331 329 329 331 332 332 330 329 329 331 336 334 336 338 334 334 336 338 338 352 350 348 354 354 347 345 342 342 342 340 339 340 339 339 338 338 338 338 337 335
332 334 332 331 332 332 332 333 331 331 331 330 330 334 338 338 339 336 333 333 336 336 338 338 349 349 352 352 347 343 341 341 339 340 340 339 339 338 338 338 339 339 339 338
340 339 332 331 335 336 333 333 333 338 339 337 336 338 338 334 331 331 330 332 333 334 335 336 336 351 352 350 347 343 341 339 339 339 339 339 338 339 338 338 339 339 338 336
339 339 343 336 332 334 336 334 338 339 340 337 337 337 334 334 338 339 338 332 333 336 338 339 340 355 351 348 345 344 342 339 340 339 339 339 338 338 338 339 340 340 339 336
334 340 343 342 341 343 333 337 337 337 342 338 337 337 340 333 344 341 336 337 336 337 340 342 342 354 350 347 344 343 344 344 343 338 341 340 340 340 341 341 342 341 339 337
338 339 338 340 341 337 338 338 335 341 341 337 335 333 338 336 334 336 336 335 334 335 340 342 344 353 350 348 348 345 343 344 340 341 341 341 341 341 341 341 342 341 338 336
342 342 336 340 338 337 337 342 347 342 340 339 338 337 335 335 333 331 330 330 336 335 341 343 349 354 352 350 349 346 344 342 338 339 342 343 342 342 342 342 340 337 335 333
345 343 349 348 345 340 337 334 334 335 336 335 334 334 334 334 334 333 333 331 332 337 341 347 353 354 354 352 347 343 335 337 339 341 344 343 343 344 341 338 335 332 330 330
340 338 343 341 341 336 338 332 330 332 333 334 334 333 333 333 334 334 335 335 335 340 341 351 346 338 335 338 337 332 329 328 329 329 326 333 338 336 337 336 334 333 331 325
337 340 338 344 342 337 336 334 332 332 332 333 332 332 332 333 335 339 340 345 342 342 343 342 338 335 336 336 333 329 329 326 326 325 328 326 336 338 335 333 331 330 324 323
335 336 341 341 336 338 335 332 327 327 327 326 326 329 331 332 337 343 346 344 343 338 338 336 336 336 337 334 333 331 329 329 330 335 332 339 337 333 331 325 323 324 322 320

GFSCGP_925_thetae_006.txt.gz
Theta_e
320 321 323 327 326 327 330 338 340 339 334 350 351 352 352 349 350 350 349 350 349 348 345 346 347 347 348 347 349 349 350 353 356 356 355 356 356 355 352 350 351 352 351 350
320 323 325 329 330 329 328 335 340 340 336 337 351 354 351 351 352 351 351 352 351 351 347 347 348 348 349 349 349 350 351 354 355 355 355 353 353 352 352 353 353 352 348 348
320 322 328 331 331 331 327 337 338 340 340 340 349 351 350 351 350 348 349 351 350 352 350 349 350 350 351 350 350 352 354 354 355 356 355 355 355 353 352 350 353 350 347 343
320 323 326 331 331 330 325 328 338 342 342 344 342 353 346 347 346 344 347 348 350 351 352 351 350 349 351 352 351 354 354 356 355 357 354 354 348 347 345 348 351 341 333 334
321 324 325 327 330 328 326 327 327 342 341 338 345 345 348 340 340 339 344 348 348 350 352 352 351 350 352 353 354 354 355 355 355 355 354 356 344 340 343 346 338 334 337 337
321 324 325 327 328 326 327 328 324 326 327 335 340 338 339 344 343 340 339 348 346 348 352 352 352 350 353 354 355 355 356 356 354 357 350 346 333 336 340 339 337 336 337 334
322 323 324 326 324 324 326 321 323 325 325 325 322 342 339 342 341 338 339 348 346 347 348 349 348 348 355 356 356 357 357 355 355 349 337 331 330 332 333 334 334 338 336 339
320 322 324 324 323 323 322 321 323 328 332 328 325 329 329 340 341 337 339 346 346 346 346 346 345 347 352 355 355 355 357 356 355 340 331 334 336 336 333 336 336 336 334 336
320 321 324 323 325 322 323 324 323 327 328 330 329 331 338 339 340 338 337 340 342 345 345 345 345 347 351 353 355 356 355 356 350 346 336 337 336 336 336 338 340 335 333 336
318 320 322 324 324 324 324 323 327 323 329 331 330 334 335 344 342 340 339 337 337 342 345 344 345 346 351 351 354 356 354 354 351 342 340 336 337 332 339 339 337 332 337 335
318 320 322 324 323 324 327 327 324 323 325 328 329 330 331 342 341 342 340 339 335 339 342 343 344 345 350 351 354 356 353 352 349 341 340 338 340 340 336 336 334 331 333 335
318 317 321 322 323 323 325 325 324 326 327 325 326 331 334 334 334 339 340 340 335 335 339 341 341 343 347 349 354 355 353 352 349 342 340 340 342 342 340 338 337 335 336 335
321 317 322 322 322 324 326 325 327 322 322 327 330 332 333 330 331 330 330 330 331 334 335 340 340 341 346 348 353 354 353 352 349 344 344 342 343 343 338 336 337 336 336 335
326 317 320 323 323 325 326 326 326 324 325 325 329 332 333 334 333 332 331 331 332 335 336 341 341 341 346 348 352 353 353 352 349 345 344 342 342 336 335 336 337 336 335 336
320 320 323 323 325 328 327 327 326 326 325 328 326 331 330 334 333 332 332 334 335 334 340 338 343 344 346 348 351 352 352 351 349 345 345 343 338 337 336 336 335 335 335 336
318 322 323 325 326 326 326 328 328 329 328 329 327 334 330 332 334 332 333 332 333 336 341 343 341 346 347 349 350 351 350 349 345 343 344 343 340 339 337 336 336 336 335 337
322 322 323 325 327 328 330 330 328 330 335 329 327 326 332 334 333 331 330 329 330 331 333 338 347 346 350 351 350 347 347 347 346 343 342 341 340 338 337 337 337 337 336 336
324 322 321 325 325 329 326 330 334 336 336 335 331 333 333 334 332 329 327 328 329 329 329 328 331 343 351 353 350 346 344 344 343 341 341 340 340 339 338 338 338 337 337 337
331 332 335 326 324 326 332 332 335 335 337 337 336 333 331 331 333 335 329 328 328 328 330 332 335 339 347 351 349 344 341 342 341 340 340 340 340 340 339 338 337 337 337 338
329 331 337 337 331 331 333 336 334 333 337 334 335 334 333 333 336 334 333 331 332 332 334 336 338 344 350 349 345 342 341 340 339 339 339 339 339 339 338 337 337 337 338 338
334 335 335 337 336 332 335 338 334 334 335 334 332 331 332 334 333 332 330 332 332 334 337 339 343 349 349 346 343 341 339 339 340 340 339 338 340 339 338 338 338 339 338 338
342 343 340 337 335 336 334 336 343 336 333 333 333 333 334 333 332 331 330 327 328 332 333 338 342 349 347 344 343 341 339 340 340 338 338 335 333 337 341 339 340 338 337 334
342 339 344 343 341 335 333 333 332 331 330 332 330 331 331 332 333 333 333 331 329 329 331 336 339 348 347 344 342 336 335 339 336 334 330 327 326 327 327 337 339 336 331 329
337 336 340 339 337 339 336 332 331 331 332 331 330 331 330 332 333 334 335 337 340 340 338 345 342 338 337 338 336 334 332 333 333 329 328 328 327 327 331 336 336 332 331 329
336 334 339 340 340 335 333 331 330 331 331 331 329 329 330 331 342 345 343 341 338 336 337 338 337 335 331 331 330 331 331 332 330 330 329 328 327 328 334 333 332 331 327 323
332 334 337 337 336 332 332 330 328 325 326 325 324 323 323 327 333 344 343 340 336 334 335 335 335 334 330 328 329 328 327 327 327 326 326 327 327 331 332 328 322 320 320 320

GFSCGP_925_thetae_009.txt.gz
Theta_e
318 318 320 320 325 325 329 335 345 344 340 349 350 351 350 349 348 349 349 348 348 347 344 346 349 349 348 348 351 352 352 352 352 353 354 355 354 355 354 353 352 351 351 350
317 319 319 322 327 326 326 331 338 337 342 347 350 353 348 347 348 347 347 346 346 346 344 345 347 348 348 348 349 352 352 351 352 353 354 354 354 353 351 351 351 351 350 347
316 318 322 327 329 330 326 328 332 338 339 348 351 353 352 350 348 346 346 346 346 346 346 345 345 346 348 347 347 348 350 349 351 354 354 354 353 354 352 353 353 351 348 346
318 319 322 329 329 329 330 327 332 338 339 349 348 356 347 350 351 350 349 348 348 348 346 345 346 347 348 347 347 348 348 349 351 354 354 354 353 352 348 348 351 350 345 335
318 321 321 325 328 328 329 326 326 334 338 342 345 347 347 347 350 350 349 347 350 349 347 346 346 347 348 347 348 348 350 352 353 354 355 354 354 348 342 345 350 345 333 335
318 320 322 322 324 327 327 326 321 324 331 342 346 341 341 349 350 349 346 345 350 348 349 347 347 347 348 349 349 350 351 353 354 354 356 353 354 343 340 347 343 334 336 335
320 320 321 325 325 324 323 320 322 330 338 342 332 340 339 341 346 346 345 343 347 347 350 349 349 348 348 350 352 351 351 354 354 354 355 353 354 337 340 342 337 335 337 337
318 320 320 321 323 323 321 320 322 324 328 332 326 343 341 336 340 343 342 341 345 345 349 350 350 348 348 351 352 353 353 354 354 355 354 353 339 331 333 337 336 336 336 333
316 318 319 322 322 322 323 321 319 321 324 326 325 327 329 335 336 340 338 337 344 345 347 350 350 349 349 351 352 353 354 354 354 354 353 341 330 333 332 332 335 336 334 334
317 319 319 321 322 321 322 320 324 320 326 330 327 330 330 335 337 338 337 337 342 344 345 347 349 348 350 352 353 353 354 354 354 353 350 337 332 335 335 335 337 339 334 334
314 316 318 321 320 321 324 322 320 320 322 325 327 328 326 332 336 337 337 337 340 343 344 344 346 346 346 351 352 353 354 353 352 352 350 337 335 335 335 336 339 339 335 336
315 315 319 318 319 321 320 322 321 324 324 322 324 327 327 330 336 337 337 336 335 339 342 343 343 344 344 347 350 352 353 351 350 351 349 339 335 336 333 334 335 333 330 331
315 314 317 318 319 321 322 322 321 319 321 327 329 329 329 330 333 335 337 335 334 334 337 342 342 343 343 346 348 351 353 351 349 348 347 339 337 338 338 337 335 334 331 333
322 312 318 321 320 321 324 324 323 323 324 323 326 328 332 330 332 331 332 334 335 334 335 339 340 341 342 344 347 350 353 352 349 347 345 340 337 338 341 341 339 337 336 334
317 319 315 319 320 322 323 324 325 325 324 328 326 328 330 330 330 331 330 329 331 333 333 335 338 338 339 341 346 349 352 352 350 347 345 341 337 338 341 341 338 336 336 334
316 318 319 320 320 321 322 323 324 326 323 326 324 327 326 329 329 330 329 329 331 332 333 334 337 336 336 340 345 348 351 352 349 347 346 341 337 338 342 340 335 335 336 335
318 320 317 322 322 324 326 325 325 329 328 327 327 326 328 332 331 330 329 330 331 332 338 336 335 338 340 342 345 348 350 351 349 347 345 341 340 339 341 338 336 335 334 335
326 318 318 322 323 327 325 329 328 334 336 335 334 326 330 330 332 330 327 328 328 329 331 337 338 338 343 344 346 347 350 350 347 345 342 340 340 340 339 336 337 335 335 335
323 319 326 324 323 327 334 334 333 331 335 334 335 333 330 330 330 330 327 326 326 326 325 326 335 341 343 347 349 348 347 347 345 344 340 343 341 341 339 338 338 337 337 337
327 326 329 327 327 330 335 335 335 334 335 332 333 333 332 331 334 330 330 328 328 328 329 330 333 335 340 341 349 346 343 343 343 342 341 340 340 339 339 338 337 337 337 337
336 334 334 334 337 335 335 334 334 336 334 333 331 330 330 330 329 326 325 327 329 330 332 334 335 339 340 344 348 343 340 341 341 340 339 339 339 339 339 338 336 335 337 337
340 341 344 338 336 338 332 334 337 333 329 330 330 330 331 330 330 330 331 329 329 328 328 331 334 337 344 345 344 339 339 339 340 339 338 337 337 336 336 335 329 327 330 335
339 339 341 339 334 330 331 331 330 329 329 330 330 329 330 333 332 333 333 333 334 335 338 339 336 335 342 342 343 335 335 338 338 336 334 331 328 328 328 329 328 323 325 332
336 334 336 338 335 335 333 331 329 329 329 328 328 328 328 335 339 335 335 339 338 337 338 340 340 337 335 338 338 337 335 335 335 331 328 327 330 330 330 330 326 323 329 329
334 336 337 338 338 334 331 331 331 330 328 327 324 328 329 327 327 331 336 338 339 337 335 335 333 330 328 330 330 331 330 333 332 332 331 330 326 328 328 327 328 331 330 328
330 335 338 338 335 332 330 328 326 323 323 322 320 320 320 320 321 327 336 338 335 334 334 333 329 328 329 330 332 333 334 333 331 329 328 327 326 327 327 327 325 326 325 322

GFSCGP_925_thetae_012.txt.gz
Theta_e
315 317 318 321 323 333 333 342 344 344 342 345 348 349 353 350 348 349 348 348 349 348 346 347 347 349 350 351 351 352 352 353 354 352 354 353 353 353 353 353 352 351 350 349
316 316 317 320 324 327 334 338 341 339 342 345 350 352 351 351 350 348 348 347 347 346 343 344 346 348 348 350 351 351 353 353 353 353 352 352 353 354 354 353 351 350 350 350
315 318 319 325 326 326 326 329 335 341 344 347 350 353 349 350 348 347 346 346 345 346 344 343 345 348 348 347 349 350 352 351 352 351 352 354 353 352 351 350 351 350 349 347
316 317 321 323 327 326 327 325 328 339 345 346 344 345 350 348 349 347 346 345 345 345 344 343 344 346 347 348 348 347 349 350 351 351 353 354 353 352 349 349 348 350 348 345
319 318 319 324 326 326 327 326 329 336 339 343 350 342 341 349 350 348 346 345 344 344 344 344 344 345 346 347 348 347 347 348 349 350 351 354 353 351 349 345 346 350 347 340
319 318 319 319 323 327 324 321 322 324 332 340 342 344 339 350 352 349 347 347 346 345 345 344 343 344 345 346 347 346 346 347 348 348 351 353 353 351 348 342 345 349 343 333
319 318 320 322 323 324 320 321 323 328 337 339 333 344 341 339 346 346 346 346 346 346 346 345 344 345 345 346 346 346 346 347 348 349 352 353 354 352 349 341 345 346 334 335
318 318 318 320 321 322 321 321 323 326 329 337 334 347 344 339 337 342 342 344 343 346 347 346 345 345 346 347 347 347 348 348 348 350 352 353 354 351 350 337 343 340 334 335
316 316 317 319 321 320 320 321 319 319 321 324 326 326 329 330 331 337 340 341 342 345 347 348 346 345 346 346 347 348 349 349 349 350 352 352 353 351 344 333 340 337 335 335
315 317 316 318 321 320 319 318 322 317 324 328 325 327 329 331 334 331 336 340 341 342 346 348 348 347 347 347 347 348 350 350 350 350 352 352 352 351 333 328 330 331 333 334
313 315 317 318 318 319 320 319 317 317 318 322 323 325 323 327 329 332 334 338 338 340 343 346 348 348 348 347 348 349 350 351 351 351 351 351 352 342 330 331 329 333 335 335
313 315 318 317 317 317 319 318 318 322 320 319 320 323 324 326 327 333 333 336 334 337 341 343 347 348 348 348 348 349 350 351 352 351 350 350 351 339 332 334 332 335 337 337
314 312 317 316 315 318 319 319 316 315 317 322 325 325 324 325 329 333 334 333 333 338 339 342 343 346 347 346 348 350 350 351 352 351 348 346 347 338 334 334 332 336 337 334
322 311 317 321 319 318 321 321 319 319 320 321 324 325 325 330 330 332 334 334 332 336 339 341 341 343 344 344 346 349 350 351 351 349 347 344 345 343 335 334 333 332 332 330
314 316 315 320 318 319 320 322 321 321 321 324 324 326 326 328 329 330 334 334 335 333 333 338 341 341 341 342 343 345 348 351 351 348 345 344 344 337 335 335 335 335 335 334
316 317 314 320 318 319 320 320 322 323 323 322 323 325 323 326 328 330 331 333 335 335 334 333 336 337 337 339 341 344 347 349 351 348 344 343 339 337 336 335 334 337 338 337
319 315 315 320 318 317 319 320 320 322 323 324 325 326 324 329 329 330 329 331 334 334 333 332 333 335 335 337 340 343 346 348 351 348 345 343 339 337 335 337 332 339 340 328
328 317 314 319 319 322 320 321 321 324 330 329 329 325 327 328 329 328 327 328 329 330 333 332 332 334 337 337 338 340 344 348 350 348 346 342 338 337 336 335 335 335 337 332
325 319 319 320 318 322 334 335 334 333 334 333 333 333 329 329 329 329 327 326 327 329 331 334 334 334 336 339 340 342 344 348 349 347 345 342 339 337 338 337 336 336 335 334
329 325 327 321 323 331 332 334 334 334 334 331 332 331 330 330 331 330 327 326 326 326 327 327 330 331 336 338 343 345 345 347 346 344 343 343 341 340 339 337 336 336 335 336
334 336 337 331 336 334 333 333 333 335 332 330 329 329 329 330 328 327 326 327 327 327 329 332 333 334 338 341 342 344 343 344 344 344 342 341 340 340 339 337 337 337 336 336
337 338 340 338 336 338 331 334 334 332 329 329 330 330 330 329 330 333 333 334 336 335 336 338 335 335 339 341 344 341 340 340 341 341 339 339 338 338 337 337 332 332 331 329
339 339 340 338 334 329 330 330 328 327 331 331 333 334 333 332 331 332 334 336 337 337 337 338 338 337 338 339 340 336 335 338 338 337 336 336 337 337 337 334 331 328 327 328
336 332 337 336 334 335 332 329 329 328 328 327 326 326 325 327 328 331 333 334 336 335 335 336 335 332 329 335 335 334 336 338 337 331 330 331 333 331 331 329 328 327 328 326
332 335 337 337 335 332 331 330 330 326 325 322 322 322 322 323 323 327 330 337 335 334 334 333 332 330 330 331 331 335 337 338 335 334 333 333 332 330 327 326 327 326 325 326
324 334 336 337 333 331 330 327 326 324 324 323 323 321 319 319 320 322 322 326 334 333 333 329 329 330 330 332 334 335 337 336 332 330 331 330 327 326 326 324 324 327 330 330

GFSCGP_925_thetae_015.txt.gz
Theta_e
321 321 321 326 334 337 340 345 347 348 347 349 350 350 354 353 353 354 356 357 355 354 352 352 353 353 354 354 354 355 356 355 355 356 356 355 354 355 352 348 349 350 348 349
320 321 322 325 327 336 342 344 346 347 347 348 349 350 351 354 354 352 353 355 355 354 354 353 353 352 352 354 354 355 356 354 354 356 356 355 356 355 355 354 353 351 351 350
321 320 321 324 327 330 340 345 346 346 346 348 351 350 352 353 353 351 350 350 351 352 353 352 351 351 351 352 353 354 354 353 353 355 356 355 353 354 354 354 353 352 349 349
319 320 321 324 328 329 333 337 344 346 347 349 348 350 352 352 356 354 352 350 350 350 349 349 349 350 351 351 352 353 353 353 353 354 355 355 354 354 354 351 351 353 348 348
323 320 322 324 326 329 333 332 339 343 347 346 351 349 345 352 355 355 353 351 350 348 348 348 348 348 350 350 350 352 352 352 353 354 353 355 355 355 354 350 350 353 349 347
325 320 321 323 326 329 328 331 333 340 342 346 345 348 342 353 353 351 350 350 350 348 348 347 346 347 348 349 350 351 351 349 350 351 353 355 355 355 352 349 347 349 348 346
325 323 322 321 324 329 329 331 335 337 342 339 337 350 345 343 347 348 348 349 348 348 347 348 349 348 349 349 350 350 350 350 350 352 353 353 355 356 353 350 347 346 346 343
328 326 323 322 323 327 329 330 334 338 338 336 337 344 343 343 341 344 347 347 348 348 349 348 351 349 348 349 350 350 350 351 351 351 351 351 353 355 353 349 347 344 344 342
327 326 320 321 323 327 329 330 331 332 328 335 337 341 337 339 340 341 343 346 348 348 349 349 349 348 349 349 350 350 350 350 350 351 351 353 353 354 352 349 347 340 343 339
324 325 322 321 323 323 326 327 328 329 339 335 333 335 333 340 342 343 342 345 346 348 349 349 351 350 349 349 350 350 350 349 349 352 352 353 353 352 351 349 346 337 341 337
325 325 323 321 322 323 324 325 327 329 331 336 335 333 336 339 342 341 342 342 344 347 348 350 352 350 350 350 350 351 351 351 351 351 351 352 352 351 348 347 344 336 336 336
323 325 327 324 322 322 323 325 328 331 334 329 332 332 331 335 337 338 341 340 341 345 347 349 350 350 349 350 350 350 351 351 351 351 352 352 349 349 348 348 337 327 330 330
321 324 327 326 324 322 323 323 325 326 328 338 331 331 335 333 334 335 337 341 343 344 346 348 349 353 353 351 351 351 351 351 352 352 352 351 348 348 349 348 333 334 331 335
325 328 329 330 329 326 325 323 324 324 329 328 330 330 331 334 337 339 340 341 343 343 345 348 350 352 353 353 353 352 351 352 352 352 353 351 347 346 344 337 333 332 335 335
330 332 328 329 329 326 325 323 323 326 328 330 328 332 333 336 338 341 344 344 343 343 345 349 349 353 354 353 353 352 352 352 352 353 354 351 348 345 340 337 334 332 330 328
324 329 326 326 325 326 325 325 324 324 324 326 327 333 334 336 336 338 341 342 344 344 344 347 349 349 351 350 350 350 351 352 353 354 354 351 348 343 340 337 334 333 331 331
336 329 329 332 327 325 326 326 325 326 326 327 330 331 336 334 335 339 344 342 345 346 345 344 347 351 349 347 348 348 349 350 353 354 353 350 347 343 341 338 335 334 331 335
337 335 329 334 327 327 325 325 325 326 326 327 327 331 335 335 337 338 340 342 343 344 345 344 341 343 344 344 345 347 348 350 352 353 352 350 346 344 342 339 335 335 333 331
334 333 336 335 334 331 331 333 325 324 329 329 329 332 334 332 334 338 334 334 338 338 340 341 339 340 341 342 343 345 348 350 352 353 352 349 345 345 342 340 337 334 333 335
333 336 336 336 332 332 340 337 336 337 332 337 338 338 338 335 335 340 334 334 336 337 340 342 339 341 343 344 345 347 349 350 351 352 351 348 346 345 343 340 337 337 337 337
339 346 343 345 342 338 337 335 336 338 336 336 337 338 337 338 338 336 336 338 339 339 339 340 342 344 346 346 348 350 350 351 351 350 349 348 345 343 339 338 338 339 338 336
340 342 349 347 344 344 335 337 342 339 335 335 336 337 339 340 341 341 342 343 344 344 343 343 345 345 345 347 349 349 349 347 347 346 346 344 343 342 340 338 338 337 337 337
340 340 345 344 343 337 334 334 333 336 337 337 338 337 339 338 339 340 341 341 342 343 342 342 343 344 344 344 347 346 341 343 345 344 343 342 343 342 342 341 340 338 338 335
339 336 339 343 339 336 334 331 330 330 330 330 331 333 335 338 341 345 345 344 344 342 341 340 339 338 338 341 343 340 340 342 342 342 342 342 342 341 340 338 337 335 333 332
335 338 338 340 337 336 333 331 328 326 326 326 326 328 328 329 332 337 342 343 343 342 340 340 340 340 336 338 339 340 340 340 341 341 340 341 341 339 332 331 331 332 331 331
324 335 340 339 336 337 334 329 327 325 326 325 326 327 327 329 330 330 334 336 339 340 338 338 338 337 336 338 338 338 338 337 338 337 336 336 333 329 327 325 324 326 325 327

GFSCGP_925_thetae_018.txt.gz
Theta_e
323 324 325 327 331 335 338 340 340 341 347 350 348 347 352 353 352 352 353 353 351 349 348 350 351 352 352 354 355 356 356 356 357 357 355 354 352 352 354 353 353 354 354 353
323 323 325 328 330 333 336 339 340 343 349 349 348 349 348 350 354 352 352 353 353 351 350 351 352 352 352 354 356 357 357 358 359 357 355 354 353 352 353 355 354 355 354 353
324 323 324 325 329 333 337 338 340 345 349 349 347 351 350 348 351 352 351 350 353 352 351 351 351 352 353 354 356 357 358 359 359 358 357 357 357 356 355 352 352 352 354 354
324 324 323 324 326 331 336 336 338 343 349 351 348 348 345 347 349 352 354 351 350 352 352 351 351 351 352 353 354 357 358 359 360 360 356 357 354 351 348 348 347 347 352 350
323 322 322 323 325 329 334 335 338 341 347 346 349 350 345 347 350 351 353 352 349 348 349 351 350 349 350 352 353 355 358 360 359 359 358 357 357 351 350 349 349 348 350 349
326 324 323 324 324 327 331 334 337 339 344 348 346 349 346 346 350 347 349 352 350 347 346 347 346 347 349 350 352 353 356 359 360 360 360 358 355 354 350 351 348 346 347 349
326 325 323 323 324 326 331 335 341 343 343 345 344 346 344 339 341 343 341 349 351 347 346 346 347 347 347 349 350 352 355 359 360 359 358 359 358 357 356 355 348 343 344 343
328 327 325 323 324 327 330 335 339 344 341 340 342 344 342 341 339 338 340 342 349 350 346 347 347 347 347 349 351 353 355 358 359 358 358 358 359 357 355 355 346 343 340 341
328 328 325 324 324 326 329 335 335 337 337 338 337 340 339 338 339 339 341 343 346 350 349 347 348 347 348 350 353 355 357 359 358 357 357 358 358 357 353 353 354 346 343 340
329 330 327 326 324 325 328 331 335 336 344 341 337 339 341 340 339 338 338 342 345 348 349 348 347 348 349 350 352 354 357 359 358 356 357 356 356 357 356 356 354 347 346 343
329 329 328 326 325 325 326 329 333 335 336 339 340 337 335 336 336 336 335 339 342 344 349 350 349 347 350 351 352 354 356 357 358 357 356 356 355 355 357 357 355 350 347 345
329 331 330 324 324 324 326 328 332 336 339 337 337 337 335 336 335 334 335 335 335 340 344 349 350 350 349 351 352 354 355 356 357 356 357 356 355 354 355 356 353 349 346 344
330 331 333 331 326 324 324 326 328 331 334 343 338 337 335 333 335 335 337 336 338 346 346 349 350 352 353 352 354 353 354 355 355 356 357 356 356 355 354 355 351 347 343 341
327 329 331 331 330 328 326 324 325 327 333 333 334 336 335 334 334 334 336 339 340 345 348 349 351 353 354 353 356 356 353 354 354 355 356 357 357 356 353 354 348 344 335 337
326 332 332 330 329 329 328 327 325 325 326 331 331 334 334 335 334 334 334 334 338 347 349 350 352 354 357 356 356 356 355 354 354 355 356 357 358 357 353 352 347 343 335 331
329 336 335 334 332 331 330 329 328 326 325 326 327 329 332 333 333 334 334 335 337 345 349 350 353 354 357 356 357 356 356 355 356 356 357 357 359 357 354 351 346 341 340 335
331 333 338 336 334 332 333 332 330 329 327 325 327 328 329 330 332 336 339 338 339 343 349 350 352 356 356 356 356 357 356 356 356 357 357 358 359 356 352 349 346 343 340 337
337 338 337 338 337 339 332 330 330 329 328 326 326 327 328 330 332 335 338 340 341 343 346 350 350 352 353 353 353 354 354 356 357 358 358 358 357 355 350 348 345 344 341 336
331 339 337 338 338 335 333 338 338 332 331 330 328 328 328 329 331 337 338 341 343 344 346 350 348 349 350 349 351 353 352 354 355 357 357 357 355 353 349 348 344 343 341 337
331 336 337 338 337 338 345 340 338 340 340 332 330 329 329 330 332 336 343 340 339 341 346 347 345 346 348 347 349 351 352 354 355 356 356 356 354 352 350 348 345 343 341 337
337 339 336 340 340 338 341 337 339 343 339 343 342 330 330 334 335 343 342 342 342 344 347 346 346 348 348 347 349 351 352 354 353 354 356 356 353 352 349 347 346 341 337 336
340 339 335 339 342 341 338 339 344 345 344 342 340 342 339 342 342 345 346 346 346 347 347 346 348 349 350 351 353 353 354 355 355 355 356 354 351 350 348 346 343 341 339 339
338 336 337 338 338 340 336 338 336 339 342 343 342 341 342 343 345 346 347 347 346 345 344 344 347 350 350 352 353 355 357 355 355 354 353 350 347 347 346 344 343 343 343 341
341 340 340 341 340 339 337 333 332 333 336 337 340 341 341 343 343 344 345 345 345 345 346 345 347 349 351 351 352 352 351 351 351 349 348 346 345 343 342 344 344 343 343 342
338 341 342 341 339 338 336 333 331 331 331 333 333 334 339 343 346 347 349 348 347 346 344 344 345 347 348 349 348 348 348 349 350 348 347 346 345 343 338 336 335 339 337 335
329 337 340 339 336 340 334 329 327 327 328 330 332 332 332 333 334 335 339 342 345 347 346 346 347 348 348 348 348 348 348 348 346 345 345 344 341 337 337 336 332 332 330 329

GFSCGP_925_thetae_021.txt.gz
Theta_e
325 325 325 328 331 335 338 340 340 340 340 344 346 346 348 350 350 346 344 347 347 347 348 348 349 348 349 349 352 353 353 353 354 355 356 355 354 352 351 352 353 355 355 354
326 325 326 328 331 333 336 340 341 340 341 342 344 346 348 351 351 350 348 346 347 347 347 348 349 348 350 351 353 355 356 356 357 357 355 353 350 348 350 354 354 356 354 354
325 325 326 328 330 333 335 338 340 340 343 345 346 348 346 347 350 350 349 347 347 346 346 348 350 350 350 351 353 357 358 359 359 357 355 356 354 351 352 347 350 354 352 352
325 326 325 326 329 332 334 336 338 339 348 352 344 350 348 346 347 350 351 350 348 347 346 346 349 351 351 351 354 357 360 360 360 360 357 354 354 351 347 346 347 347 348 348
326 325 326 326 327 330 333 336 338 338 341 346 344 345 346 345 346 346 350 351 349 347 347 346 348 349 350 351 353 356 360 362 361 361 357 356 354 349 349 347 349 347 349 348
327 327 326 326 327 329 330 335 337 338 339 346 347 347 347 347 346 346 345 349 351 349 348 348 346 347 348 350 352 353 360 363 364 362 362 360 358 352 351 350 350 347 348 347
328 327 326 326 326 328 329 334 339 341 342 342 346 346 352 344 345 344 343 344 348 351 347 347 349 348 348 350 351 352 359 365 365 363 362 361 360 358 355 355 350 346 346 346
330 330 328 325 325 327 329 332 338 343 342 341 341 346 346 345 341 342 342 340 344 350 350 346 347 347 347 348 353 354 357 364 365 364 364 362 362 358 356 353 351 345 344 344
331 331 329 327 326 326 328 332 334 337 338 340 340 340 340 342 342 341 340 339 339 348 350 347 346 345 345 348 352 355 356 362 364 364 365 364 362 360 354 352 352 350 343 342
330 332 330 328 327 326 326 330 335 338 345 345 340 340 341 343 341 340 339 338 339 341 348 348 347 346 346 346 349 353 356 362 364 363 365 364 363 362 359 357 357 352 346 343
328 330 331 330 329 327 325 329 332 335 338 341 342 342 338 341 341 340 339 338 338 339 345 349 348 346 347 346 347 352 357 360 363 363 363 362 362 360 361 358 357 355 350 347
328 330 333 331 329 328 327 327 330 342 341 338 339 338 338 337 338 337 338 338 338 338 340 345 348 348 347 349 348 350 353 356 361 361 364 363 362 359 359 360 358 358 353 349
328 330 333 333 330 329 328 327 327 330 334 345 341 339 338 337 337 337 337 336 337 337 338 339 346 349 353 353 352 351 354 353 356 360 361 363 363 361 359 360 358 358 355 350
332 329 331 335 333 329 328 327 327 328 334 335 337 338 338 337 337 336 336 337 337 336 342 345 343 347 354 354 356 356 355 353 355 357 358 361 364 363 361 359 359 359 355 350
330 333 332 331 332 332 329 326 326 326 329 332 333 335 337 337 337 338 336 336 336 338 339 347 348 347 360 358 359 358 358 357 355 358 360 361 364 363 362 358 359 359 354 350
329 332 333 333 331 330 330 330 328 327 326 327 329 331 334 335 337 337 336 336 336 336 336 344 350 351 359 360 362 361 360 359 357 361 361 362 365 363 362 360 358 358 354 348
329 331 333 334 333 333 333 331 331 331 330 329 328 329 330 333 336 338 343 338 337 337 341 337 350 355 361 358 360 361 362 360 360 361 362 363 365 365 363 361 359 357 353 348
329 334 333 336 336 338 333 332 331 331 331 331 331 331 329 330 332 336 337 340 340 339 340 340 347 351 354 355 357 359 359 361 363 363 363 364 365 365 363 360 358 356 351 349
329 331 332 335 337 337 336 337 337 339 337 332 331 331 331 329 329 333 334 336 339 341 342 341 344 348 353 356 359 361 361 361 363 363 364 364 364 365 362 358 356 353 351 348
330 335 337 337 338 341 337 341 340 340 336 333 335 337 333 330 330 334 336 333 334 338 340 342 342 348 351 356 356 361 362 363 364 363 362 363 363 362 360 357 355 352 350 348
328 332 335 338 339 336 343 339 339 341 341 346 345 344 343 341 334 332 334 336 336 340 342 347 349 350 358 356 356 362 360 361 359 358 359 360 360 359 358 354 353 351 348 346
328 332 332 336 338 340 341 340 342 348 346 345 346 344 342 343 339 332 345 346 345 344 345 347 350 352 354 356 359 361 360 358 357 357 359 360 359 357 356 354 352 348 347 344
331 332 333 333 336 345 341 343 340 341 344 345 345 343 343 343 343 345 347 348 349 349 350 350 353 356 352 356 357 360 362 360 359 359 360 359 357 355 353 352 347 344 344 344
332 331 337 344 345 343 340 337 338 338 340 343 344 344 344 347 349 350 350 349 349 350 351 351 353 356 356 358 361 362 360 360 359 359 355 352 351 351 348 346 345 344 343 344
336 338 339 346 343 340 338 337 336 336 336 340 343 346 347 348 348 349 349 347 346 347 346 347 350 352 354 355 355 356 356 356 355 352 349 348 346 347 343 339 341 345 341 343
330 335 341 350 341 342 336 333 332 333 335 335 336 338 338 339 342 342 346 347 345 344 343 345 348 352 353 353 353 353 353 353 351 350 349 348 345 344 343 339 331 333 333 333

GFSCGP_925_thetae_024.txt.gz
Theta_e
328 327 326 327 328 331 333 336 338 340 342 341 347 353 350 348 346 342 345 345 346 347 348 347 347 348 349 350 353 353 353 352 358 359 357 355 356 355 350 353 352 354 355 354
326 326 326 327 329 331 333 336 340 340 345 346 342 354 351 351 348 344 343 345 345 346 348 349 349 349 349 350 352 355 354 356 353 356 356 355 353 356 351 351 349 352 354 353
325 326 326 326 328 331 332 335 339 341 342 342 342 343 344 348 348 348 346 344 344 345 346 350 351 350 350 352 355 356 356 357 355 357 355 353 355 357 354 355 352 355 356 353
326 326 326 325 327 330 333 334 336 337 343 346 344 346 350 347 351 348 346 346 345 345 346 346 350 352 351 352 355 358 359 357 361 353 359 356 356 354 347 347 353 356 353 351
327 326 326 325 326 329 333 334 335 335 339 346 350 347 348 349 352 351 348 346 345 346 345 345 348 350 350 352 355 360 361 361 361 360 359 359 357 348 350 349 349 353 350 347
327 328 326 326 326 328 331 332 334 335 338 346 347 348 351 351 349 347 348 347 349 347 347 346 346 348 351 352 355 357 364 364 361 362 359 357 358 352 351 351 350 348 351 349
328 327 328 327 326 327 327 330 336 339 342 342 344 351 352 348 347 346 345 346 349 350 348 349 348 349 352 352 354 358 364 366 365 364 365 355 358 355 351 355 353 349 348 348
330 330 327 328 327 326 326 329 336 341 342 340 340 342 350 348 346 344 344 345 347 349 350 350 351 349 352 352 354 356 364 366 367 364 366 364 354 363 358 353 356 349 348 349
331 330 330 328 327 327 327 328 329 332 336 340 340 340 340 346 344 347 344 343 343 349 351 350 352 351 351 353 354 355 364 366 368 368 365 367 363 359 362 356 354 352 345 348
329 332 330 330 329 327 327 328 328 330 338 344 341 344 345 349 348 347 345 344 342 346 349 351 349 351 351 352 354 356 359 366 368 368 368 366 366 362 359 358 354 350 353 345
327 331 330 331 331 329 327 326 327 329 333 339 344 343 343 347 350 348 346 344 342 340 347 350 349 348 349 350 353 356 357 365 368 368 368 367 367 366 362 360 357 358 350 348
328 328 333 331 331 330 328 327 327 331 339 336 340 342 339 342 345 347 344 343 341 341 341 346 350 350 349 349 351 354 357 359 366 367 367 368 367 366 366 361 362 358 356 353
331 329 333 331 331 331 330 328 327 326 328 339 340 340 339 343 340 341 343 342 343 344 347 347 348 351 351 349 350 352 355 357 362 365 366 368 367 366 366 365 360 361 359 354
333 330 333 332 334 332 334 330 329 327 329 332 337 340 340 343 344 344 343 342 343 348 350 347 349 350 351 350 350 351 352 355 358 364 364 366 367 366 365 364 363 361 361 357
329 335 334 330 329 332 332 331 329 330 331 332 332 338 340 340 344 343 343 344 344 347 350 356 349 352 355 354 352 351 353 354 356 361 363 366 367 366 366 363 363 361 363 360
330 334 333 332 329 330 332 331 329 329 329 330 330 332 335 339 340 342 339 340 344 346 346 354 357 357 360 359 357 354 354 355 355 357 362 364 365 368 366 364 363 363 362 362
332 331 338 336 331 331 332 333 333 329 329 328 330 332 335 336 336 340 350 344 345 344 344 345 356 358 358 360 359 357 355 357 357 360 361 362 364 367 367 366 363 363 362 361
334 334 334 337 337 338 334 332 331 331 331 329 331 332 333 333 334 334 337 339 343 345 344 347 342 353 356 354 359 362 359 359 362 361 364 364 366 368 367 366 364 362 363 361
330 334 332 337 335 333 332 333 332 331 336 334 332 335 333 334 333 334 334 334 338 340 346 345 340 337 351 352 357 361 364 361 363 364 368 366 369 370 368 367 365 364 362 360
326 336 336 334 337 339 338 332 336 339 340 338 341 339 337 339 340 341 336 334 334 335 338 344 339 336 342 355 357 363 364 366 364 366 364 368 371 369 369 367 366 363 360 356
330 334 333 334 336 333 340 339 339 344 344 347 345 345 343 344 346 349 345 345 335 340 337 337 345 351 356 357 359 365 365 367 366 367 366 368 368 369 369 365 362 359 356 353
330 331 334 338 340 340 339 339 341 346 347 346 345 345 345 346 346 345 344 345 346 351 343 345 355 360 360 359 366 368 368 367 367 367 367 368 368 367 364 361 357 356 353 351
328 328 332 336 337 347 344 346 345 344 345 344 343 342 342 342 344 342 349 350 346 348 355 347 358 369 363 366 367 368 368 366 365 365 366 366 365 362 360 357 355 353 351 346
330 331 327 335 343 344 342 342 341 341 343 348 348 347 347 345 349 351 351 350 351 357 359 360 362 365 367 365 365 366 363 362 364 366 365 361 356 354 354 352 349 347 346 345
339 337 338 334 346 342 340 339 339 342 344 345 344 348 348 351 352 352 353 355 356 358 359 360 363 365 367 366 365 365 364 364 363 357 356 354 351 350 346 344 346 345 344 343
331 337 343 350 341 343 343 338 338 337 338 340 340 342 341 340 341 341 347 352 351 353 353 354 354 356 357 358 358 360 361 356 353 351 349 349 349 344 337 335 335 337 339 338

GFSCGP_925_thetae_027.txt.gz
Theta_e
323 322 325 323 323 324 327 328 330 332 339 340 345 344 342 340 340 342 345 345 345 345 343 346 346 349 349 350 350 350 352 356 354 354 354 354 357 355 354 353 354 352 352 352
323 323 325 325 325 325 326 328 330 332 339 341 348 347 343 339 339 341 343 345 345 345 344 346 346 348 350 351 351 351 350 352 357 354 353 355 355 353 353 352 349 353 352 353
324 325 327 326 325 326 326 327 329 333 341 342 347 354 344 341 342 343 342 343 344 344 344 346 346 347 349 350 353 352 351 352 357 356 355 355 353 351 355 355 353 354 354 353
324 325 326 324 324 324 325 328 330 332 340 344 346 354 350 345 345 345 342 342 342 344 344 345 346 347 348 351 352 353 352 352 354 356 356 356 356 357 356 354 352 350 353 354
324 326 325 324 323 324 325 328 330 331 332 344 344 345 346 349 349 347 343 341 341 341 343 345 347 347 349 351 353 354 352 352 354 354 356 353 353 352 354 351 352 352 355 349
323 325 325 324 324 324 325 326 328 330 331 339 343 343 344 343 349 347 345 343 341 340 342 344 346 348 348 351 355 357 355 354 356 356 354 358 355 356 351 349 350 356 354 350
326 324 324 326 322 322 323 322 327 331 332 333 341 345 344 342 344 347 347 345 342 341 341 341 345 348 348 351 354 359 358 358 357 358 355 354 358 356 353 354 351 352 349 348
328 327 325 325 323 321 322 321 326 330 332 332 332 345 345 343 343 346 344 343 340 344 342 341 342 346 349 349 354 361 360 360 361 359 358 355 355 359 354 352 352 349 349 349
327 328 328 326 326 323 323 321 322 323 327 331 333 334 335 342 344 343 342 341 341 341 344 343 342 344 348 349 354 356 362 361 362 362 359 357 354 353 360 354 353 351 346 346
324 329 328 328 326 324 323 323 322 322 324 329 330 333 339 342 345 343 342 341 341 343 341 343 343 344 348 350 352 356 363 363 363 361 363 361 358 356 355 361 356 354 350 349
322 324 327 328 326 324 322 322 321 321 323 326 330 331 334 345 345 344 342 342 342 342 345 343 345 344 349 350 352 355 362 363 365 364 362 364 363 361 357 357 360 352 354 349
324 323 325 326 327 326 325 322 320 323 324 325 325 328 332 332 344 343 343 341 339 340 341 345 346 346 348 350 351 355 363 363 365 365 365 363 364 365 362 358 358 356 352 352
326 325 325 325 325 326 326 326 322 321 321 324 329 328 328 329 342 341 339 340 341 339 337 346 345 347 348 351 351 354 360 364 365 366 366 366 364 365 365 361 358 356 356 352
336 326 325 326 326 328 329 327 325 323 322 321 323 323 329 336 339 339 340 340 338 340 336 340 346 346 347 350 352 353 355 363 365 367 366 366 366 365 365 364 361 361 358 358
322 327 327 326 327 328 328 330 327 325 323 323 322 324 326 329 338 337 337 336 337 342 342 340 346 346 345 346 350 353 355 356 363 366 366 365 366 366 365 365 364 359 362 359
319 326 328 328 326 326 326 328 329 326 326 326 326 326 328 328 339 341 339 337 339 340 346 343 343 346 346 345 348 350 353 355 357 363 364 364 364 366 366 365 364 364 359 361
320 322 330 330 329 328 326 326 327 330 328 327 326 325 327 328 334 339 342 337 335 335 344 345 343 348 347 347 347 349 351 353 355 358 362 363 363 364 365 365 364 364 362 361
321 321 325 329 333 335 331 327 328 329 332 328 327 327 328 328 329 331 331 332 334 337 338 340 346 346 351 350 349 349 350 351 354 356 358 362 363 364 366 365 364 363 363 362
321 321 326 332 331 332 333 332 333 330 330 333 329 327 327 328 329 329 331 329 327 330 328 334 341 347 350 357 353 351 351 353 353 356 357 361 363 364 365 366 365 363 363 363
321 321 326 331 332 332 333 332 332 338 340 344 342 343 342 338 337 338 342 341 341 334 330 331 336 338 351 350 358 355 353 356 355 354 359 360 362 363 366 366 365 364 363 362
327 330 329 331 329 330 333 335 332 341 343 347 344 344 344 343 343 343 340 338 341 341 335 332 335 336 343 350 360 359 356 355 360 359 361 363 364 366 367 366 365 364 362 362
333 331 330 331 334 335 342 339 340 347 347 344 344 343 343 343 342 342 340 339 338 346 348 343 335 342 342 348 359 360 362 359 358 365 364 369 370 368 367 366 365 363 360 357
329 329 337 334 341 343 342 344 343 345 344 344 343 349 341 342 344 352 350 348 348 349 358 364 365 367 370 362 360 362 366 366 365 367 370 370 369 368 366 363 359 356 354 351
332 333 338 339 341 337 336 341 341 347 349 348 349 350 348 349 350 349 349 354 357 357 357 359 361 363 364 369 369 369 368 367 367 367 366 363 360 358 357 356 356 353 350 348
332 331 337 339 341 342 343 340 341 345 345 342 340 340 341 341 342 345 348 350 354 355 357 362 363 364 364 366 366 366 365 366 362 357 353 352 350 349 348 349 348 348 347 346
328 329 338 343 333 336 331 330 338 342 343 339 338 337 337 336 337 338 339 346 349 352 354 353 355 358 359 361 359 358 359 359 354 351 351 344 341 341 341 340 337 342 344 344

GFSCGP_925_thetae_030.txt.gz
Theta_e
320 319 321 322 320 321 322 323 324 326 329 341 340 340 340 348 349 350 349 349 348 347 345 344 350 350 348 348 351 352 352 350 349 347 347 347 348 347 351 352 349 351 351 351
320 320 320 322 322 322 321 322 323 325 327 339 342 343 339 344 346 348 348 347 347 346 344 344 347 349 349 349 352 352 352 351 350 351 348 347 348 349 349 352 352 352 353 352
318 320 322 323 323 323 322 322 323 325 328 342 344 347 344 340 342 344 345 345 345 345 344 344 344 348 349 348 351 351 352 353 352 352 351 351 350 354 355 354 353 352 352 352
318 321 322 322 324 324 321 323 324 326 328 339 341 346 347 343 338 338 344 344 344 344 343 343 344 347 348 349 350 350 351 351 354 353 353 353 354 355 352 351 352 350 351 352
323 323 323 324 324 324 323 323 324 325 326 334 343 343 341 343 345 340 340 343 343 343 343 343 344 345 348 348 350 350 350 352 353 354 354 353 353 352 348 351 356 353 352 353
323 322 323 323 324 324 323 321 321 325 324 335 332 344 340 344 345 343 342 341 343 343 343 342 344 345 346 348 350 351 351 353 353 354 354 354 354 353 350 353 353 354 353 353
325 324 322 323 322 321 321 318 319 322 324 327 330 339 340 339 344 344 343 341 341 342 342 342 343 344 345 347 350 352 352 354 355 356 356 355 354 350 351 350 352 352 353 353
325 326 323 321 323 322 317 319 320 322 325 326 325 338 339 337 340 344 343 343 340 340 341 342 342 344 345 347 350 353 353 353 355 355 355 354 353 350 353 354 352 350 352 353
322 324 325 325 323 322 320 318 318 318 322 326 327 331 331 337 338 344 345 344 342 340 340 341 343 344 345 347 351 353 353 353 355 355 353 354 354 353 354 354 354 352 352 350
319 323 323 326 323 322 322 317 319 313 320 321 323 329 332 332 340 340 345 344 343 340 339 340 340 343 346 346 350 353 354 353 354 356 355 354 352 353 355 356 356 351 349 348
320 318 322 324 325 324 322 319 317 316 317 321 321 323 323 327 332 338 344 343 342 341 340 340 340 341 344 347 350 355 355 354 355 356 356 356 355 353 353 357 358 355 352 349
318 318 321 321 321 324 324 322 317 321 318 318 321 323 327 325 331 339 340 341 341 341 339 341 340 340 343 347 348 353 358 356 357 358 358 357 357 356 354 353 354 359 355 352
322 318 320 319 320 321 322 322 321 313 315 321 323 322 322 322 334 338 339 338 339 337 336 338 339 340 341 346 347 352 357 358 358 359 359 359 359 359 357 355 354 353 359 354
316 322 320 324 322 322 321 324 321 320 321 320 321 322 322 324 333 338 339 339 338 337 336 336 338 341 341 346 348 350 354 359 359 360 359 359 360 361 360 358 356 355 354 358
315 318 320 321 323 323 324 325 324 321 321 321 321 319 318 318 328 335 337 338 338 337 337 337 338 342 342 346 348 350 353 358 360 361 361 360 360 360 361 361 359 356 355 356
314 318 317 323 325 323 324 324 325 324 323 321 319 319 318 320 323 330 334 336 336 332 335 334 339 341 344 346 348 349 352 358 360 361 362 362 362 361 361 362 362 359 358 356
315 316 318 322 324 324 324 325 325 325 325 323 321 321 321 323 329 331 334 334 336 333 332 337 339 342 344 346 349 349 351 356 360 361 362 362 363 362 362 362 362 362 359 359
317 318 317 320 321 326 325 324 324 323 324 325 323 322 322 323 322 329 329 333 334 332 334 338 339 341 343 345 348 350 351 353 359 360 361 362 362 362 363 363 362 362 362 358
317 318 320 322 327 326 330 325 324 322 324 327 325 324 324 323 325 337 333 327 323 327 327 332 338 342 344 344 345 348 350 353 353 358 360 361 362 361 363 363 363 362 362 360
317 317 321 322 325 330 327 329 329 328 328 342 327 328 330 325 324 329 338 337 336 335 329 325 336 343 346 346 344 345 347 350 352 353 356 359 361 361 361 363 362 362 362 361
331 329 325 323 325 325 329 332 329 331 331 343 339 337 334 337 329 334 337 337 337 338 339 331 327 331 345 348 347 345 346 348 350 352 353 354 359 360 361 363 363 362 361 361
330 334 332 328 332 330 335 340 330 331 341 340 340 339 338 337 343 341 342 340 335 340 344 342 331 327 333 345 351 348 347 348 349 349 351 354 357 360 361 363 364 362 361 359
329 329 332 332 336 331 329 344 346 347 349 349 348 345 349 350 350 352 355 355 355 355 356 357 350 357 360 340 354 352 351 349 351 352 353 356 359 360 363 364 363 360 358 355
329 329 333 334 331 336 332 333 342 341 342 341 342 344 347 348 350 351 353 354 355 355 357 359 359 358 360 361 350 355 355 353 356 357 363 365 364 364 364 362 360 357 353 350
328 331 333 334 334 335 333 330 335 340 339 338 337 337 340 344 344 349 350 351 352 351 351 355 357 359 359 361 363 361 363 361 364 364 364 362 358 355 350 349 349 350 350 351
326 329 333 339 332 334 331 329 329 330 331 332 334 335 334 336 337 340 342 343 347 350 350 350 351 352 354 353 352 357 361 360 358 351 347 345 339 334 333 336 337 342 348 347

GFSCGP_925_thetae_033.txt.gz
Theta_e
319 320 321 322 319 321 321 322 322 323 331 339 339 340 353 350 349 348 347 348 350 350 349 349 349 349 349 348 348 349 350 349 349 349 351 351 351 350 348 351 352 350 351 351
319 321 320 320 321 320 320 321 321 321 324 329 333 340 352 351 350 349 348 347 347 346 344 345 348 350 349 348 348 349 351 351 350 349 350 353 351 350 348 347 352 350 351 350
321 320 319 321 321 321 320 320 322 322 324 332 339 342 348 352 350 349 348 347 346 346 345 342 346 349 349 347 348 349 350 351 351 350 351 351 349 348 348 348 351 351 351 352
317 318 320 320 321 321 321 321 322 323 324 325 338 346 341 348 351 349 349 348 347 346 344 343 345 348 348 347 348 349 350 351 350 350 350 349 348 348 348 350 348 349 352 351
318 318 319 320 321 321 322 322 322 323 323 324 330 340 339 341 348 346 345 346 346 345 345 344 343 346 348 348 348 349 349 351 351 350 350 350 350 349 347 348 352 352 352 352
320 320 318 319 321 321 322 323 319 321 319 324 324 333 334 343 342 341 339 344 344 344 344 343 342 344 347 348 347 349 350 351 351 351 351 351 351 351 349 350 351 349 352 353
319 319 320 321 320 320 320 317 320 319 320 323 320 328 328 333 340 340 339 338 342 343 343 343 342 342 345 347 347 349 349 351 352 352 352 352 352 352 350 351 350 352 353 353
323 325 321 320 321 321 318 319 317 320 320 321 322 327 327 332 334 339 340 339 338 342 342 342 342 341 343 346 347 348 349 350 353 353 352 352 353 352 351 352 349 349 352 351
323 323 322 323 320 321 319 320 318 316 320 319 322 324 329 330 332 334 339 339 339 339 342 341 342 341 343 344 346 348 349 350 352 353 353 352 352 352 352 352 350 348 350 351
319 322 320 323 321 319 320 314 318 310 319 320 318 324 327 331 332 333 337 339 340 339 340 341 341 341 342 343 345 347 349 350 351 352 353 352 352 353 353 352 350 350 352 351
315 317 320 321 321 324 319 318 315 315 313 318 317 320 321 327 331 334 337 340 340 340 339 340 340 341 342 343 344 347 350 350 351 352 352 353 353 353 353 352 350 350 353 351
318 312 319 322 320 322 321 319 314 316 316 315 319 319 322 324 324 328 333 338 341 341 340 338 338 340 341 343 344 348 350 350 350 352 352 352 352 352 353 353 351 351 352 353
320 318 316 316 317 317 321 320 319 319 314 320 319 318 318 321 323 326 331 333 337 340 339 338 338 337 338 343 344 347 350 351 351 351 353 353 353 353 352 352 352 351 354 355
315 315 318 319 318 318 318 320 321 319 319 321 321 320 321 321 321 325 332 334 335 337 337 338 338 337 336 341 344 347 351 352 351 352 353 353 354 354 354 353 352 352 352 356
313 317 316 318 319 320 321 320 321 319 321 321 322 319 318 318 321 324 328 334 336 335 336 337 338 337 336 339 344 346 350 353 353 353 354 354 354 354 354 354 353 352 352 353
311 317 316 320 320 321 322 321 321 322 322 319 319 317 316 318 316 319 321 328 334 334 335 333 336 338 338 339 343 345 349 354 354 354 355 355 355 356 356 356 356 355 353 353
312 316 317 320 319 320 322 322 322 322 323 322 321 318 317 317 317 317 319 324 331 332 335 331 331 334 338 339 342 345 347 351 356 356 356 356 356 356 357 358 358 357 355 354
312 314 316 318 318 325 322 321 323 322 322 320 320 318 319 320 320 321 320 323 328 330 328 328 331 331 337 340 342 344 346 350 355 356 357 358 357 357 357 357 359 359 357 355
312 314 317 320 321 322 323 324 323 321 322 322 322 321 319 320 325 327 328 324 328 329 327 328 332 334 337 340 342 345 346 349 354 356 357 358 359 359 358 358 358 359 359 357
312 312 319 318 322 325 325 331 331 328 324 322 322 322 321 321 323 324 333 327 324 322 325 328 334 338 338 341 344 346 347 349 354 356 357 358 359 360 360 360 359 359 359 359
315 317 320 321 323 321 325 335 336 327 325 331 328 322 321 321 322 323 333 335 330 332 333 327 330 337 340 341 344 346 348 349 350 354 356 357 359 359 359 360 360 360 360 359
323 327 323 321 330 328 334 337 345 338 341 338 334 333 330 333 333 334 333 332 334 336 341 332 323 325 338 343 341 342 345 348 349 351 352 357 357 359 359 359 360 360 360 359
321 325 325 325 329 330 332 336 333 336 342 344 336 344 345 349 350 349 350 352 353 353 353 354 349 347 352 333 344 341 342 344 346 348 350 351 355 357 359 359 360 361 360 359
319 321 327 331 332 334 335 332 331 332 338 339 344 346 350 352 351 352 352 352 353 353 354 355 354 352 351 357 354 347 348 344 344 345 347 350 351 355 358 359 360 361 360 358
317 322 323 330 333 331 336 332 330 334 332 336 335 336 341 349 347 350 351 351 351 351 350 352 354 354 353 353 352 357 359 356 348 348 348 350 352 355 358 353 356 361 358 357
318 325 326 329 332 333 333 330 329 331 331 331 333 335 334 336 338 341 343 343 346 346 347 348 348 349 351 352 353 354 356 358 358 352 347 347 344 336 332 337 337 343 346 346

GFSCGP_925_thetae_036.txt.gz
Theta_e
320 320 321 320 318 320 321 321 324 323 327 335 333 338 350 349 349 351 351 351 350 349 347 348 349 349 349 349 349 349 349 348 347 347 349 348 349 350 351 348 348 348 348 349
316 322 321 320 319 320 320 321 321 321 322 324 324 336 351 350 351 351 352 351 351 349 348 348 348 348 348 348 349 349 349 349 348 347 347 348 348 348 352 349 349 349 349 350
321 318 320 321 320 321 319 320 321 322 322 324 336 336 350 351 349 348 347 349 349 350 349 348 348 348 348 348 347 348 349 348 349 348 347 348 349 349 351 349 348 350 350 349
317 319 321 318 320 320 318 319 321 321 321 322 332 334 343 352 352 349 347 345 347 347 347 346 348 347 348 348 347 347 348 348 348 349 348 348 350 351 351 350 349 347 350 350
318 318 319 320 322 319 321 320 320 320 320 321 326 334 335 347 354 352 349 347 345 344 344 344 343 347 347 348 347 347 348 348 348 349 350 349 349 350 350 349 346 348 349 351
318 316 319 319 319 319 320 321 316 316 317 321 320 325 324 341 352 352 349 348 347 346 344 343 341 343 346 348 347 346 347 348 349 349 350 350 349 349 348 347 347 348 350 351
318 318 318 317 318 318 319 317 319 319 320 324 318 324 325 332 339 345 348 347 346 346 345 344 343 342 345 346 347 347 348 348 349 349 349 349 349 349 348 348 348 347 350 350
319 320 318 317 317 318 318 316 318 320 319 322 317 322 323 325 335 337 340 342 342 344 345 345 344 342 342 346 347 346 348 348 348 349 349 349 349 349 349 350 350 349 348 347
318 320 320 318 319 319 317 319 315 315 316 316 318 320 324 325 327 336 337 337 338 339 343 343 343 342 342 343 346 346 348 347 348 349 349 350 350 350 350 350 350 350 349 346
319 322 320 319 319 318 316 315 319 311 320 319 316 320 324 328 327 329 332 336 337 336 338 341 341 342 341 342 345 346 347 348 348 349 350 350 350 350 350 350 350 350 350 348
315 317 319 319 320 322 316 316 314 316 313 318 317 318 318 325 325 326 328 333 336 337 336 338 340 341 341 341 343 345 346 347 347 350 351 351 351 351 351 351 350 350 351 349
320 311 318 319 320 321 322 319 312 317 315 314 314 318 318 320 324 326 326 328 333 336 337 337 339 340 341 340 341 344 346 347 348 348 351 351 351 351 351 351 350 350 351 350
318 316 315 318 318 318 320 318 317 316 311 317 318 319 318 317 320 321 326 328 334 336 336 336 337 339 339 340 341 343 345 346 347 348 350 351 351 351 351 350 350 350 351 350
314 314 315 320 319 318 318 319 318 318 320 320 319 318 320 318 319 320 322 325 327 331 335 336 336 338 338 339 341 342 344 346 347 348 350 350 351 351 351 351 351 351 351 351
311 316 317 317 318 319 319 320 320 319 319 320 321 320 318 318 318 320 319 325 330 333 333 335 336 337 336 339 341 342 344 346 348 348 349 350 350 350 350 350 351 351 351 351
308 314 316 318 318 318 319 319 320 319 319 319 320 318 317 318 317 319 321 324 329 332 334 334 336 337 335 337 340 342 344 347 348 349 349 350 351 351 351 351 350 350 351 351
310 312 315 317 317 318 320 318 319 319 319 319 320 320 318 317 317 318 320 319 322 327 332 333 333 335 336 335 339 342 344 347 349 349 349 350 351 351 352 352 352 351 350 350
310 312 313 316 317 321 318 318 320 319 320 319 318 320 319 320 319 318 318 320 319 320 327 331 332 334 336 337 337 341 343 347 350 350 350 351 351 352 352 352 353 352 352 351
308 309 313 317 318 317 318 324 332 333 327 321 320 319 319 319 320 319 317 317 319 320 323 328 331 332 334 335 337 340 343 346 351 352 352 352 353 353 353 354 354 354 354 353
309 310 311 314 319 320 324 330 332 334 336 323 325 321 321 318 320 322 322 324 323 323 325 326 327 330 331 333 338 340 343 346 349 353 353 353 354 354 354 354 354 355 356 355
310 312 314 314 320 320 318 333 338 335 329 337 338 339 321 320 322 322 322 328 324 323 322 324 329 334 334 333 337 341 343 345 347 350 353 354 355 355 355 355 355 355 356 357
312 315 315 314 320 319 328 333 340 333 334 337 338 339 340 318 319 325 330 330 328 335 336 326 323 325 334 337 341 342 344 344 346 349 352 354 355 356 357 357 356 356 356 357
314 315 319 315 315 318 330 331 330 331 335 336 338 339 339 324 328 333 340 347 350 352 352 348 348 351 353 343 339 339 341 344 346 347 350 354 354 356 357 357 358 358 358 358
314 313 319 320 319 322 329 331 330 330 333 333 336 339 340 345 347 351 353 352 350 349 350 350 352 353 354 353 353 351 348 346 343 343 347 349 351 355 356 357 358 359 359 359
311 310 313 319 320 325 332 329 329 332 332 333 338 340 349 351 351 352 352 351 348 347 348 349 350 350 352 352 355 357 358 353 346 344 344 347 349 346 340 339 347 354 339 355
310 311 314 318 319 325 329 327 330 332 332 335 339 342 341 345 345 344 343 343 343 342 343 343 343 343 343 345 348 351 357 355 348 342 341 340 338 339 338 338 331 334 338 339

GFSCGP_925_thetae_039.txt.gz
Theta_e
324 324 325 324 323 324 323 326 329 330 329 332 337 343 341 347 353 355 353 351 350 349 347 347 349 349 350 351 352 351 351 350 350 349 348 347 345 344 348 351 350 350 349 349
322 323 322 323 323 322 322 324 328 328 325 326 330 333 336 346 351 353 354 353 351 349 349 349 349 349 350 351 352 352 352 351 349 349 348 347 347 348 351 353 350 348 348 348
322 321 322 323 323 324 322 322 326 328 325 326 330 332 340 349 350 351 352 352 351 351 351 350 349 350 350 351 352 352 351 351 349 349 350 350 350 351 351 352 353 350 348 349
320 322 322 322 323 324 324 322 323 325 327 331 332 337 340 345 353 352 352 353 352 352 351 350 350 350 350 351 352 351 352 351 351 350 349 349 348 350 350 351 353 352 348 349
321 322 323 324 323 324 323 323 324 325 327 328 329 332 335 346 353 354 352 351 352 351 351 351 350 350 350 351 351 351 351 350 350 350 350 350 350 350 352 352 353 352 351 348
322 320 322 323 323 324 324 324 324 324 326 328 329 330 334 338 348 351 351 351 350 351 350 350 349 350 350 350 350 351 351 350 350 350 350 350 351 351 352 353 353 353 353 352
322 321 322 322 323 323 324 324 326 325 326 327 328 329 332 333 341 340 349 351 350 348 349 350 351 350 351 351 351 351 350 351 351 351 351 351 351 352 352 352 352 352 351 352
323 323 321 322 323 323 324 324 323 325 324 324 327 329 331 330 331 338 342 346 349 350 349 348 351 348 348 351 351 351 350 351 351 351 351 351 351 352 352 352 352 351 351 351
323 323 321 321 322 323 324 326 323 322 321 323 325 327 328 329 330 336 340 344 348 349 350 349 348 348 347 348 350 351 351 351 351 351 351 351 351 351 352 351 351 351 351 352
324 325 323 321 321 323 322 323 323 324 324 324 324 327 329 333 332 333 338 340 343 346 348 348 350 350 348 347 348 350 350 351 351 351 351 351 351 351 351 351 351 351 351 351
322 324 324 322 323 323 321 324 323 323 323 322 322 324 328 333 336 334 333 336 339 341 343 345 349 349 348 347 346 349 350 351 351 351 351 352 352 352 352 352 351 351 350 350
321 320 327 325 323 324 322 323 324 325 327 323 323 323 325 329 333 333 334 335 336 340 341 342 344 346 346 348 347 347 349 350 351 351 351 352 352 352 352 352 352 351 351 350
320 323 328 326 325 322 324 325 324 324 324 329 324 323 327 327 327 329 331 332 334 339 341 342 341 345 348 347 346 346 348 348 349 350 351 352 353 353 353 353 352 352 351 351
318 320 325 328 327 323 325 324 325 324 327 326 327 325 326 327 327 329 329 331 333 339 341 343 344 345 347 346 346 346 347 348 349 350 351 353 353 353 353 353 353 353 352 352
316 320 318 319 318 319 321 322 322 324 326 329 327 329 326 327 327 330 332 333 332 335 337 342 345 347 349 347 347 346 346 348 348 350 351 352 353 354 354 353 353 353 353 352
314 316 319 316 316 318 320 321 321 322 323 323 324 325 325 327 328 329 331 333 331 333 334 340 343 345 349 348 347 346 347 347 348 350 351 352 353 354 354 354 354 354 354 353
313 315 316 317 316 318 321 321 321 322 322 323 325 325 325 326 327 329 333 334 335 335 338 340 343 347 350 346 345 346 347 347 349 351 351 352 353 354 354 354 354 354 355 355
312 316 318 315 316 320 321 321 321 323 324 323 323 323 324 326 328 331 332 332 334 334 334 335 335 340 343 342 342 345 346 348 350 351 352 352 353 354 354 354 354 354 354 355
309 312 314 313 316 317 317 319 326 330 329 332 326 324 324 325 327 330 330 331 333 334 336 335 331 332 338 341 342 344 347 349 351 352 352 353 353 354 355 355 355 355 354 354
310 311 313 314 313 317 321 321 322 329 331 332 340 338 329 326 328 327 334 331 330 328 331 333 331 332 335 341 340 344 348 350 352 352 353 353 353 354 354 355 355 355 355 355
314 312 313 312 314 314 317 321 337 335 332 339 341 342 343 344 332 335 333 332 332 335 334 331 334 336 338 338 342 346 347 351 349 351 353 354 354 355 355 355 355 355 356 356
313 316 315 312 312 312 315 320 323 334 337 337 339 341 343 343 343 343 339 332 334 335 335 332 336 339 342 342 343 349 351 348 349 351 353 356 356 355 355 356 356 355 356 357
314 312 317 314 312 313 316 320 323 326 333 334 339 340 342 343 343 344 342 334 344 349 348 335 347 352 350 346 347 348 350 350 351 352 354 355 357 357 357 357 355 355 356 357
312 314 317 316 314 315 315 319 321 323 333 335 337 339 341 343 345 348 339 347 357 356 353 354 357 356 356 353 352 351 350 347 352 353 354 356 357 358 359 358 359 358 359 358
311 312 314 314 313 314 315 317 321 321 329 333 338 341 342 346 352 346 348 354 355 355 354 355 357 357 358 357 356 358 357 353 350 351 352 354 352 349 349 350 354 359 358 359
310 312 314 313 313 315 319 322 323 326 331 333 339 339 344 349 350 352 351 349 349 349 348 349 349 348 348 350 349 351 350 350 347 346 344 343 342 343 346 343 338 340 343 349

GFSCGP_925_thetae_042.txt.gz
Theta_e
326 326 327 325 329 330 331 332 334 337 336 338 341 343 344 344 350 351 354 354 353 351 348 346 347 346 347 348 349 350 350 350 350 350 349 346 344 343 343 345 349 354 357 357
324 326 325 326 324 327 328 329 332 335 334 334 337 339 340 340 346 349 353 354 354 352 350 348 347 347 347 348 350 352 352 352 353 351 348 344 343 343 344 348 353 357 357 358
325 325 324 325 326 327 327 329 331 333 334 332 334 337 337 337 340 345 348 352 352 352 351 350 348 347 347 348 351 353 354 353 354 351 350 349 346 346 347 350 354 356 356 357
325 324 324 324 325 326 327 326 327 329 332 337 334 341 341 340 342 346 347 351 353 352 351 350 348 347 347 349 351 353 355 356 356 354 349 350 347 346 348 350 351 352 356 355
325 324 324 324 324 324 324 325 326 326 329 331 334 336 338 339 340 346 348 349 352 352 352 351 350 347 346 348 351 353 355 357 356 355 351 351 350 345 349 350 351 353 353 356
323 323 324 324 324 324 324 324 325 326 327 331 333 335 337 338 341 341 346 348 351 351 352 352 349 346 347 348 350 353 356 358 357 357 356 354 352 348 350 353 353 353 353 353
323 324 323 324 325 325 324 325 327 327 328 330 331 333 335 335 336 339 342 346 349 352 352 352 353 351 348 348 350 352 356 359 358 357 357 356 355 353 354 355 355 353 351 352
326 325 324 324 325 326 325 326 326 328 327 327 329 331 333 333 334 335 338 340 347 350 351 352 353 352 351 349 351 353 356 358 359 358 358 358 357 354 354 355 354 354 351 350
328 328 325 325 325 326 327 328 325 325 327 327 327 328 329 331 333 334 334 337 340 348 351 351 352 351 352 352 353 354 357 359 359 358 359 359 358 357 354 354 357 355 354 351
329 331 326 324 325 325 327 326 325 326 327 328 325 328 329 331 332 334 334 336 339 343 349 351 350 350 350 352 353 355 357 359 359 357 358 358 358 358 357 356 357 356 355 355
327 328 329 325 326 326 326 327 326 326 326 328 328 328 329 330 333 332 334 337 340 343 347 350 351 349 350 350 351 355 357 358 358 357 358 358 358 358 358 357 358 358 357 357
326 328 331 327 325 326 326 326 327 327 330 327 328 327 326 328 329 333 334 336 338 340 343 346 347 348 349 350 350 351 354 356 357 357 358 358 358 358 358 359 358 358 358 358
326 327 331 331 327 326 326 326 326 326 327 331 329 326 328 329 329 332 333 334 336 338 340 342 343 345 349 349 352 350 351 352 354 356 357 358 359 358 359 359 358 358 358 358
320 328 330 333 331 328 328 327 326 326 330 328 330 329 328 328 328 330 331 331 332 335 338 339 342 344 345 348 352 354 351 350 352 353 355 357 359 359 359 359 359 359 359 359
319 328 328 330 325 325 329 327 327 328 328 330 329 330 330 329 329 329 331 330 332 335 337 340 344 343 344 346 352 354 352 351 350 354 355 357 358 359 359 359 359 359 360 360
317 325 324 327 324 323 324 326 327 328 329 329 329 330 330 329 330 330 330 330 330 330 333 336 341 345 347 348 350 350 353 352 351 354 356 356 359 360 360 360 360 360 360 360
315 319 322 327 325 324 326 326 327 327 328 329 331 330 329 330 329 330 331 331 331 332 332 333 338 343 346 344 347 350 353 352 352 354 356 357 359 360 361 360 360 361 361 361
315 316 319 323 324 327 326 327 326 326 327 327 328 328 329 330 330 330 331 331 332 331 332 333 334 336 341 343 341 348 349 353 354 356 356 358 359 360 361 361 361 361 361 361
313 315 318 321 323 324 325 323 324 326 328 327 328 328 328 327 327 328 328 329 331 333 334 334 332 332 332 334 338 343 350 350 353 357 357 358 359 360 360 362 362 361 360 360
312 313 316 318 321 324 323 323 322 324 328 329 330 334 336 332 330 329 329 330 332 332 332 332 331 332 332 334 337 341 349 352 357 357 358 357 358 360 361 361 360 360 359 359
312 313 314 315 317 319 320 322 330 329 341 337 336 338 340 343 342 343 342 341 339 338 336 333 333 335 335 337 341 344 348 352 355 354 355 356 358 360 359 360 360 360 359 359
315 315 313 314 315 316 315 317 321 327 327 330 332 333 335 337 338 339 339 343 344 343 339 332 337 336 338 345 345 353 355 352 354 353 354 356 359 358 358 359 360 360 360 360
313 312 314 314 313 314 315 316 319 320 322 324 326 331 333 335 337 339 340 344 347 346 340 339 342 339 346 348 348 352 356 353 353 354 355 358 359 360 357 360 361 360 360 359
311 312 314 315 315 315 315 316 318 317 319 320 323 324 328 331 334 339 341 345 350 345 349 351 348 352 355 354 354 352 354 354 355 356 357 359 361 361 360 360 361 360 359 359
312 313 314 314 314 315 315 316 316 317 316 316 319 322 328 329 331 339 341 350 351 348 354 353 357 358 360 359 358 356 354 356 356 358 359 360 360 360 361 361 357 359 358 355
312 313 314 315 314 315 315 315 316 318 322 321 323 326 327 330 333 337 346 352 353 355 355 359 360 357 357 354 354 362 360 355 356 357 357 357 358 360 360 357 346 350 353 358

GFSCGP_925_thetae_045.txt.gz
Theta_e
335 336 337 332 338 337 334 334 335 338 340 340 343 344 346 349 350 349 353 355 353 350 348 346 346 345 346 347 348 350 351 350 350 351 350 348 346 345 344 343 346 350 353 355
333 337 332 331 331 335 335 334 335 335 338 340 342 345 345 345 348 349 350 354 353 352 349 347 346 346 346 347 349 351 353 354 353 351 350 346 345 343 343 343 346 351 355 358
329 331 330 327 328 331 335 335 334 334 336 340 340 343 342 343 343 347 346 353 352 353 352 349 347 346 346 347 349 351 354 354 354 351 350 349 346 344 344 344 347 353 356 358
327 327 327 326 327 327 327 330 332 333 336 342 338 344 342 341 342 343 345 350 353 353 353 351 348 347 346 346 348 352 356 356 356 355 351 349 347 345 344 345 347 352 355 357
328 326 326 327 327 327 327 328 330 332 334 337 339 342 341 341 342 341 343 344 350 352 353 352 350 346 346 345 347 350 357 358 356 357 353 352 351 346 345 346 348 351 355 356
329 327 327 327 327 327 327 327 328 329 331 335 337 341 342 340 342 342 343 344 345 351 351 352 350 346 345 344 345 349 358 361 359 359 357 356 352 350 345 348 350 351 352 355
327 328 327 327 327 327 326 326 327 329 331 333 333 337 339 338 338 340 341 344 345 349 351 352 352 349 346 345 348 349 358 363 363 362 360 357 357 355 352 353 352 352 350 350
327 328 328 326 327 327 327 326 327 331 329 330 332 335 336 336 336 337 340 341 344 347 351 352 352 351 348 348 349 351 357 363 364 363 362 361 359 355 353 352 353 352 351 349
329 330 328 327 326 328 328 329 327 328 329 329 329 331 332 334 335 336 337 339 343 346 349 351 352 351 349 349 351 353 357 362 364 364 364 363 362 359 355 353 354 356 354 351
330 332 330 327 327 327 329 328 327 328 331 331 330 331 332 333 333 335 336 339 340 344 348 351 352 352 351 350 351 354 356 363 364 364 364 365 364 363 359 357 358 357 356 356
330 333 334 331 328 328 328 330 328 328 328 330 332 331 332 333 334 333 335 336 337 340 346 349 351 351 352 352 351 354 357 360 365 364 364 365 365 364 364 361 360 359 360 360
329 331 335 332 329 328 328 329 330 333 334 329 331 332 331 332 331 333 334 336 337 339 342 346 349 351 351 353 352 354 356 358 363 363 364 365 365 365 365 364 362 362 361 361
329 331 335 336 331 329 329 329 329 330 329 333 330 332 332 331 331 333 334 335 338 340 342 343 347 350 351 352 354 355 356 357 358 361 362 364 365 365 364 364 364 363 363 363
324 330 334 337 335 330 330 330 329 330 333 331 332 331 331 331 331 335 335 335 337 340 342 343 346 348 351 351 355 356 354 354 357 359 361 362 365 365 364 364 365 364 364 364
324 332 332 333 334 332 330 329 330 330 331 332 332 333 333 332 332 333 334 335 335 337 338 339 341 343 345 351 355 357 354 355 354 358 361 362 364 366 365 364 364 365 364 365
323 327 331 334 332 331 331 331 329 330 330 330 331 332 333 332 332 332 332 333 332 333 336 337 339 342 344 347 355 356 359 355 356 357 359 361 363 365 366 366 365 365 365 365
320 325 331 335 333 331 332 331 332 331 330 330 331 332 332 333 332 332 333 333 333 333 333 333 334 339 343 344 346 351 356 358 357 357 360 361 363 364 366 367 366 366 367 366
317 322 325 329 332 336 331 330 330 330 331 330 331 332 332 333 333 333 333 333 334 334 334 333 334 335 338 340 343 347 349 357 358 359 358 362 363 365 366 367 367 367 367 367
315 318 323 327 331 331 330 329 330 330 331 330 331 331 330 331 331 332 332 332 332 332 333 334 333 332 333 333 338 340 347 351 359 361 361 359 364 365 367 368 368 367 367 367
314 316 319 324 328 333 330 327 326 328 332 330 330 330 330 332 333 332 332 335 337 339 339 341 336 333 333 334 334 335 341 353 359 361 361 362 363 365 366 367 368 367 367 367
314 316 317 319 324 326 326 327 327 329 343 337 333 333 335 339 343 343 341 341 341 342 343 341 340 338 337 336 337 342 342 349 355 356 359 363 364 366 366 367 367 367 367 364
318 316 317 318 320 323 322 321 326 329 332 332 333 334 336 337 337 338 339 341 341 342 344 343 343 340 337 339 343 350 354 349 356 357 359 362 364 364 365 368 368 368 367 367
314 317 317 317 318 320 319 320 320 321 322 324 325 326 328 329 330 333 336 339 342 343 348 347 344 345 345 343 346 354 355 358 358 361 362 363 365 365 363 367 369 367 367 363
313 314 315 316 317 317 318 318 318 318 319 320 321 322 322 323 325 328 332 334 340 342 349 349 346 352 351 351 353 356 356 360 362 363 364 365 366 367 365 364 364 364 362 363
313 313 314 314 315 315 316 317 317 317 318 318 319 319 321 326 326 328 331 334 338 341 350 349 354 354 353 356 358 358 357 359 360 360 361 362 363 364 364 361 357 362 360 356
313 313 314 314 315 316 316 316 316 317 317 318 318 320 322 323 322 325 328 333 339 345 353 354 356 362 363 361 363 365 360 360 360 360 360 360 361 363 363 358 348 348 348 352

GFSCGP_925_thetae_048.txt.gz
Theta_e
334 333 333 334 335 336 339 340 337 338 341 341 341 345 348 349 352 351 352 354 350 350 349 349 348 347 348 349 350 349 350 349 352 354 354 354 351 348 346 345 343 354 352 353
335 336 333 332 334 336 338 337 336 335 337 341 342 343 352 352 351 351 355 355 354 350 350 351 349 348 348 349 350 352 351 350 354 354 354 352 350 348 346 345 344 348 351 354
336 336 334 333 334 333 337 338 336 335 335 341 342 343 346 353 351 347 348 355 353 353 351 351 351 349 348 350 352 353 353 356 354 353 352 351 348 347 347 345 344 347 349 356
336 334 333 334 333 332 333 337 337 335 335 337 342 346 348 345 347 351 351 353 352 353 352 350 350 349 348 350 351 354 355 355 356 353 353 352 350 349 346 345 345 349 350 356
337 335 332 334 332 330 330 331 334 335 335 335 336 344 343 347 346 343 348 347 352 351 352 351 349 348 348 349 352 354 357 356 358 354 355 351 351 348 346 344 347 346 354 355
334 334 330 328 330 327 328 328 329 332 334 337 336 342 343 344 346 342 344 343 352 351 353 353 349 348 348 348 351 353 357 358 358 358 351 357 352 351 348 347 348 352 356 356
335 336 329 328 328 327 327 327 329 330 333 336 334 338 342 342 343 342 343 343 345 352 353 354 353 350 349 349 349 352 358 360 359 360 359 351 360 351 352 351 346 353 355 358
330 336 333 328 328 328 327 327 330 333 332 330 333 337 339 340 340 342 342 343 344 347 353 354 354 352 349 348 349 351 358 361 362 360 361 359 354 361 350 351 356 350 354 354
332 331 331 330 328 329 327 328 328 328 328 329 330 332 333 336 337 339 338 343 345 345 353 354 355 353 350 349 349 349 356 362 363 363 362 363 359 358 360 352 352 358 351 353
329 331 329 330 329 328 329 328 327 328 332 334 331 336 336 337 339 338 337 338 342 346 349 353 354 354 351 349 349 350 355 362 365 365 364 364 364 358 357 358 351 353 357 353
325 329 330 331 331 329 328 330 328 327 328 331 333 332 335 339 338 339 338 339 339 345 348 351 353 353 352 350 349 351 353 362 365 365 366 365 365 364 360 357 358 353 354 354
329 326 331 332 330 329 328 329 331 333 335 331 334 333 334 334 337 336 337 339 339 342 348 350 352 354 354 353 351 351 353 356 364 366 366 366 366 366 365 362 359 360 360 359
326 331 332 333 334 330 331 329 328 330 328 336 332 332 333 333 335 337 337 337 342 345 348 350 351 355 356 355 353 352 354 355 359 365 367 367 367 367 367 366 362 361 361 362
323 329 334 336 336 335 333 330 329 329 334 332 334 333 333 332 331 334 338 338 341 344 344 349 351 352 356 355 355 355 354 355 357 362 366 367 367 368 368 367 367 364 363 362
326 332 332 332 333 334 330 330 330 331 333 333 333 335 335 334 334 336 339 341 341 345 346 352 349 351 355 358 357 357 357 357 357 359 363 366 366 367 367 368 367 367 365 365
322 330 332 334 333 334 335 330 330 330 330 331 332 334 336 336 337 340 340 339 342 343 343 345 345 345 349 356 360 358 358 359 358 360 361 364 365 366 368 367 367 367 368 366
320 325 330 334 334 334 336 334 331 331 331 331 334 336 337 337 338 339 340 337 338 335 337 343 345 349 352 348 357 360 358 358 359 358 363 364 365 366 367 368 368 367 368 368
317 321 327 332 335 340 335 333 332 332 332 331 332 333 335 338 339 339 338 335 334 334 335 339 336 339 345 341 344 355 360 360 358 360 361 364 366 367 368 369 369 368 368 368
315 318 324 330 333 335 334 333 333 332 333 332 332 333 334 334 335 337 335 335 337 339 339 339 335 335 337 340 341 348 351 360 363 362 361 362 366 367 368 369 370 370 369 369
315 317 321 327 330 335 333 332 331 332 333 333 331 332 333 332 333 340 345 342 344 345 347 348 344 342 343 343 340 352 353 360 362 363 362 362 361 366 368 368 369 370 370 369
315 317 320 323 326 329 329 328 329 333 344 338 339 338 333 338 345 344 341 342 342 343 344 343 345 346 344 342 342 350 349 358 361 362 363 362 364 362 367 368 369 370 370 370
316 317 319 321 324 328 325 326 333 337 332 330 331 332 335 337 336 335 336 338 339 344 344 344 349 349 347 345 341 349 353 342 356 357 363 365 366 364 366 368 370 371 371 370
316 320 319 320 321 326 321 322 323 322 324 325 325 325 326 326 327 327 329 335 337 340 344 342 351 354 348 345 351 357 348 355 355 362 362 365 366 368 365 369 370 371 371 370
314 315 316 317 318 319 319 319 320 320 320 320 320 321 322 323 323 327 328 333 335 337 341 341 346 355 357 355 352 351 357 359 360 366 365 366 368 369 368 368 370 370 370 370
312 313 314 315 316 317 317 317 317 318 319 318 319 319 320 321 321 326 328 330 332 335 340 342 352 358 362 367 365 364 363 360 364 368 368 368 368 369 370 365 365 369 367 364
313 314 316 318 317 319 320 317 317 317 317 318 318 319 319 320 322 324 326 327 328 331 339 341 353 352 358 365 364 365 366 364 367 367 368 366 365 368 368 352 346 351 351 351

GFSCGP_925_thetae_051.txt.gz
Theta_e
326 327 327 326 327 330 335 339 339 338 339 341 343 351 351 351 347 350 354 349 350 348 350 351 350 351 347 346 348 346 349 350 349 349 349 351 348 350 348 345 347 348 350 352
331 332 330 329 329 330 334 336 338 338 337 338 342 349 352 351 351 351 354 350 347 348 347 348 349 348 348 350 346 349 348 351 350 350 349 351 352 349 348 344 345 352 352 351
332 333 332 330 329 331 332 334 335 337 335 333 337 350 349 346 349 347 350 346 345 348 348 347 346 347 348 349 348 346 348 349 351 350 350 349 353 350 348 345 343 350 351 350
334 332 333 333 331 330 333 333 335 337 336 334 336 343 352 349 352 349 348 347 348 347 347 347 346 347 348 350 350 347 348 348 352 351 353 352 351 350 350 346 344 343 347 346
328 335 334 333 333 331 333 331 333 335 336 334 335 340 347 353 354 351 349 347 345 347 347 348 347 348 348 350 352 350 348 351 354 352 353 352 351 350 347 349 344 344 345 347
326 331 333 333 333 333 332 331 329 331 334 335 333 337 340 351 354 352 345 345 346 348 348 346 347 347 347 350 352 353 351 353 353 354 352 350 352 350 349 346 346 345 346 348
329 329 332 333 333 331 330 329 328 329 332 333 329 331 331 339 343 348 348 347 349 350 348 347 347 346 347 349 351 355 354 354 357 354 352 355 351 350 347 347 346 344 349 352
329 333 331 333 330 329 330 326 324 326 328 329 326 330 331 333 336 341 344 349 350 350 349 347 347 346 346 347 351 354 356 355 355 358 355 351 356 351 349 348 346 346 352 352
328 329 333 332 331 326 326 325 323 323 327 326 325 326 327 328 331 336 338 340 350 350 350 349 346 346 346 347 350 353 357 356 356 356 357 354 351 358 355 348 350 355 349 354
323 324 329 332 333 328 324 324 323 323 325 327 327 326 328 327 328 330 332 338 342 349 350 350 348 347 346 346 349 351 356 357 357 356 358 358 354 350 359 357 349 348 355 351
321 323 323 327 333 333 324 325 323 322 322 325 329 329 328 328 329 330 331 335 339 349 351 351 349 348 347 346 348 350 354 358 359 359 358 359 359 356 352 360 357 348 347 353
319 323 324 324 326 330 326 325 324 325 323 323 323 327 332 331 330 331 332 332 337 344 350 351 350 349 348 347 347 348 352 357 359 360 360 359 361 362 359 354 358 357 346 346
319 324 327 324 324 324 328 326 325 323 324 325 325 326 331 329 331 331 333 331 333 339 350 350 351 350 348 347 347 348 349 356 359 361 362 363 362 363 363 359 355 356 355 347
319 321 324 329 325 326 329 328 325 324 326 325 327 328 330 330 332 333 332 332 334 339 346 350 351 350 349 348 347 347 349 352 360 361 363 364 364 364 364 364 361 356 356 356
315 319 325 329 329 330 331 328 327 325 325 327 325 333 334 332 335 339 335 335 339 339 345 347 350 351 350 349 348 348 349 351 354 362 363 364 364 365 365 365 365 364 359 360
312 318 322 333 331 330 333 330 328 327 326 326 327 327 332 335 336 336 335 338 343 342 344 345 345 350 351 351 350 349 349 350 352 354 363 364 365 365 366 366 366 366 366 361
312 315 320 333 333 333 336 333 328 328 328 327 328 328 334 337 338 336 336 334 334 339 337 337 338 346 351 352 353 353 351 352 353 355 355 362 365 366 366 366 367 366 367 366
311 313 319 330 332 339 333 334 334 328 329 328 326 335 334 335 337 334 332 332 334 334 335 332 332 337 342 355 355 354 355 356 354 355 358 358 362 365 365 366 367 367 367 367
311 314 319 328 333 334 335 332 332 333 336 337 338 335 335 336 342 344 340 338 341 342 343 343 343 344 342 341 346 358 356 358 359 357 360 360 362 364 365 365 366 366 366 366
312 315 319 324 334 339 332 326 326 331 342 331 340 342 335 341 348 345 341 343 342 342 342 343 346 345 345 347 341 354 359 358 358 360 362 362 363 365 365 366 366 367 367 366
315 316 319 321 327 332 321 321 332 340 340 327 328 330 333 334 335 332 335 336 340 342 341 341 345 350 351 346 344 344 348 357 360 359 358 359 362 365 366 366 367 367 368 368
318 320 319 319 326 332 321 322 326 332 326 325 323 324 325 323 324 326 327 334 335 337 340 339 341 344 346 352 349 348 347 342 342 359 362 361 360 362 366 367 367 368 368 369
317 314 315 317 321 320 319 320 320 320 322 321 321 320 322 322 322 327 328 328 330 331 337 339 342 341 352 359 361 354 349 358 355 353 362 362 361 361 362 367 368 368 368 368
312 312 312 314 315 315 316 318 317 317 318 318 318 318 318 320 320 324 326 325 324 326 332 338 337 339 350 355 367 368 362 357 355 357 356 367 365 365 365 362 368 369 370 369
311 313 311 313 314 314 315 314 316 316 316 318 317 317 317 319 320 322 323 323 323 322 323 331 334 339 347 352 357 363 362 363 367 363 358 369 368 367 368 364 367 368 368 369
310 310 311 312 310 310 310 311 313 313 314 315 317 319 319 319 319 321 321 321 322 321 322 323 333 335 340 348 353 360 358 354 363 370 362 371 369 368 366 355 348 356 360 361

GFSCGP_925_thetae_054.txt.gz
Theta_e
319 318 318 318 319 322 327 330 334 336 337 349 353 353 355 357 355 357 356 356 353 351 348 348 348 347 347 347 347 346 346 345 346 346 347 345 346 347 347 348 346 347 347 344
323 323 320 321 322 322 325 329 333 335 336 336 350 353 352 354 353 354 354 351 353 352 350 348 348 348 347 346 348 347 347 345 344 344 344 345 344 346 347 347 345 348 348 349
324 328 324 325 325 326 326 327 331 334 334 333 351 355 352 350 347 348 352 351 350 349 351 350 348 349 349 346 347 347 348 346 347 346 345 344 343 343 348 349 345 347 349 351
325 326 328 328 329 327 327 327 330 333 333 336 335 362 354 352 349 352 351 352 350 348 345 349 349 349 349 347 347 346 348 348 348 348 347 346 348 350 349 349 345 344 350 351
321 329 329 331 331 329 328 327 329 331 332 332 334 347 354 352 352 352 352 351 347 345 346 345 349 350 349 347 346 347 349 349 349 349 349 348 349 351 351 349 346 345 348 351
320 321 330 331 331 331 328 328 329 330 327 332 333 332 346 356 352 350 349 349 347 340 342 343 347 348 348 347 347 347 350 350 350 350 350 349 348 348 351 349 348 345 344 347
324 323 322 331 332 330 331 327 331 330 330 331 329 329 331 348 349 348 347 349 346 341 341 344 345 345 346 348 348 346 350 352 351 350 351 349 349 348 347 347 347 348 344 345
322 324 323 323 331 333 330 330 328 332 329 329 324 328 328 341 344 346 345 346 345 343 343 344 345 345 347 348 349 348 348 351 352 351 351 351 350 349 349 348 348 345 345 345
320 322 325 326 325 331 331 331 323 320 320 322 323 324 325 326 341 346 347 346 345 343 343 345 345 346 346 348 349 350 349 349 352 352 352 352 351 350 349 349 347 346 347 343
318 322 322 325 327 328 330 323 325 317 325 324 322 323 326 324 323 335 343 347 345 343 345 346 346 346 346 348 349 351 350 349 351 353 352 351 352 352 351 349 348 346 345 349
314 317 323 321 326 330 325 328 324 322 318 323 323 324 322 322 322 323 333 345 345 346 347 348 346 346 346 346 349 351 352 351 351 352 354 353 351 350 354 355 350 347 348 350
315 320 323 322 322 324 330 321 321 324 320 318 320 325 326 324 323 324 324 340 344 348 349 348 346 346 345 345 347 350 352 352 352 352 353 355 354 353 350 352 357 354 350 347
315 322 321 323 320 321 322 329 319 316 316 319 323 325 322 322 324 326 326 330 347 349 349 348 346 345 345 345 346 349 352 353 353 353 353 354 356 356 355 351 350 354 355 352
313 316 319 322 324 321 322 323 322 321 322 321 322 323 324 324 325 326 325 329 341 348 349 348 347 346 345 345 345 347 349 353 354 355 355 355 355 357 357 355 354 351 351 355
311 315 313 314 316 319 323 327 325 321 321 323 322 324 323 322 328 327 328 330 339 348 348 349 348 347 346 345 345 346 348 352 355 356 357 357 356 357 358 359 358 356 353 352
310 313 312 313 322 326 329 330 329 324 322 323 321 323 322 326 331 333 332 333 342 347 349 349 349 348 347 346 345 346 346 350 354 356 357 357 359 359 359 360 361 360 358 355
310 310 311 317 325 330 332 330 331 325 323 323 324 322 329 335 331 330 333 335 335 341 348 349 349 348 347 347 346 345 346 347 354 356 357 359 359 361 361 361 361 362 362 360
312 309 309 317 323 334 328 322 323 332 331 330 336 331 330 339 343 342 340 340 341 340 339 338 340 345 348 348 346 346 346 347 349 356 358 359 361 361 362 362 362 362 363 363
310 310 310 322 326 331 324 323 323 324 331 325 329 336 342 342 342 342 340 341 342 342 342 340 339 341 347 350 349 347 347 347 349 350 351 359 361 362 362 363 364 363 364 364
311 312 311 316 329 333 325 322 322 328 329 322 324 326 337 337 342 337 333 339 338 338 340 345 347 348 347 343 351 351 350 349 349 350 352 352 356 361 363 363 363 364 364 364
314 314 317 318 328 331 319 321 325 332 329 320 320 321 324 328 327 326 328 328 334 336 338 341 345 348 353 353 344 350 354 354 355 353 352 355 355 356 360 362 363 363 364 364
318 320 318 319 328 329 316 320 320 317 318 319 317 317 318 319 325 323 322 323 324 333 333 335 339 348 351 363 357 350 347 347 352 357 357 358 359 358 359 361 362 363 363 364
315 314 316 316 320 317 317 319 318 315 315 315 316 315 315 317 321 322 321 320 320 320 323 331 333 342 346 352 361 362 363 362 359 356 360 359 360 362 362 363 362 363 364 364
311 310 311 309 315 312 312 315 313 311 313 312 312 315 315 315 318 320 319 318 319 319 319 322 330 333 336 340 351 354 360 356 358 362 356 355 362 361 362 364 364 364 365 365
310 309 310 309 309 310 311 312 311 310 311 311 311 312 315 315 318 318 317 317 318 319 318 319 323 332 332 333 338 348 359 356 353 352 358 365 358 361 363 362 364 365 366 366
309 310 311 312 309 310 310 310 310 310 311 311 311 311 313 314 317 316 316 317 317 318 317 317 320 327 332 333 335 340 347 355 355 353 353 361 364 366 364 359 353 358 364 366

GFSCGP_925_thetae_057.txt.gz
Theta_e
315 314 315 316 317 319 322 328 332 333 341 350 351 354 361 357 355 355 353 351 349 350 348 348 347 347 347 347 347 345 344 344 345 347 349 349 348 348 347 347 350 349 349 349
317 317 316 316 316 318 320 321 325 329 334 347 349 351 358 359 357 355 354 353 352 349 348 347 347 346 346 346 347 346 345 344 344 346 349 348 345 346 347 347 347 348 347 347
321 321 318 318 317 320 319 321 322 328 332 339 343 353 358 357 357 355 354 353 351 350 349 347 347 347 346 345 346 346 346 344 344 347 348 347 346 345 346 347 348 345 348 348
321 322 322 320 320 320 320 322 323 326 330 334 345 358 356 355 358 352 355 355 354 351 349 347 347 347 347 345 346 347 346 344 345 346 347 347 346 345 345 346 346 346 346 348
321 322 323 323 322 322 323 324 325 326 328 330 337 354 351 351 356 354 349 352 352 351 351 349 347 347 347 346 346 347 346 345 345 346 346 345 346 344 344 344 345 347 345 347
316 318 322 323 325 325 326 326 325 326 325 331 330 334 332 352 352 350 349 347 348 349 349 348 348 347 347 347 346 346 346 346 346 345 345 346 346 345 344 343 344 348 345 344
321 320 320 323 325 327 328 323 327 328 328 332 327 331 333 346 348 348 348 346 345 347 347 346 348 348 348 347 346 346 346 347 347 347 347 347 346 346 344 343 345 347 347 345
320 323 321 320 324 328 328 324 326 330 330 330 325 329 329 335 345 346 345 345 344 346 345 342 344 348 348 348 347 346 346 348 348 347 348 348 347 347 346 345 346 347 346 345
320 322 317 318 322 326 330 330 325 324 317 326 329 323 324 329 339 344 346 344 344 345 344 338 342 345 348 348 347 346 347 348 348 348 348 349 348 348 347 346 346 347 346 346
316 319 317 319 321 322 329 324 329 322 327 324 321 322 329 326 332 339 343 345 344 344 344 341 339 343 346 347 347 346 346 348 349 349 349 349 349 348 348 347 347 345 346 346
314 317 319 319 321 323 323 329 326 327 323 332 322 323 319 323 326 336 340 343 343 343 344 342 341 343 344 346 347 347 346 347 348 349 349 349 349 348 349 349 348 347 347 346
315 318 322 321 321 320 320 324 321 332 327 317 321 328 322 320 321 324 337 341 342 342 342 341 341 343 345 346 347 348 347 346 347 349 350 349 349 349 350 349 349 348 346 347
314 319 318 322 318 319 319 324 326 323 317 320 329 328 320 319 322 319 321 326 339 343 342 341 341 343 344 345 347 348 348 348 347 348 350 350 350 349 350 351 351 350 349 348
313 316 316 320 319 316 317 317 319 322 327 321 323 324 321 321 321 320 321 322 328 342 342 342 343 344 345 345 346 347 349 349 349 348 349 351 352 351 350 349 349 350 351 351
311 315 313 313 313 314 315 316 317 320 321 325 323 319 320 319 320 321 327 324 324 338 342 344 345 345 344 345 344 346 348 350 350 350 350 350 351 352 352 352 351 350 349 349
310 314 314 313 312 313 315 317 319 322 322 319 319 320 318 320 330 333 329 325 329 340 344 346 346 345 344 344 344 344 347 349 351 351 351 351 351 352 353 353 353 353 351 350
311 314 312 312 316 321 327 324 324 326 325 325 321 324 322 341 344 342 341 332 332 343 345 347 346 345 344 344 344 344 346 348 351 352 352 352 353 352 353 354 355 355 355 353
311 313 311 310 315 334 323 321 322 323 321 321 324 327 341 343 340 337 339 341 343 340 344 346 346 345 345 344 344 344 345 346 350 352 353 354 355 355 354 355 356 357 357 356
310 313 310 314 323 326 325 321 321 323 321 318 323 333 342 341 340 337 332 338 340 343 344 338 343 345 345 345 345 344 344 345 349 351 353 354 355 356 357 357 357 358 358 359
310 311 315 316 331 337 324 319 319 322 323 319 318 322 329 336 341 333 325 333 334 339 343 349 346 342 344 345 345 344 344 345 346 351 353 354 356 357 357 358 359 359 359 360
316 315 318 319 326 327 319 317 319 325 323 315 315 315 321 325 324 321 320 320 325 331 335 348 352 357 351 344 345 344 344 345 346 347 349 354 356 357 358 359 359 360 361 361
317 318 321 323 327 330 315 320 319 315 314 313 312 312 315 318 320 319 318 318 319 321 328 334 340 345 353 355 348 349 349 348 348 348 348 349 350 355 358 359 360 361 361 362
316 313 317 313 320 316 314 319 313 311 311 311 311 311 311 314 318 317 317 317 317 317 320 328 330 332 338 352 358 356 357 357 355 355 353 351 351 352 353 356 359 360 361 360
311 310 312 311 314 310 310 311 312 312 312 312 311 311 310 312 316 315 316 315 315 315 316 320 329 329 331 336 349 356 355 352 351 353 359 358 358 358 357 356 357 358 360 360
310 309 310 311 310 312 312 313 313 312 313 313 312 312 312 311 313 314 315 315 315 315 317 322 322 329 329 329 335 344 347 350 352 351 350 351 360 360 359 360 361 360 360 361
310 312 312 314 312 311 311 311 312 313 313 312 313 313 312 311 314 313 313 314 315 314 319 320 322 327 329 329 329 326 332 342 351 351 351 354 357 360 363 360 357 358 361 362

GFSCGP_925_thetae_063.txt.gz
Theta_e
319 317 320 318 320 320 323 326 324 331 331 341 346 347 356 354 354 353 352 351 349 348 346 346 347 348 348 347 347 347 346 345 343 345 345 346 347 348 347 346 346 346 346 348
317 318 317 317 317 318 320 325 327 328 332 344 344 347 348 356 355 354 352 351 349 348 348 347 347 348 348 349 348 347 346 346 340 344 346 348 349 350 351 346 346 346 347 347
322 320 318 317 317 318 319 320 323 327 328 337 343 345 352 357 355 352 351 350 346 348 349 349 347 347 348 349 349 348 346 346 344 342 347 347 347 347 349 347 346 345 347 347
324 323 319 319 318 318 319 319 320 323 327 334 340 347 350 355 360 357 353 350 349 347 347 348 347 347 347 348 349 348 348 347 346 342 346 347 348 348 349 350 348 345 346 346
325 324 322 320 319 318 318 317 318 320 324 328 331 343 342 350 360 360 357 354 350 348 347 348 347 347 347 348 348 348 348 347 346 345 343 348 349 349 349 349 347 346 345 345
319 317 323 324 321 318 318 321 319 319 319 322 329 335 342 349 354 357 357 356 354 351 348 348 347 347 347 348 348 348 348 347 346 346 345 345 348 350 349 349 348 349 349 348
320 320 319 320 323 321 319 319 322 325 324 321 322 330 333 337 347 348 354 356 355 353 351 349 349 348 348 347 348 348 349 347 346 347 347 345 346 348 349 349 348 347 348 349
320 319 321 318 321 323 323 323 323 326 325 322 322 329 332 331 331 344 348 351 354 354 353 352 351 349 349 349 348 348 349 349 347 346 347 346 345 348 348 348 347 348 346 347
321 321 316 318 319 321 324 325 323 324 326 328 323 325 327 331 332 333 338 347 352 354 354 353 351 350 349 349 350 348 349 348 348 347 347 347 347 347 348 347 346 347 346 346
314 307 311 317 317 320 323 324 326 326 327 328 328 327 326 329 332 334 335 339 345 350 352 353 353 351 350 349 349 349 348 349 348 347 347 348 347 346 346 347 346 345 346 345
312 311 307 310 317 323 323 324 327 327 328 328 327 329 329 329 333 333 334 336 342 344 348 350 352 352 351 349 349 349 349 349 349 348 347 348 348 348 348 348 348 346 343 345
313 313 310 308 309 315 317 322 325 330 332 332 330 329 327 331 330 333 334 335 338 343 344 347 348 350 351 351 350 349 349 349 349 349 348 348 348 349 349 349 349 348 345 344
314 314 311 309 314 317 317 319 320 321 324 332 334 330 330 331 330 329 331 332 337 343 345 346 346 351 351 352 351 350 350 349 349 349 349 349 349 349 349 349 349 349 347 344
314 314 310 306 310 310 315 316 317 318 326 327 331 333 332 331 331 332 331 329 328 340 344 347 347 348 349 350 352 351 350 349 348 349 349 350 350 350 349 349 349 350 348 346
312 312 311 310 308 308 311 312 314 317 320 325 327 330 331 333 333 335 334 330 333 331 344 348 347 350 348 349 351 351 351 349 349 349 349 350 350 350 350 350 350 350 350 348
311 311 311 310 307 310 311 313 314 316 317 319 322 326 326 329 340 335 340 342 342 343 337 343 348 350 350 346 349 352 351 350 349 350 350 350 351 351 351 350 351 350 350 349
311 311 310 307 309 315 316 314 316 317 321 321 326 326 331 333 342 337 336 335 338 342 346 343 341 350 350 346 347 350 351 350 349 350 351 351 352 352 351 351 351 352 352 352
310 310 310 310 309 313 314 320 318 319 322 321 324 327 329 339 339 335 331 331 334 337 341 347 347 338 346 345 346 349 349 350 350 350 350 351 352 352 352 352 351 351 352 352
309 311 311 310 312 315 324 322 321 324 322 319 320 323 325 335 342 341 327 326 330 334 340 346 350 335 342 344 347 349 350 351 351 351 351 351 352 352 353 353 353 352 352 352
310 311 312 310 316 326 325 319 318 321 328 317 318 321 323 337 345 336 323 323 329 334 340 351 347 340 343 346 347 351 351 352 352 352 352 351 351 352 353 354 354 354 354 354
311 312 312 311 312 314 316 314 317 330 325 317 317 319 322 326 325 321 321 326 331 336 343 351 346 346 348 347 348 351 352 353 352 352 352 352 352 353 353 353 354 355 355 355
311 312 312 311 312 317 310 315 323 318 316 316 317 317 318 319 319 319 320 323 326 331 336 346 352 348 347 348 349 351 352 351 352 353 353 354 354 353 354 355 355 355 356 357
316 313 316 316 317 312 310 314 316 317 317 316 317 317 317 317 318 320 320 321 320 321 322 328 337 338 343 352 349 349 351 350 352 353 354 355 355 355 355 357 357 358 358 357
310 309 312 313 313 312 311 314 314 315 317 315 315 316 316 315 317 320 321 321 321 319 319 319 321 325 328 331 337 344 354 353 350 352 353 355 356 356 356 357 357 357 358 359
312 311 312 312 312 313 312 313 315 314 315 315 315 316 316 316 315 318 320 322 322 322 320 319 319 319 321 323 325 328 337 354 355 353 352 352 353 355 357 357 357 358 358 359
312 311 312 314 312 315 314 315 315 316 316 315 315 316 316 316 316 316 319 318 319 321 320 319 318 318 319 319 319 323 325 331 346 352 357 357 358 357 355 355 354 355 357 358

GFSCGP_925_thetae_066.txt.gz
Theta_e
321 323 323 322 323 323 323 324 324 328 329 344 350 352 356 356 355 357 357 356 353 353 349 347 346 345 344 343 345 346 345 345 345 344 343 345 348 349 350 350 352 354 355 354
323 322 322 322 322 323 323 324 326 326 330 334 349 352 350 355 355 355 357 357 354 351 352 349 348 346 345 344 345 346 346 347 347 343 343 344 348 349 351 351 352 354 354 355
324 323 321 320 321 321 322 323 324 326 329 333 342 351 351 349 355 353 354 355 354 352 351 352 349 348 347 346 345 347 347 347 347 342 344 349 350 352 353 352 352 353 354 354
324 323 323 321 320 321 322 321 322 322 328 334 336 350 350 350 354 354 354 355 355 353 350 351 350 349 348 348 347 347 348 348 348 345 345 350 350 349 348 349 348 350 353 353
326 323 324 325 324 322 322 322 322 322 323 325 334 339 345 349 352 356 354 354 354 353 351 350 351 349 348 348 349 349 350 349 347 348 343 349 349 345 346 348 350 351 354 354
323 325 324 325 325 322 322 323 322 322 322 323 327 336 342 345 350 354 354 353 352 353 352 351 348 349 349 348 349 349 351 352 350 350 349 346 348 347 348 349 350 349 350 351
318 321 323 324 326 326 323 324 327 325 324 323 322 326 334 341 343 347 351 352 353 352 352 351 351 349 349 349 349 349 352 354 352 350 351 348 348 350 352 352 349 348 348 348
319 320 320 323 325 327 326 324 328 331 326 324 323 322 325 333 336 342 345 349 352 353 352 352 352 350 349 350 349 350 353 354 353 352 352 352 349 348 350 352 350 349 347 347
318 317 321 321 324 325 327 326 325 326 327 329 326 324 324 327 333 336 341 345 348 352 353 353 352 351 350 350 351 352 354 356 354 352 354 353 351 349 348 349 351 350 350 348
314 314 316 320 321 323 326 326 327 327 331 332 329 329 326 327 331 334 336 338 345 349 352 353 353 351 351 351 350 351 353 356 355 352 353 352 352 352 351 352 353 353 350 351
312 311 312 313 319 322 325 327 328 327 328 331 331 330 328 329 328 333 334 336 339 345 350 352 353 352 351 351 351 351 352 354 354 353 353 353 352 352 353 352 353 354 354 352
312 312 313 312 316 317 316 325 327 330 332 329 331 330 329 329 329 329 331 335 336 339 343 347 350 352 352 352 352 352 351 352 353 353 354 354 354 353 352 353 353 354 355 354
314 311 313 312 311 313 315 320 325 326 329 333 334 332 331 331 332 333 331 331 335 338 340 342 347 349 352 352 353 352 352 351 352 353 353 353 354 353 353 353 354 354 355 355
311 311 313 312 312 312 315 316 322 324 329 330 332 333 333 331 331 332 334 334 334 334 338 343 345 347 350 353 355 355 352 351 351 353 353 354 354 354 353 353 354 355 355 356
312 314 313 312 310 310 309 310 312 317 322 328 328 331 333 334 333 334 335 336 335 334 338 342 346 347 350 352 357 356 353 353 352 354 354 355 356 355 355 355 355 355 355 356
313 314 311 312 310 310 309 309 311 311 316 322 325 328 329 331 332 336 337 338 340 341 341 340 346 348 349 350 354 357 355 354 354 355 355 356 357 357 356 356 356 356 356 356
314 313 312 312 310 309 310 312 311 312 314 320 325 325 327 330 332 337 341 340 341 341 342 345 344 346 348 349 352 356 357 355 355 357 356 357 358 358 358 357 357 357 357 356
313 314 312 312 310 310 309 312 313 313 313 319 322 324 326 328 331 339 340 341 342 342 343 344 345 346 342 347 348 351 354 356 357 358 357 357 358 359 359 358 358 358 357 357
310 314 312 312 310 309 308 318 323 326 324 317 324 326 327 329 335 339 337 336 338 341 343 344 345 345 347 342 346 349 352 355 356 358 358 358 358 359 359 359 359 358 358 358
310 312 314 313 312 312 315 313 312 316 328 324 324 327 328 330 339 339 334 336 340 343 345 347 348 349 351 348 344 348 352 356 358 357 358 358 358 359 359 359 359 358 358 358
315 314 314 315 314 311 311 313 310 326 327 323 324 326 329 336 334 332 329 331 333 339 345 351 355 354 350 344 344 352 353 357 357 355 355 356 357 359 359 360 359 359 358 357
313 314 314 314 313 316 314 311 318 320 320 320 322 324 325 327 327 324 324 323 325 331 342 347 355 349 346 346 349 356 357 355 356 355 355 356 357 357 358 360 360 360 360 360
314 312 314 314 314 314 312 311 312 316 319 318 319 320 321 321 322 322 321 321 321 324 331 340 347 351 354 352 352 354 357 356 356 356 357 358 358 358 357 359 360 360 360 360
306 306 310 311 313 311 309 310 311 313 316 317 317 317 318 319 320 322 321 321 322 322 321 322 330 335 338 343 349 353 356 356 357 358 358 359 360 359 358 359 360 359 359 359
310 310 310 311 311 313 312 312 314 316 316 317 317 317 318 318 317 319 320 321 322 323 322 321 321 322 324 328 333 339 353 355 356 358 359 359 360 359 360 359 359 359 359 359
311 309 311 313 311 312 314 314 315 316 317 316 317 318 316 316 317 317 319 319 319 323 322 323 323 323 323 324 326 328 332 343 357 355 356 357 356 358 358 359 359 357 356 358

GFSCGP_925_thetae_069.txt.gz
Theta_e
327 329 327 329 329 326 326 326 325 329 333 337 339 350 361 356 355 358 358 357 353 354 350 348 346 346 344 343 342 343 344 346 346 347 348 347 347 347 350 348 352 354 354 352
327 326 327 326 326 326 325 326 326 326 330 332 340 346 354 355 355 356 357 358 355 354 352 349 347 346 345 343 343 345 345 348 347 346 345 346 346 347 348 348 351 353 353 354
329 327 325 325 325 325 325 326 326 327 328 332 333 346 350 355 355 354 356 357 355 353 354 351 349 347 346 344 344 347 348 348 348 344 344 345 348 349 349 350 352 353 353 354
325 325 325 326 325 325 326 325 326 325 327 331 333 339 350 352 357 354 355 356 356 355 352 352 351 349 348 346 345 347 349 349 349 346 343 346 348 348 348 349 348 350 353 353
326 324 324 326 325 324 325 325 325 324 325 328 333 336 342 351 355 356 354 354 355 355 352 352 352 350 349 347 346 346 350 351 349 348 344 347 349 346 347 347 350 350 352 353
323 325 325 324 325 325 325 324 325 325 325 326 326 332 337 346 353 352 353 352 354 355 354 351 350 351 350 349 348 346 351 353 351 350 345 349 348 348 345 347 350 350 351 353
318 320 323 326 325 326 325 327 328 329 327 326 325 325 333 337 342 348 351 352 352 353 355 353 352 351 351 350 350 349 351 355 353 353 349 350 352 349 351 350 349 348 347 347
318 320 319 322 325 326 327 327 330 333 330 328 326 326 326 331 336 340 346 350 351 352 354 354 353 351 352 352 352 352 354 357 356 354 352 349 350 347 349 351 348 347 345 346
318 318 322 322 322 325 327 328 327 328 331 330 328 327 327 327 330 336 342 348 351 352 351 354 353 351 351 352 354 354 356 358 358 355 354 356 352 346 346 348 350 351 348 347
317 320 321 321 323 325 325 327 329 328 332 334 332 331 328 327 327 332 340 345 347 351 352 352 352 352 351 351 352 354 355 359 360 357 356 356 356 353 347 350 355 351 351 349
314 316 318 318 322 323 324 327 329 329 328 331 333 331 331 330 328 329 334 341 344 347 350 351 351 351 352 351 351 353 355 358 359 358 358 356 355 355 351 352 354 354 354 354
315 314 317 316 316 318 319 323 326 332 332 329 331 332 332 331 330 329 331 333 336 340 346 349 350 351 351 352 352 352 353 354 358 358 358 357 357 355 354 349 353 355 357 357
316 316 316 317 316 316 320 322 323 324 328 333 331 331 333 332 332 332 331 332 335 337 341 346 348 353 353 352 354 353 353 353 355 358 358 358 359 357 355 356 354 355 356 358
314 317 317 317 317 316 316 317 322 325 328 328 330 331 331 333 333 333 334 334 332 336 338 342 346 349 353 354 356 356 354 353 353 355 355 357 359 358 357 357 357 356 357 359
315 315 315 315 316 315 315 317 319 323 327 330 330 332 333 333 333 333 334 336 336 336 337 339 341 343 351 357 358 358 355 355 353 355 355 357 359 359 359 357 357 357 358 359
314 317 316 317 316 314 314 313 313 315 319 322 324 328 330 330 332 335 336 338 339 341 339 339 340 342 346 348 359 360 357 357 356 356 357 357 359 360 361 358 358 359 359 359
316 317 317 318 314 314 315 314 313 314 315 317 319 323 327 329 330 333 335 342 342 341 341 343 344 345 346 346 353 358 359 358 358 359 358 359 361 362 361 359 359 360 361 361
316 317 318 320 315 318 314 313 313 315 317 315 317 318 322 325 327 330 332 340 342 342 343 344 344 343 343 346 348 353 357 359 360 359 362 360 362 363 363 362 361 362 362 361
312 316 319 318 315 313 313 313 319 321 321 322 321 318 318 323 326 328 329 331 340 341 343 345 345 344 344 344 344 351 355 360 360 362 362 362 362 364 365 365 364 363 363 363
312 312 319 316 316 315 313 318 316 318 318 320 320 320 318 322 326 329 331 339 340 342 344 346 348 349 349 347 347 348 356 361 362 363 362 363 363 364 366 365 365 364 364 363
317 316 318 317 317 314 313 315 313 319 318 321 325 325 322 326 329 332 334 335 335 338 343 347 351 356 355 351 349 351 353 357 362 360 361 363 363 364 365 366 365 365 364 361
316 318 318 316 317 317 315 315 315 317 316 315 324 326 329 329 330 330 329 331 333 336 343 348 354 359 360 354 356 357 358 356 361 360 361 363 364 363 363 365 366 366 365 365
316 316 318 314 315 316 315 315 315 315 314 313 317 322 323 324 325 325 327 328 329 329 332 340 345 347 347 356 352 353 361 358 362 362 362 363 364 364 362 365 366 365 366 361
310 308 312 313 312 311 312 311 312 313 313 313 317 318 320 322 321 322 322 324 325 327 327 328 333 335 334 336 343 356 358 359 361 362 363 363 364 364 363 363 364 362 361 362
309 309 309 311 309 309 310 311 312 311 311 313 317 318 319 319 318 319 320 321 323 323 324 326 327 328 328 331 333 337 340 356 361 362 362 363 362 362 362 361 361 361 360 360
311 309 310 312 309 307 309 309 312 316 317 317 317 317 316 317 318 319 320 320 322 323 324 324 325 326 325 326 327 328 331 341 359 361 361 361 361 362 361 361 359 359 358 358

GFSCGP_925_thetae_072.txt.gz
Theta_e
332 332 332 331 329 330 327 327 326 326 330 334 341 350 352 348 346 353 355 353 353 353 350 349 348 348 345 342 345 347 345 348 347 351 351 349 350 348 352 350 351 355 354 353
328 332 331 328 328 329 330 329 327 328 327 331 335 342 352 350 351 349 349 355 353 353 353 351 349 348 346 344 345 345 346 349 347 352 350 349 350 346 349 352 355 352 352 353
330 327 327 328 328 328 329 328 327 327 328 328 332 338 357 352 352 355 351 355 351 355 353 353 350 349 347 346 346 345 348 352 348 348 347 348 348 346 350 351 351 351 353 353
329 329 328 326 326 327 327 327 326 327 327 327 329 332 354 363 361 358 357 355 352 353 353 352 350 350 348 347 347 347 348 353 347 346 346 348 349 351 348 351 353 351 354 353
326 324 326 327 327 327 327 327 327 326 327 327 327 330 331 349 355 354 352 355 353 350 353 352 351 349 349 348 348 350 349 353 349 345 349 346 348 350 352 348 351 354 352 354
322 323 325 325 325 326 326 326 326 327 327 328 326 328 333 341 360 350 348 354 353 352 351 353 351 350 350 349 348 351 351 352 351 344 349 347 347 350 349 347 353 356 352 352
317 319 322 326 327 325 326 326 326 329 329 328 326 326 331 333 352 354 348 349 353 355 354 353 353 353 351 350 349 349 353 353 353 351 347 353 346 347 351 348 353 351 354 352
319 321 318 320 325 327 325 327 329 331 329 328 327 329 329 329 330 351 346 349 346 352 355 354 354 353 353 352 350 349 354 354 354 355 347 349 352 346 349 354 348 352 348 351
319 318 320 322 320 324 327 328 327 328 329 330 329 329 329 329 329 331 348 346 349 350 357 355 354 353 355 353 352 351 353 356 355 354 354 347 353 354 351 352 350 348 349 349
318 319 319 320 322 322 323 324 327 329 332 334 330 334 332 332 331 330 333 346 351 352 353 356 354 354 355 354 354 354 354 356 357 354 356 353 351 352 349 348 352 351 350 346
316 317 317 318 321 321 323 326 326 327 330 332 333 332 334 336 332 331 330 335 350 349 352 354 355 354 354 355 355 355 356 357 358 358 356 355 353 350 347 350 345 353 351 356
317 318 318 317 318 320 322 324 324 332 333 333 332 332 333 336 332 330 330 332 340 347 350 347 346 355 355 355 355 356 356 359 360 360 359 356 357 354 352 346 350 356 351 350
317 318 319 318 317 318 317 318 321 322 326 335 332 331 332 334 333 331 331 332 336 346 348 341 340 343 355 355 355 356 356 356 361 362 361 359 357 358 356 350 352 354 356 358
315 316 319 320 319 319 319 317 319 320 325 326 332 331 331 334 337 336 334 334 334 342 345 348 347 353 353 355 355 355 356 356 357 361 361 361 360 358 357 357 350 356 355 356
315 316 315 316 318 318 318 318 317 319 323 326 325 331 332 334 335 339 338 336 340 341 340 342 345 353 356 357 357 356 357 355 357 358 361 361 361 360 359 358 357 350 357 359
317 318 317 317 317 317 318 317 316 317 319 323 325 327 329 331 333 335 337 339 345 347 347 348 350 349 355 356 358 357 358 357 356 357 360 360 361 361 361 359 358 357 354 358
317 320 320 320 316 317 318 318 316 316 318 319 322 324 326 324 329 333 335 332 337 344 345 347 347 348 351 354 354 359 359 358 357 358 359 359 360 361 361 360 359 361 359 359
317 319 318 321 318 323 319 317 317 316 316 316 316 316 318 320 322 326 331 329 333 340 342 343 344 346 345 344 352 360 360 359 360 359 360 359 360 361 362 361 361 360 361 360
311 317 319 318 319 317 316 315 318 320 317 316 316 319 321 320 318 322 324 329 331 335 339 341 341 342 347 348 347 348 362 361 359 362 360 360 360 361 363 363 363 361 362 362
313 313 321 316 317 317 315 317 317 316 318 316 324 325 327 329 330 322 329 336 338 340 340 342 343 343 346 348 349 348 355 364 361 360 362 363 361 362 364 364 363 362 362 362
319 319 321 320 317 314 314 314 315 317 317 322 323 324 326 330 330 333 334 334 334 335 336 339 343 348 351 358 358 357 351 360 363 361 362 361 365 363 365 365 365 364 364 363
318 319 318 319 319 318 316 316 317 319 318 318 317 320 321 322 326 329 331 332 333 334 333 338 346 349 348 346 348 362 354 353 360 364 361 365 364 365 366 366 367 366 366 366
318 315 315 318 319 317 315 314 314 314 314 316 316 316 318 318 324 325 328 329 329 331 332 331 335 339 337 338 344 352 359 358 360 366 363 365 365 366 365 366 367 368 367 367
313 310 312 312 312 312 311 312 311 311 313 313 314 314 315 318 321 322 324 325 327 327 328 329 331 333 333 332 334 337 340 350 362 366 364 366 367 366 365 366 367 368 367 367
309 310 311 311 311 308 309 307 307 307 309 311 313 313 313 318 320 321 322 323 324 325 325 326 327 327 327 327 329 332 334 346 367 366 365 366 366 366 366 364 366 367 366 366
310 309 310 311 307 307 306 306 306 310 313 317 315 313 316 317 318 319 322 322 323 324 324 324 324 325 325 325 326 328 331 335 347 366 366 365 365 365 366 364 365 366 366 364

GFSCGP_925_thetae_075.txt.gz
Theta_e
331 330 330 328 327 327 328 329 326 324 324 326 336 362 363 358 355 358 352 348 353 351 349 348 345 343 342 347 345 346 345 350 348 350 343 348 351 349 350 353 354 352 354 352
330 332 330 329 329 329 327 328 328 327 326 321 328 356 356 348 348 348 349 351 352 351 349 348 346 343 344 345 346 344 347 349 351 349 344 348 351 348 349 350 350 354 352 352
328 328 330 330 330 328 326 326 327 327 327 324 324 354 352 349 348 349 354 353 349 351 350 348 347 344 344 344 346 345 347 347 351 350 347 347 350 345 353 351 354 351 353 353
326 328 329 327 328 327 324 325 327 327 325 323 324 325 355 350 351 352 354 353 350 343 348 349 347 345 343 345 344 347 346 347 348 350 348 349 351 347 349 352 354 353 351 352
324 325 327 328 327 325 324 325 325 325 323 322 324 323 328 352 355 351 353 347 346 343 348 348 347 347 344 345 344 346 348 348 345 350 345 347 348 349 350 353 351 347 352 352
318 320 321 322 324 325 326 325 324 322 322 323 322 324 325 359 354 353 353 345 350 346 346 349 347 348 346 346 345 344 350 350 346 345 347 345 346 348 351 349 353 352 352 352
316 317 318 319 320 324 323 322 323 323 323 325 322 323 323 327 353 356 354 344 342 343 347 350 347 347 347 347 347 345 349 352 348 344 348 346 345 346 351 351 352 353 351 352
315 316 315 317 318 324 325 320 323 326 325 324 323 324 324 324 342 349 349 343 343 349 348 350 348 347 348 347 348 348 348 351 351 346 344 348 345 344 347 354 354 354 353 351
318 318 317 318 318 318 321 323 321 322 323 325 325 325 325 325 325 347 345 344 345 349 351 351 349 348 348 348 347 350 349 349 352 349 345 347 348 343 345 347 354 349 350 352
315 316 316 317 316 317 318 322 322 321 325 327 326 326 327 328 325 333 347 345 349 350 350 351 347 349 348 349 348 348 351 350 352 352 348 345 350 345 342 344 351 352 351 350
315 315 315 316 316 315 316 319 320 319 322 325 326 326 325 328 330 329 331 343 347 347 346 347 346 349 350 349 349 348 353 352 353 352 352 346 346 352 349 348 348 351 349 350
315 314 316 316 317 316 315 315 318 321 323 325 327 329 328 327 333 334 326 345 347 342 342 342 347 348 349 351 351 350 352 354 353 352 354 353 346 348 351 352 346 350 350 350
314 315 316 316 315 316 317 317 316 317 317 320 328 329 329 330 330 331 334 335 347 346 346 344 344 345 344 349 352 352 352 354 355 355 353 355 353 346 350 349 348 345 347 348
313 313 314 317 317 315 316 317 317 314 313 317 321 324 328 329 329 329 333 334 338 351 349 347 346 347 347 344 353 353 353 355 355 356 355 354 355 354 347 347 346 349 344 346
314 315 314 314 314 314 314 317 317 317 315 318 318 322 329 327 326 328 333 333 332 346 344 341 341 342 345 347 345 349 354 354 357 357 358 357 355 355 356 352 351 344 352 349
315 317 317 317 316 316 314 316 317 317 317 315 316 318 325 322 322 324 329 334 331 330 343 344 343 336 345 347 349 345 347 355 356 360 360 359 359 357 356 357 356 353 348 355
316 317 316 317 316 316 317 315 316 316 317 315 315 316 318 318 320 321 320 331 328 328 329 341 341 345 349 344 342 341 340 349 356 356 360 360 360 360 358 357 357 357 353 352
312 316 317 317 317 319 315 314 316 317 317 317 315 317 324 327 328 325 323 319 321 337 338 340 339 342 347 345 347 348 351 353 355 356 358 360 360 360 360 359 358 358 357 353
310 315 314 316 316 315 313 315 317 316 317 322 325 325 326 327 328 328 326 329 326 331 332 335 339 341 344 351 348 347 347 349 354 357 357 360 361 360 360 360 359 358 358 358
314 313 317 318 318 316 317 315 315 314 316 320 319 323 323 326 331 328 325 331 322 321 322 335 339 347 346 344 347 354 347 344 351 358 359 359 360 360 361 360 360 359 358 359
316 317 318 319 318 316 316 316 314 316 318 316 316 316 317 321 321 321 323 327 330 333 333 332 334 341 338 337 339 346 350 351 351 359 359 360 360 360 360 361 360 360 360 359
316 316 319 318 317 316 314 316 317 314 311 312 313 313 315 316 317 320 321 322 328 330 331 331 332 334 335 332 333 335 338 339 345 362 361 361 361 360 361 361 362 361 361 361
315 313 313 313 316 311 309 309 309 308 309 310 310 311 313 314 315 318 320 321 324 326 328 328 329 329 329 328 328 331 333 334 339 348 362 362 363 361 362 362 363 362 362 361
312 309 310 311 311 310 307 306 305 305 306 307 308 308 310 312 314 317 318 320 323 324 325 327 327 326 326 325 326 327 329 332 337 343 362 360 363 365 362 364 364 364 364 363
309 309 311 311 309 307 308 306 305 306 305 306 307 307 310 311 313 316 318 321 323 324 324 324 324 323 324 324 324 324 326 329 333 337 364 363 363 365 365 365 365 365 365 365
309 309 309 308 309 307 307 307 305 306 305 305 306 311 313 312 314 317 318 321 321 320 321 321 320 319 319 319 320 322 324 327 331 334 354 363 366 366 365 364 365 365 365 365

GFSCGP_925_thetae_078.txt.gz
Theta_e
325 327 329 330 327 326 326 327 326 327 326 322 337 362 356 351 354 355 353 351 349 350 347 343 342 345 347 347 348 349 349 347 348 348 348 349 349 349 352 351 353 351 351 350
329 330 328 327 328 327 327 327 325 324 326 324 355 364 358 352 347 352 346 352 350 349 348 345 342 342 347 346 345 345 347 344 347 345 345 349 350 349 349 350 353 351 351 351
329 328 330 330 328 329 327 325 325 325 326 324 357 364 363 356 350 347 348 349 349 349 349 346 342 341 347 346 346 345 345 343 343 344 343 348 350 349 351 353 353 353 352 351
327 329 328 328 328 327 327 325 325 326 323 322 322 332 360 358 355 354 350 351 350 351 348 346 343 341 346 346 345 346 345 347 346 343 345 347 349 347 350 350 349 353 353 352
316 323 327 328 327 325 326 325 323 324 321 320 321 320 326 351 351 350 351 355 350 350 349 348 344 342 343 345 345 346 346 347 347 345 346 345 348 349 345 351 351 351 353 351
315 317 318 320 322 321 324 323 320 318 318 320 320 321 330 354 352 351 350 353 351 348 345 343 346 343 343 344 346 346 347 347 348 347 347 343 347 349 347 350 352 353 353 352
313 315 314 316 316 318 321 317 319 322 321 320 319 320 320 347 346 349 350 352 348 348 346 345 344 344 342 343 345 348 347 347 348 348 347 343 346 347 349 350 352 351 351 353
313 314 314 315 314 316 316 317 319 324 323 321 320 322 322 326 336 345 346 347 343 340 344 344 345 346 343 344 343 348 349 347 347 348 348 343 344 346 347 350 352 351 349 349
314 316 316 316 315 315 315 319 317 319 318 321 322 322 323 323 323 345 347 341 340 340 344 344 346 347 344 344 343 343 349 348 347 346 346 345 343 345 345 348 353 351 350 350
312 314 313 315 314 314 312 313 317 315 324 324 323 324 323 325 332 335 351 348 341 340 345 347 348 347 346 345 344 343 345 348 347 347 345 344 344 344 344 345 350 354 351 349
311 311 312 314 313 315 313 312 311 313 317 321 322 322 321 327 329 331 331 334 346 341 346 349 349 347 347 346 346 345 344 346 349 348 346 345 344 346 345 344 345 351 353 350
312 310 312 314 314 314 314 312 311 313 316 319 320 323 328 328 326 328 331 332 335 344 345 349 350 348 347 347 346 347 347 345 348 349 348 346 344 344 346 345 343 345 353 352
312 310 312 313 311 312 314 313 313 312 309 315 318 319 323 324 326 330 331 337 340 343 348 350 350 349 350 349 348 347 349 348 347 349 349 349 345 343 345 347 344 344 347 352
311 308 311 313 313 312 314 314 312 312 311 313 313 316 321 323 326 329 331 329 345 345 346 342 341 342 343 344 346 348 347 351 350 350 350 350 349 345 343 346 347 347 346 349
310 312 314 314 314 314 315 315 315 313 314 315 313 313 320 317 322 324 330 328 333 337 342 345 344 344 341 338 339 343 348 350 351 351 350 350 351 349 345 343 347 344 348 346
310 315 314 314 314 313 314 314 314 314 314 314 314 314 316 322 324 328 325 327 335 339 341 345 345 343 344 342 344 342 345 350 352 352 352 351 351 352 351 345 344 345 343 346
310 312 311 312 314 313 313 312 314 314 314 315 317 313 322 326 327 327 329 329 336 336 337 337 341 341 342 345 344 346 345 347 353 354 354 354 351 353 353 353 348 346 345 343
307 310 310 311 313 313 310 312 313 313 321 322 324 323 323 323 325 325 323 325 331 334 332 333 342 344 346 345 343 344 344 343 348 350 355 355 356 354 354 353 354 352 350 347
307 309 311 311 312 311 312 313 316 315 320 317 317 317 317 320 324 325 320 322 329 328 326 335 343 340 338 340 347 349 346 347 348 352 354 358 357 357 356 355 355 355 355 352
309 309 310 313 315 315 316 314 315 314 319 313 314 314 314 317 322 323 317 321 325 330 330 331 337 335 333 333 338 341 343 346 343 346 347 353 359 358 358 358 356 356 356 355
309 311 310 317 319 315 311 311 312 316 316 312 311 311 312 313 315 314 315 319 321 326 327 328 330 331 329 328 330 333 336 336 337 338 345 346 355 358 358 359 358 358 357 356
314 311 313 314 320 317 309 309 313 310 306 307 308 307 309 309 310 312 313 318 319 323 325 327 326 326 326 325 326 327 330 330 332 336 341 348 356 358 359 359 359 358 358 357
314 308 308 309 311 310 308 306 306 304 305 305 305 305 307 308 308 308 312 315 318 321 324 325 325 324 323 323 323 324 324 325 330 330 337 345 357 358 358 359 359 358 358 358
309 309 310 308 308 307 307 306 306 305 304 304 304 304 304 306 306 308 309 313 317 322 323 323 321 321 321 319 319 320 321 323 327 329 335 339 353 359 358 359 359 359 358 359
308 308 308 307 307 306 307 305 306 305 304 304 304 304 305 306 307 309 310 312 318 321 320 321 319 318 317 316 316 318 319 320 322 327 331 334 355 360 359 359 359 360 360 359
308 308 306 304 305 304 305 305 305 306 306 306 305 305 306 308 312 311 310 313 318 317 317 317 316 316 315 315 315 316 318 318 320 324 330 330 338 359 362 360 361 361 361 360

GFSCGP_925_thetae_081.txt.gz
Theta_e
322 322 326 327 327 327 327 326 326 325 325 325 346 360 356 355 357 356 353 351 350 347 341 343 342 346 346 346 346 346 347 348 351 349 348 349 348 348 350 350 350 351 350 347
325 327 326 327 328 327 327 327 326 324 323 321 352 360 356 352 356 355 353 352 350 347 343 342 341 346 345 347 347 347 348 348 350 349 349 349 349 348 349 350 351 350 350 349
328 330 329 329 330 328 326 325 326 326 324 344 356 361 358 354 350 345 348 347 349 348 346 341 341 347 346 346 346 347 347 346 347 349 347 348 350 348 349 350 350 350 350 349
328 328 328 328 329 326 328 324 326 325 321 322 327 323 357 356 355 352 347 349 347 349 347 341 340 346 346 346 346 347 348 347 346 346 345 346 350 349 349 350 350 352 351 351
321 319 328 327 326 325 326 325 324 323 320 319 320 322 328 357 359 354 350 350 347 347 347 344 340 344 345 345 345 346 347 347 344 343 343 344 348 349 348 350 351 350 351 351
315 316 318 320 324 324 324 323 317 314 316 320 319 319 320 355 358 353 349 348 348 348 347 346 343 340 345 345 345 345 345 345 344 344 342 343 346 348 348 347 350 349 351 352
312 313 313 314 315 315 315 316 318 321 320 321 316 319 320 335 347 351 349 348 346 349 347 348 343 341 342 345 344 345 345 346 345 345 343 343 342 346 348 347 348 350 351 351
312 313 314 314 314 315 314 315 318 323 321 320 316 321 321 320 331 343 345 345 345 349 347 347 344 342 340 344 344 346 345 346 347 346 344 343 342 344 346 348 348 350 351 351
313 315 313 315 313 313 314 313 316 316 316 319 319 320 322 328 331 339 342 343 345 348 348 347 345 343 341 342 344 345 346 345 347 347 345 344 343 341 344 346 348 349 350 350
313 314 312 314 313 313 312 312 315 313 322 324 320 322 321 329 330 329 330 341 343 340 341 342 345 345 342 342 343 345 346 345 345 346 347 345 344 343 341 345 346 350 351 351
310 310 312 312 313 314 311 312 310 309 314 319 321 321 323 328 328 328 328 332 334 331 339 339 342 345 344 342 342 343 346 346 345 345 346 346 345 344 341 342 345 345 352 352
310 307 312 313 310 311 311 312 309 313 315 313 316 320 322 322 324 328 332 340 344 340 334 338 341 344 346 343 343 342 343 346 345 345 345 345 345 345 342 339 341 344 344 349
312 308 311 311 310 310 311 312 310 308 306 312 314 316 315 316 321 327 333 335 338 344 342 342 345 346 346 344 344 343 342 344 346 346 345 344 344 344 344 341 338 341 343 344
310 306 309 311 313 311 314 314 311 309 310 312 313 314 314 314 318 322 325 337 339 341 344 344 342 341 340 344 345 345 344 343 344 347 346 345 344 344 344 343 339 338 341 343
308 311 314 312 311 313 313 313 314 312 312 314 313 313 313 314 320 327 328 328 337 345 343 343 343 342 343 343 340 343 346 347 345 346 348 347 346 344 344 343 342 337 339 341
306 312 313 312 312 312 311 310 311 312 312 312 312 313 321 322 325 324 324 326 332 334 334 339 344 344 344 344 343 342 342 345 349 346 348 348 348 347 345 344 343 343 339 341
308 308 308 311 311 310 306 312 313 313 315 314 315 319 320 320 321 323 321 323 330 331 330 339 343 340 340 344 343 344 344 342 345 349 348 348 348 349 348 346 343 343 344 342
307 307 307 309 308 310 306 311 312 318 318 316 317 316 315 315 316 320 314 319 325 331 332 339 337 335 334 337 345 345 343 344 347 350 350 350 349 349 350 350 347 344 344 344
302 306 308 309 309 308 311 313 314 315 318 314 314 313 313 312 317 323 313 314 319 326 328 333 333 332 329 328 333 337 340 346 347 348 351 351 352 350 350 351 351 349 346 345
308 305 307 309 312 314 313 310 309 311 316 312 311 312 312 311 316 318 311 312 314 319 326 328 330 327 325 325 326 330 332 333 333 335 340 345 350 354 351 351 351 352 352 349
304 306 308 309 309 313 311 308 308 317 311 307 307 308 308 309 310 308 308 309 311 314 323 327 325 325 324 323 323 324 326 326 326 329 333 338 343 347 355 354 353 352 353 353
312 306 308 308 313 314 309 308 311 307 304 304 305 305 306 306 306 306 307 307 308 311 317 325 324 324 322 321 319 320 322 322 323 325 328 333 338 344 346 357 356 355 354 354
312 305 303 305 305 307 307 306 305 306 306 305 304 304 304 305 305 305 305 306 306 308 312 323 323 322 321 320 317 318 319 320 323 324 326 329 335 341 345 355 357 356 356 355
306 308 308 307 304 305 306 306 305 304 305 305 304 304 304 304 304 305 305 305 306 308 311 321 321 320 320 319 317 317 318 319 320 321 324 327 331 335 346 355 357 357 356 356
303 307 306 307 303 304 304 304 305 306 305 305 306 305 305 305 305 307 307 307 307 308 311 321 319 318 318 317 316 317 316 317 318 320 323 325 330 332 338 355 357 358 358 357
304 305 307 305 301 303 303 303 304 307 306 306 306 306 305 305 305 306 309 311 310 309 313 317 317 315 315 315 315 314 315 314 315 317 319 322 325 330 335 348 356 357 358 358

GFSCGP_925_thetae_084.txt.gz
Theta_e
320 320 321 323 325 327 327 326 326 325 324 325 328 349 353 355 355 355 353 350 349 346 344 344 344 344 344 345 343 344 344 346 347 348 348 348 349 347 349 349 349 347 349 348
323 322 322 324 326 326 326 327 326 326 324 322 332 343 354 354 355 354 354 351 349 348 344 343 342 344 344 345 344 345 344 346 347 348 348 348 348 347 347 349 349 350 350 348
325 327 326 328 327 327 326 325 326 327 324 345 351 340 357 353 350 348 352 350 348 348 343 343 341 343 344 344 345 345 345 345 347 350 348 348 348 347 348 350 349 351 349 349
326 327 328 328 330 327 329 324 326 326 321 321 325 320 343 354 353 351 347 348 346 347 342 341 341 343 345 345 345 345 345 345 347 349 347 348 349 346 347 349 348 349 349 350
327 321 327 327 326 325 326 324 324 324 320 319 320 318 320 351 355 353 351 347 346 344 345 341 341 344 345 345 345 345 346 346 347 350 348 348 348 348 347 348 349 349 350 351
314 314 319 324 324 324 323 318 314 313 314 319 319 318 318 354 354 353 350 350 347 345 345 344 340 343 345 345 345 345 346 346 347 347 348 347 346 348 348 348 349 350 350 350
312 313 312 313 314 314 315 315 317 320 319 321 314 318 319 320 325 348 349 348 347 345 344 346 341 340 345 345 345 345 346 346 346 346 346 346 344 347 347 347 348 349 349 349
310 313 312 313 313 314 314 315 317 323 320 320 315 320 328 326 328 333 344 344 344 345 345 345 345 340 343 344 344 344 344 346 347 346 344 344 344 344 347 347 346 345 349 349
312 314 312 313 312 311 314 313 313 314 314 317 317 320 319 326 328 328 330 340 342 343 345 345 346 344 339 344 344 344 344 345 346 345 344 343 344 343 345 346 346 346 346 349
311 313 311 312 312 311 310 310 315 313 321 323 319 320 323 326 326 327 331 331 332 334 344 346 345 345 342 341 344 343 344 344 345 345 344 344 344 343 342 344 346 346 346 348
309 308 312 310 310 310 311 311 309 309 312 319 321 326 316 316 321 325 328 335 338 341 337 340 345 345 343 340 343 343 344 344 344 345 345 345 344 343 343 342 343 345 346 347
310 306 310 311 309 310 309 310 308 312 315 311 315 323 313 312 316 323 325 328 338 342 342 334 338 344 344 341 341 343 344 344 344 344 345 345 344 344 344 342 340 341 345 345
311 308 309 312 309 310 312 311 307 305 305 312 316 318 313 315 320 326 327 328 341 342 343 341 338 339 344 343 341 342 344 344 344 344 344 345 345 345 344 343 342 340 342 344
309 307 308 309 311 311 313 313 310 307 311 312 312 313 312 324 326 325 324 325 331 331 339 342 341 341 340 343 342 342 342 344 345 344 344 344 345 345 345 344 342 340 338 342
307 313 312 311 312 312 312 313 312 312 311 312 312 313 313 323 325 323 321 323 329 331 337 345 344 343 343 342 342 343 342 341 345 345 345 344 344 343 343 344 344 342 340 337
305 313 311 311 311 311 310 310 310 311 311 310 311 313 319 320 319 318 316 317 324 331 334 341 339 337 340 344 343 341 344 342 342 345 345 345 344 344 343 343 343 343 343 341
306 307 306 309 310 309 312 311 311 312 319 317 312 315 314 314 315 318 314 314 318 321 329 335 335 332 331 335 343 343 342 344 345 343 344 346 346 345 344 343 343 343 343 343
307 305 304 308 306 306 304 311 314 315 317 315 316 314 313 312 311 311 312 312 313 315 318 328 331 330 327 329 333 337 344 344 343 344 346 345 346 346 346 345 344 343 343 343
301 304 306 308 307 307 314 310 311 313 316 311 312 311 310 309 311 318 311 309 309 310 312 316 326 328 325 325 325 329 330 333 335 336 343 348 347 347 347 347 347 345 343 343
305 303 306 307 311 312 312 310 308 309 315 308 307 307 308 307 312 318 309 307 308 308 308 310 314 326 324 322 323 324 324 326 326 329 332 335 340 342 348 348 349 349 347 344
302 304 307 309 308 310 311 308 307 316 311 305 305 305 305 306 307 305 305 306 306 307 307 307 310 322 324 321 319 322 322 323 325 328 330 333 337 337 340 349 350 349 349 348
305 303 307 310 312 313 308 307 308 306 303 304 304 305 305 304 304 304 304 305 305 305 306 306 307 311 323 322 318 319 320 321 324 327 330 331 333 336 337 342 351 350 350 350
305 303 302 303 304 305 305 303 304 304 305 305 305 305 305 304 304 304 304 304 304 305 306 306 307 310 320 321 318 317 318 318 320 322 325 329 333 333 335 336 341 352 353 352
304 304 308 303 302 304 304 304 303 304 305 305 305 305 305 305 305 304 304 304 305 306 307 307 307 309 316 320 318 316 316 316 317 318 320 325 327 330 333 335 339 348 354 354
302 307 305 302 302 302 303 303 303 304 306 306 306 306 306 306 305 305 305 305 306 307 308 309 308 309 315 318 317 315 314 314 315 316 318 321 323 325 331 333 337 342 355 355
303 304 303 304 302 303 303 303 303 305 306 307 307 307 305 305 305 305 305 305 306 307 309 310 309 310 315 317 315 314 312 311 311 313 315 316 320 323 327 331 334 344 351 356

GFSCGP_925_thetae_087.txt.gz
Theta_e
318 322 326 334 332 332 331 333 333 333 340 335 333 335 349 355 358 358 356 353 351 350 347 348 348 347 345 344 346 346 345 347 348 348 348 349 350 350 350 350 348 347 346 346
320 323 324 329 330 331 331 333 333 329 327 327 330 344 356 357 357 358 356 354 352 350 349 348 348 347 346 345 344 346 346 346 347 349 350 351 351 350 351 350 348 349 347 347
321 322 325 329 331 333 333 334 331 331 328 348 340 347 358 356 355 356 354 353 351 351 350 349 347 347 347 346 345 345 347 346 346 349 349 349 349 349 349 351 350 350 350 349
326 326 328 331 333 332 336 329 329 329 330 330 330 333 340 357 359 357 357 355 352 351 350 349 347 347 347 347 346 346 347 348 347 346 349 351 350 350 350 352 352 350 349 350
329 330 330 333 333 331 334 328 330 330 329 326 325 328 328 353 356 359 358 357 354 351 350 349 348 346 346 347 346 347 348 348 348 347 348 351 351 351 350 352 351 350 349 350
319 318 326 331 328 330 326 324 322 322 325 329 327 327 328 341 341 337 350 356 354 351 350 348 346 346 346 347 347 347 348 348 347 346 347 349 351 351 351 351 352 353 354 353
316 316 315 315 324 323 326 328 328 328 329 330 322 326 337 335 335 339 337 349 353 351 350 350 347 345 346 347 347 347 348 349 348 348 349 349 350 349 348 351 351 352 353 354
319 318 316 316 317 324 328 328 327 330 329 328 322 330 336 332 334 339 342 347 348 351 351 350 348 345 345 347 347 347 347 348 349 348 348 349 349 350 349 350 350 351 352 353
318 318 315 315 315 316 319 323 320 324 321 327 326 326 328 328 333 337 338 342 343 346 348 350 348 347 345 346 347 348 348 348 349 349 347 348 348 347 348 349 347 349 348 352
315 318 314 315 315 316 318 316 323 324 329 328 326 331 329 327 329 335 339 342 346 345 346 344 347 347 345 346 347 348 348 348 348 349 349 349 348 346 345 347 347 348 346 346
314 317 317 316 316 316 318 319 317 322 323 328 328 330 319 324 328 337 339 338 343 348 348 347 344 346 346 345 346 347 347 348 348 349 349 348 348 347 344 346 344 347 346 345
313 316 317 316 313 313 314 316 317 326 327 322 327 327 321 326 330 333 333 334 337 344 348 347 340 340 347 347 344 346 347 347 347 347 348 349 348 347 347 345 344 345 346 346
314 315 318 317 316 315 317 315 314 314 317 326 327 324 321 328 330 330 332 332 338 340 345 348 348 346 345 347 345 345 346 347 347 347 348 348 349 348 347 347 345 344 343 346
314 314 316 317 318 317 317 315 314 316 321 321 321 320 320 329 330 329 329 331 336 337 339 341 339 341 347 347 347 344 345 346 347 347 347 348 349 348 348 346 346 344 343 345
314 317 316 315 314 314 314 315 314 315 316 320 319 318 324 327 327 325 326 329 331 327 331 336 335 333 333 339 347 345 344 345 347 348 347 347 348 349 349 348 347 346 344 343
312 317 314 314 312 312 312 312 312 312 313 314 314 316 320 321 321 321 322 326 323 321 320 326 333 330 328 329 335 346 346 345 347 348 347 348 348 348 347 348 348 348 348 347
314 315 314 314 313 312 312 313 312 313 317 318 315 320 318 320 318 318 317 319 316 313 314 316 321 329 327 325 328 336 347 347 346 348 348 348 349 348 347 347 346 347 347 348
313 315 314 316 312 312 314 315 316 315 319 318 319 317 315 315 314 315 313 314 314 313 312 312 314 315 327 326 324 329 336 342 345 347 347 347 349 349 348 347 347 345 346 347
309 315 316 317 312 311 314 313 314 317 319 314 315 313 311 311 313 318 314 311 311 311 310 310 310 311 316 327 324 323 327 331 336 339 341 344 348 349 350 349 349 348 346 347
311 312 317 316 315 314 316 312 310 312 317 311 310 311 310 310 317 319 312 309 308 308 308 309 309 310 310 318 325 322 323 326 329 330 333 337 342 346 349 350 351 351 349 347
316 316 318 318 318 315 314 310 310 317 317 309 308 308 309 310 310 309 307 308 307 307 307 307 308 309 311 311 323 324 321 322 323 327 330 332 335 339 341 343 348 349 350 349
315 317 318 317 317 316 312 308 313 311 308 308 308 308 307 307 307 307 307 307 307 307 306 307 307 309 310 312 316 323 322 319 318 320 327 332 332 335 339 340 343 345 350 350
315 313 317 316 315 312 309 309 308 307 308 307 307 307 307 307 307 307 308 307 307 306 306 307 308 309 310 312 314 321 322 320 317 317 319 324 329 333 336 337 341 344 344 350
310 309 314 312 311 311 310 308 307 307 307 306 306 306 307 307 307 307 307 306 306 306 307 307 308 310 311 312 313 319 321 319 317 315 316 317 323 327 329 332 337 340 345 347
311 311 312 311 309 308 308 309 308 307 307 307 307 307 307 307 306 306 305 305 306 306 307 307 309 310 312 313 312 316 319 318 316 315 314 316 319 321 324 324 330 336 340 341
309 312 314 318 312 311 311 309 308 308 308 308 308 308 307 306 306 305 305 305 305 306 307 308 309 310 312 313 313 316 318 315 314 315 315 314 314 317 321 326 326 328 332 337

GFSCGP_925_thetae_090.txt.gz
Theta_e
322 322 324 327 331 334 336 343 341 343 347 346 351 346 359 358 359 360 357 354 350 346 343 346 347 345 342 342 344 346 348 349 350 350 349 350 352 352 353 353 353 350 351 350
322 323 323 327 333 335 336 340 342 336 332 333 334 337 344 356 356 359 359 357 352 349 347 348 348 348 346 343 343 346 347 350 352 351 350 350 351 352 350 353 354 353 351 351
323 324 324 330 336 334 334 338 337 337 332 338 338 341 349 352 354 356 357 356 354 352 348 350 350 349 348 347 343 345 347 349 352 351 353 355 354 354 351 354 353 353 353 351
323 324 326 329 334 333 334 334 336 334 334 339 336 341 342 354 355 357 359 357 355 353 350 349 350 350 349 348 344 344 348 349 352 353 352 353 351 351 350 352 353 354 355 354
326 324 328 331 334 334 334 333 333 335 335 333 334 335 343 343 353 357 357 358 355 353 352 350 349 349 348 348 348 345 348 350 350 352 354 353 353 349 351 351 353 354 355 355
328 325 327 332 333 333 332 333 333 332 334 334 333 333 340 343 343 342 344 356 357 354 353 351 348 348 348 349 349 348 348 351 352 353 354 354 353 351 349 352 351 351 353 354
325 327 325 326 334 334 332 332 333 333 332 332 333 333 343 340 343 345 338 347 356 355 353 353 352 350 349 349 350 350 349 353 353 353 353 354 355 354 353 353 349 351 352 352
325 325 324 322 329 333 334 331 331 333 332 331 331 333 342 339 342 343 346 348 350 354 353 353 352 350 350 350 350 350 350 353 354 353 354 354 355 353 352 350 349 351 350 352
324 322 318 318 320 323 333 333 329 329 330 331 331 338 335 336 341 345 347 349 349 350 353 353 352 351 350 349 350 351 351 352 354 353 354 355 355 355 351 349 350 350 351 352
322 322 319 318 319 320 326 330 329 328 332 332 331 337 337 337 343 343 344 347 350 351 350 349 350 351 351 350 350 351 352 353 354 353 353 354 354 355 354 352 351 349 349 351
320 323 320 320 322 323 323 327 327 327 329 331 332 333 328 336 342 342 343 346 351 351 352 350 344 346 350 351 350 349 351 353 354 354 353 353 353 354 354 353 352 351 351 352
319 322 322 322 318 318 321 325 327 329 331 330 332 330 329 334 339 339 342 347 343 344 343 346 349 347 346 349 350 349 350 351 352 353 354 354 354 353 353 353 350 350 351 352
319 321 323 321 320 320 322 321 322 324 327 330 329 331 331 334 338 338 340 342 339 337 339 339 338 339 347 350 352 350 348 350 351 352 353 354 354 354 353 352 352 351 351 351
319 320 322 322 323 322 322 320 320 322 327 329 329 332 332 332 334 336 337 338 336 334 332 335 335 332 334 339 343 351 349 349 350 351 352 352 354 354 354 353 353 352 352 351
319 323 321 320 319 319 319 319 318 321 324 327 328 330 331 330 330 331 333 334 332 330 330 329 331 332 330 328 333 340 351 348 349 350 351 351 353 353 354 354 353 353 353 352
318 321 320 319 317 317 318 317 317 316 317 322 323 327 325 325 324 325 327 328 328 326 325 326 327 325 331 329 328 329 337 350 349 350 350 351 352 353 354 354 354 353 353 353
318 319 320 319 315 315 315 317 316 316 318 319 321 325 322 323 322 321 323 324 324 323 321 321 322 322 323 330 328 326 327 337 349 349 351 351 352 352 353 353 354 354 354 353
317 318 317 318 316 315 319 318 317 316 321 320 322 320 319 320 319 320 320 320 320 319 319 319 317 317 318 321 328 328 327 327 334 343 350 351 351 351 352 352 353 353 353 353
316 316 317 318 316 316 315 315 317 317 321 319 320 319 318 318 319 322 319 316 316 316 315 315 315 315 316 316 317 327 327 327 329 329 332 338 348 351 352 352 352 352 352 352
314 316 319 316 317 316 319 315 315 316 320 317 317 317 316 316 318 325 316 314 313 313 313 313 313 314 315 316 315 317 326 326 327 326 326 330 334 340 348 351 353 353 353 352
320 319 320 320 320 318 317 314 315 317 322 315 313 313 313 315 315 313 312 312 312 312 312 312 312 313 314 315 316 317 319 324 325 324 325 325 331 335 339 344 344 349 353 353
321 324 322 321 321 321 317 314 317 317 313 312 312 312 312 312 312 312 312 312 311 311 311 311 312 312 313 314 315 317 318 321 323 324 324 324 324 328 334 341 346 348 348 352
321 318 322 320 320 318 315 314 313 312 312 311 311 310 310 311 311 311 311 311 310 310 310 310 311 311 312 313 315 316 318 321 323 323 323 323 323 324 329 335 339 342 344 349
315 315 319 316 314 315 314 311 311 310 311 310 310 309 309 310 310 310 311 309 308 308 309 310 310 311 312 313 314 316 316 319 322 321 322 321 319 320 322 327 331 335 338 339
317 315 317 316 315 313 313 313 312 311 310 310 309 309 310 310 310 309 309 307 307 307 308 310 309 309 310 311 313 315 317 317 321 321 320 320 319 318 319 321 325 328 333 335
314 316 319 321 315 314 314 313 312 312 311 310 310 310 309 308 309 308 307 307 307 307 306 307 307 308 308 311 313 315 316 318 319 320 320 319 318 318 318 318 321 324 327 328

GFSCGP_925_thetae_093.txt.gz
Theta_e
324 324 325 327 329 334 336 345 349 346 348 349 354 359 364 360 358 360 357 352 351 351 346 341 340 340 341 343 347 347 347 350 350 350 347 348 350 352 352 351 355 353 352 352
326 326 325 326 328 330 335 341 346 345 347 346 352 357 356 360 361 357 359 357 353 350 345 343 342 341 341 342 345 347 348 352 351 349 347 347 350 350 351 352 353 353 352 353
326 326 326 325 329 333 337 340 343 346 340 340 340 348 352 351 354 360 358 356 352 348 345 347 345 344 343 343 344 347 349 352 353 350 352 352 353 353 352 353 353 354 354 353
325 325 325 326 333 334 336 336 340 339 340 345 340 347 352 351 353 356 358 358 353 350 346 348 347 347 346 344 343 345 349 351 354 353 352 352 351 350 351 352 353 353 354 353
325 325 325 328 332 332 332 332 338 337 337 340 340 341 346 352 353 356 356 357 355 352 350 349 348 348 347 345 341 344 349 351 352 354 356 353 354 350 351 351 354 355 355 356
327 325 327 328 330 333 335 333 336 337 337 337 337 339 347 348 351 349 352 355 355 352 352 349 348 349 348 346 345 343 350 352 353 355 355 356 353 352 352 353 354 353 353 354
329 329 326 329 332 334 336 336 336 335 337 337 334 334 348 345 344 344 342 353 353 354 353 351 351 350 349 347 346 348 349 353 354 355 356 356 356 353 353 355 353 352 352 354
329 330 328 330 334 335 335 335 335 335 333 333 332 340 346 344 345 346 347 349 351 352 354 353 351 351 350 349 349 348 353 355 356 355 355 357 357 355 351 351 349 351 350 352
328 328 325 327 332 331 335 335 332 331 331 331 338 344 341 344 346 348 350 352 353 350 353 354 352 352 351 351 351 350 353 356 357 358 356 357 358 357 352 349 349 353 352 350
327 327 324 323 324 327 329 333 334 332 335 333 336 343 343 346 347 347 351 356 354 354 353 352 352 353 352 352 351 352 353 356 357 358 358 357 358 358 358 354 352 348 348 352
325 326 324 323 325 326 329 331 333 332 331 334 337 342 341 345 344 348 351 350 350 350 350 352 351 348 351 352 352 352 354 355 357 358 357 357 357 358 359 357 355 354 351 352
324 325 326 323 324 324 326 329 332 334 334 331 333 337 339 342 342 348 346 342 342 342 344 345 346 349 351 352 353 354 352 353 354 357 358 357 357 357 357 358 356 355 354 352
324 324 327 325 324 323 325 326 328 330 330 333 333 339 338 341 341 344 344 343 339 338 339 341 341 340 342 346 349 349 353 351 353 354 356 357 357 358 357 357 357 355 354 353
322 323 325 326 327 324 325 325 325 327 330 331 332 340 341 342 341 342 340 339 338 338 338 336 338 338 338 339 341 343 347 352 352 353 354 356 357 358 358 357 357 356 355 355
323 323 323 324 321 323 324 324 323 325 326 329 337 339 338 337 338 338 337 336 335 334 333 333 334 335 336 336 335 336 340 345 352 352 352 355 356 358 358 358 358 357 356 356
322 325 325 322 320 320 321 321 321 322 324 327 336 336 333 331 329 331 331 331 331 331 330 329 329 328 330 334 334 331 333 338 347 349 351 352 353 356 358 358 358 358 357 357
323 324 325 324 322 320 320 321 320 321 321 324 332 332 329 328 326 327 327 327 327 327 327 327 326 325 324 325 330 332 330 334 338 342 344 350 352 352 354 356 357 358 358 358
321 323 323 323 322 322 322 321 320 320 321 325 328 327 327 325 323 325 324 324 324 324 323 323 322 323 323 323 322 326 331 331 331 331 334 337 343 348 351 352 354 354 356 358
318 320 321 322 322 320 320 320 320 320 324 323 325 323 321 320 322 324 321 319 319 320 319 320 320 319 320 322 322 322 325 330 331 329 328 330 336 340 342 349 352 351 352 354
317 320 321 321 321 320 322 318 319 318 324 321 322 321 320 319 319 327 320 317 317 316 317 317 317 318 319 320 320 322 323 323 328 328 328 328 328 334 339 342 346 349 353 355
320 320 322 323 322 323 321 317 317 319 324 320 318 318 317 319 320 317 316 316 315 315 315 315 315 316 317 318 319 321 322 323 324 325 326 327 329 327 328 336 341 347 350 352
322 324 323 323 323 324 319 317 318 323 319 316 316 315 316 316 315 315 315 315 314 314 314 314 315 315 316 316 317 319 321 322 323 326 325 325 326 328 327 331 338 340 345 347
324 321 327 322 326 323 318 319 319 318 317 315 315 313 313 313 313 313 313 314 313 313 313 313 314 314 315 315 316 318 319 321 321 323 326 325 325 325 326 327 329 334 339 342
318 319 321 320 320 319 317 316 314 313 314 313 313 312 312 313 313 313 313 313 312 312 311 312 313 313 313 313 313 315 316 318 320 321 324 326 324 323 323 324 325 326 331 336
320 319 319 319 318 317 316 314 314 313 313 312 312 312 312 312 312 311 311 311 310 310 311 310 309 310 311 312 313 313 315 316 319 320 321 323 324 322 321 322 321 323 325 326
317 318 321 322 318 317 316 315 315 314 314 313 313 313 312 311 311 310 310 310 309 309 308 308 308 308 309 309 311 312 313 316 318 320 320 321 322 322 321 320 319 320 321 323

GFSCGP_925_thetae_096.txt.gz
Theta_e
326 324 325 326 330 336 339 342 351 350 349 357 351 348 360 359 355 354 352 348 347 346 344 343 343 343 343 348 348 348 352 348 351 350 348 351 349 351 353 352 352 350 351 352
327 325 325 325 327 329 336 337 350 349 348 357 352 356 359 359 358 355 352 350 351 350 347 344 343 341 342 348 348 349 354 349 352 348 349 349 351 352 353 351 354 352 352 352
327 326 325 325 326 328 330 335 350 352 350 352 358 362 346 359 356 357 355 353 351 351 350 344 343 341 342 348 349 350 354 350 351 350 350 354 349 344 354 351 354 354 353 353
324 326 326 326 326 328 330 334 338 350 349 345 346 360 366 363 358 351 358 357 355 352 350 345 343 342 342 346 348 351 353 351 351 354 350 352 350 347 352 350 354 353 353 353
324 325 326 326 326 329 332 334 342 344 345 339 340 352 353 354 363 346 353 358 354 350 346 346 345 344 343 345 346 351 352 355 352 354 354 350 351 352 350 353 351 353 354 355
325 326 326 326 327 333 333 333 333 340 341 340 341 341 353 358 356 353 350 358 354 352 348 347 347 347 347 345 344 350 353 354 356 351 354 353 352 348 349 351 349 353 354 354
328 327 325 327 328 331 332 335 335 343 340 338 338 342 356 353 350 353 357 356 351 347 350 350 350 349 349 345 343 350 353 355 356 353 354 357 355 354 351 351 352 355 354 354
329 331 329 326 328 332 332 335 335 341 338 336 335 350 349 346 345 343 350 351 356 346 348 351 352 351 349 348 344 349 355 357 355 357 357 355 355 354 352 351 351 351 350 352
331 329 329 327 329 332 334 336 334 332 332 333 345 348 345 345 346 348 358 359 357 356 355 347 349 352 349 350 349 350 355 357 357 357 358 359 357 357 355 348 345 350 352 350
330 330 328 327 329 332 335 333 335 337 338 337 347 350 351 348 357 358 358 357 358 355 356 351 345 346 347 350 348 356 356 358 358 358 359 359 360 358 355 355 351 348 353 351
326 328 327 326 328 331 332 333 333 334 335 337 350 348 346 350 357 357 353 350 350 351 350 352 346 348 341 352 354 354 358 361 361 361 360 359 360 361 358 358 353 349 352 352
326 326 328 326 325 325 326 332 332 336 339 336 349 350 344 349 352 349 348 346 344 344 346 346 345 346 349 349 351 351 352 358 360 360 361 361 361 360 361 359 359 356 352 353
327 326 329 326 325 325 326 327 328 331 333 340 341 347 346 350 348 347 346 344 343 341 341 342 342 343 344 344 343 345 348 353 353 359 360 360 361 361 360 361 359 359 357 356
325 325 328 329 330 326 325 327 327 329 332 333 340 341 345 345 345 344 343 341 340 339 339 340 340 342 340 340 340 341 342 348 353 352 354 359 359 360 360 359 360 359 359 358
321 324 325 326 325 324 324 324 326 327 329 342 342 347 345 344 342 340 338 337 336 335 334 333 333 334 337 339 337 337 341 343 347 348 350 353 355 358 358 359 360 359 359 359
322 325 326 325 323 322 324 324 325 325 326 335 338 344 339 337 337 337 336 335 334 333 331 330 329 329 329 329 335 336 336 337 339 341 340 344 351 353 356 357 357 358 359 359
324 323 327 324 323 321 322 323 323 322 324 337 342 339 334 334 334 333 331 330 329 329 329 328 328 327 327 326 326 332 335 334 333 333 333 336 343 348 351 352 354 355 356 357
325 326 326 326 324 327 322 323 322 322 322 331 336 334 331 330 329 328 327 326 325 325 325 324 323 324 325 325 325 326 328 333 332 331 330 328 333 339 343 348 350 352 353 354
318 322 324 325 324 324 324 322 321 320 324 328 331 330 328 326 327 325 322 321 321 321 320 320 321 321 322 323 324 325 326 326 330 330 329 329 328 329 336 341 343 347 350 352
318 320 324 322 324 324 323 321 320 319 326 325 327 325 324 322 328 327 321 319 319 318 318 318 318 319 320 321 322 323 325 326 327 327 328 329 330 330 327 328 338 342 346 349
319 321 322 323 324 326 321 319 318 320 328 323 323 323 321 321 324 322 319 318 317 317 317 316 317 317 318 318 319 321 323 325 325 326 328 327 327 328 329 330 331 339 341 345
323 323 322 321 323 325 320 318 319 325 323 321 320 319 319 319 319 318 317 316 316 316 315 315 316 317 317 317 318 319 321 321 322 324 324 328 328 327 326 328 328 327 335 337
327 324 328 327 330 323 320 323 322 320 319 318 317 316 316 315 316 315 315 315 314 314 314 314 316 316 316 316 315 316 316 317 319 320 324 324 327 328 327 326 324 329 330 336
320 319 324 324 324 323 320 319 319 319 318 316 315 314 313 314 314 314 314 314 313 313 313 312 313 313 314 313 314 314 315 315 318 319 321 323 324 327 326 324 324 323 325 328
322 319 320 321 320 319 319 317 315 315 316 314 313 313 314 313 313 313 313 313 312 312 312 311 311 311 311 311 312 312 313 313 315 317 320 322 322 323 326 325 324 324 322 321
318 318 323 321 319 320 318 317 315 314 314 314 314 313 313 313 313 312 312 312 311 311 311 310 309 309 309 308 309 310 310 312 312 313 317 318 319 321 323 324 324 323 320 320

GFSCGP_925_thetae_099.txt.gz
Theta_e
325 322 321 322 323 325 331 335 341 353 358 359 360 356 361 357 352 350 347 343 342 341 341 344 346 344 348 347 344 350 348 348 348 348 351 351 352 349 351 349 350 350 350 351
324 323 324 323 324 326 329 331 353 354 351 356 356 361 361 359 355 351 347 345 343 342 342 343 344 346 347 347 345 350 348 350 347 346 350 351 352 352 350 350 351 351 350 348
324 325 326 323 323 324 325 326 348 355 354 354 356 359 354 357 357 351 347 347 345 345 343 342 343 344 347 347 347 352 348 348 345 346 352 351 351 350 351 348 351 351 351 350
323 324 325 323 323 323 322 326 333 351 350 366 360 363 351 356 362 355 350 349 347 348 346 342 341 343 348 348 347 351 349 347 350 355 348 350 348 344 350 350 351 353 351 351
323 322 323 324 324 324 324 327 345 345 346 352 356 362 351 354 361 360 358 352 350 347 347 342 340 342 349 348 347 348 353 350 348 352 353 349 348 341 350 352 353 354 352 352
323 323 322 323 325 324 326 328 341 344 344 349 343 356 359 358 361 351 353 356 354 351 346 343 341 342 348 348 349 349 352 351 346 352 354 350 349 351 351 353 347 350 351 352
324 324 323 324 324 324 328 330 331 341 344 346 336 348 358 357 351 347 348 346 350 352 349 344 341 342 346 347 350 351 352 352 348 354 352 351 350 346 350 349 346 350 349 350
325 327 325 325 325 325 326 328 332 342 343 341 341 360 355 347 350 348 348 346 350 348 348 346 345 346 344 345 349 351 351 352 350 357 352 354 352 352 351 349 347 351 352 350
329 328 327 324 325 325 327 330 327 330 332 331 349 349 350 345 345 353 346 349 351 350 350 350 344 347 348 345 347 351 351 349 350 355 353 353 356 351 351 346 353 354 354 352
326 327 327 327 325 326 332 332 331 330 336 337 350 350 350 356 362 360 359 358 356 353 342 342 347 345 342 350 351 350 352 349 347 351 355 352 351 354 355 350 352 352 352 352
323 326 328 327 328 329 331 331 331 329 333 334 353 355 353 358 355 354 353 351 352 344 342 342 345 341 344 346 346 348 352 354 355 351 355 355 353 351 350 354 354 349 353 351
325 325 325 327 325 326 327 330 329 331 334 347 351 352 351 352 349 347 346 345 346 347 348 347 348 346 335 344 342 345 347 351 353 354 355 355 358 356 353 352 354 353 353 352
324 325 329 328 323 323 324 324 323 324 329 341 342 345 350 348 347 345 345 343 342 343 344 344 343 344 343 344 344 342 341 349 350 344 351 355 357 358 356 352 353 356 352 352
323 323 327 328 327 326 323 324 324 323 327 337 344 355 353 349 348 345 340 337 336 336 337 339 340 340 339 341 341 345 346 349 345 342 346 348 350 355 357 356 357 357 358 355
321 324 324 326 327 322 322 324 323 325 336 340 339 349 348 345 341 338 335 333 333 331 330 329 330 332 336 337 338 339 340 343 344 344 342 346 344 351 351 354 356 357 359 358
321 325 323 325 324 322 322 322 323 324 338 338 346 348 343 339 336 336 334 333 331 329 328 327 327 327 326 326 334 335 334 334 335 343 347 349 345 339 341 347 351 354 356 357
324 327 328 324 323 323 323 322 322 337 341 344 345 341 339 337 335 332 329 328 327 325 325 324 324 326 325 326 327 331 332 331 329 329 336 343 347 345 346 346 351 353 354 355
321 326 325 325 326 326 324 321 322 326 334 337 338 336 336 332 329 326 325 324 323 323 322 320 321 323 323 324 325 326 330 330 330 329 329 328 332 339 342 345 347 349 350 352
316 320 323 324 323 324 324 323 321 327 337 335 335 333 331 326 323 321 320 319 318 319 319 319 318 322 320 322 322 324 326 326 327 329 330 330 329 329 328 330 338 342 344 348
317 319 322 325 327 325 322 320 320 322 328 331 328 327 327 325 326 324 319 318 317 318 316 317 318 319 318 319 319 322 325 324 325 325 326 329 327 327 331 330 329 331 340 341
319 320 323 323 325 326 322 317 318 322 329 326 324 323 323 321 321 318 316 317 317 316 315 316 317 317 318 318 319 320 317 317 318 319 324 324 328 328 327 325 324 321 327 333
326 324 323 321 324 327 322 319 325 325 319 318 320 320 320 318 317 316 315 314 315 315 315 316 317 316 314 314 315 315 315 316 317 318 319 321 323 323 329 325 326 323 325 329
324 324 327 326 327 322 322 322 320 318 318 317 316 317 317 317 315 314 314 313 315 314 313 313 314 314 312 312 312 312 313 314 314 316 319 321 322 323 322 328 324 324 323 323
322 321 323 323 324 323 321 320 318 317 317 315 313 313 313 313 314 313 313 312 313 313 312 312 312 312 312 310 311 312 311 312 312 312 314 318 320 320 322 324 326 325 323 323
323 321 320 321 321 320 320 318 316 318 315 315 313 313 313 312 312 312 311 311 313 312 311 310 310 309 309 308 308 309 309 309 309 311 312 312 314 316 316 318 319 322 324 322
320 321 321 321 320 320 319 315 314 316 315 313 313 313 313 313 311 311 312 312 311 311 310 310 309 308 308 307 308 308 308 307 306 307 308 309 309 312 313 314 315 317 318 319

GFSCGP_925_thetae_102.txt.gz
Theta_e
324 319 321 321 320 321 323 326 357 361 358 358 356 354 355 353 354 357 346 341 341 345 343 344 348 350 349 348 347 346 347 347 348 350 350 350 345 344 344 347 349 348 349 348
320 321 320 321 321 322 322 328 359 356 355 356 358 361 359 356 356 352 345 340 341 343 344 344 347 348 348 349 348 347 347 348 345 349 351 351 350 349 348 349 349 349 350 346
321 323 323 324 323 322 321 323 354 357 354 354 355 356 358 355 354 348 345 340 341 342 344 343 346 347 346 347 349 349 348 345 344 349 351 352 352 350 349 349 350 349 350 348
322 323 324 324 323 321 318 321 344 354 357 363 353 355 353 351 356 352 348 344 341 340 342 343 345 346 346 347 349 348 348 346 344 344 350 351 350 350 349 348 349 350 351 350
321 322 322 323 323 321 321 322 337 350 350 355 358 357 351 352 360 357 354 348 346 342 342 343 344 346 347 347 349 348 347 347 345 346 351 350 349 346 350 348 350 351 352 350
320 321 319 319 321 322 323 339 341 342 345 351 350 355 358 358 359 358 353 349 349 347 342 341 342 346 347 348 349 349 348 348 347 352 353 350 347 343 348 351 351 352 351 351
323 323 321 320 321 321 324 324 328 346 353 348 348 353 348 354 356 356 357 355 352 349 349 341 340 347 347 347 350 350 349 348 347 348 352 352 348 348 349 350 352 352 353 351
324 324 323 323 321 322 324 324 328 338 340 340 345 355 354 348 346 348 349 349 349 349 351 347 344 345 347 347 349 352 351 349 348 346 352 352 351 348 349 352 350 348 348 349
323 325 325 323 324 321 323 325 323 328 328 339 349 350 345 351 349 347 345 351 352 349 349 347 346 348 347 347 350 350 351 349 348 346 352 351 351 350 350 350 348 347 348 348
323 326 324 326 323 324 323 326 332 326 334 343 351 352 353 352 362 358 350 353 352 345 348 348 346 346 346 346 349 350 351 352 350 349 351 351 351 351 349 350 349 350 352 352
321 321 323 323 324 324 327 329 327 325 326 337 353 352 356 359 358 358 356 352 347 345 344 343 345 347 346 347 344 344 348 352 351 351 352 354 350 353 353 348 352 350 353 352
323 319 322 324 323 323 326 328 325 329 330 343 344 357 352 350 349 349 350 347 347 346 346 346 343 343 348 345 345 340 342 347 351 352 350 352 350 349 349 348 354 354 351 351
320 320 326 324 319 319 320 321 319 320 328 334 340 352 349 348 347 346 348 347 345 343 341 342 342 343 343 343 339 341 341 342 340 347 347 349 351 351 351 349 348 354 352 351
321 316 322 326 321 322 321 320 321 318 325 339 346 352 352 349 348 346 343 340 339 341 340 338 337 339 341 343 344 342 343 342 339 344 347 342 342 349 350 351 349 349 353 353
318 321 320 320 321 320 320 321 321 323 329 331 348 350 351 348 342 337 335 332 331 332 332 331 331 333 336 338 340 342 344 346 346 342 343 344 341 345 347 346 350 354 351 353
316 321 321 321 321 320 321 321 329 335 343 344 346 347 342 336 333 332 331 329 328 328 327 325 325 326 328 333 333 333 335 342 343 343 344 343 345 340 337 345 341 347 352 353
320 320 323 325 321 320 320 321 325 339 340 344 347 343 338 336 334 331 329 328 327 324 322 322 322 323 325 331 331 330 330 329 332 336 339 343 345 343 342 341 340 344 350 351
314 319 319 323 319 323 319 318 326 339 339 340 339 338 336 332 328 327 324 322 321 319 317 316 321 323 323 325 331 330 330 329 330 330 330 329 331 336 341 343 345 346 348 350
311 314 318 320 321 320 323 319 323 335 336 337 334 329 325 323 322 322 321 318 316 315 315 318 319 320 321 323 326 324 324 324 324 324 326 329 327 330 331 330 330 337 342 344
312 311 316 319 323 323 321 319 319 323 337 332 328 325 323 322 324 321 318 316 315 315 317 317 318 319 320 322 321 319 318 319 319 320 322 324 326 328 327 324 324 322 326 331
317 316 318 318 321 323 319 318 320 324 323 328 329 324 322 321 319 317 317 314 314 315 316 315 315 315 315 315 316 315 315 315 315 317 319 321 322 323 325 327 326 322 324 324
322 319 321 319 321 324 321 321 321 319 315 319 320 317 316 316 315 314 313 313 314 314 314 314 313 313 313 313 313 313 313 312 312 316 318 319 321 322 322 322 325 325 324 322
320 319 321 322 321 317 318 317 315 313 314 315 316 315 315 315 313 312 311 311 312 312 312 312 311 310 310 311 311 311 312 311 311 313 315 317 318 318 319 320 321 325 325 323
317 316 319 320 320 320 318 315 315 313 312 313 311 312 313 313 312 311 310 310 310 311 311 311 310 308 308 308 308 309 308 309 308 310 310 311 312 314 314 314 315 316 317 317
315 316 315 316 318 319 317 316 314 314 312 311 310 311 310 310 311 309 308 309 310 310 309 309 309 308 307 307 308 307 306 306 306 306 306 306 308 310 311 312 312 313 315 315
315 317 315 315 315 314 315 314 314 313 313 311 310 310 310 310 308 309 309 309 310 309 309 308 308 307 307 307 306 306 306 306 305 304 304 306 306 306 305 305 307 308 309 311

GFSCGP_925_thetae_105.txt.gz
Theta_e
319 320 320 320 320 320 322 325 362 361 354 352 354 356 354 352 354 356 355 339 345 346 346 347 347 349 349 349 347 349 347 347 349 349 348 347 346 343 343 346 347 346 346 346
319 320 319 320 320 321 322 342 359 357 356 357 353 357 355 353 354 354 354 340 345 344 346 347 348 349 349 349 349 350 348 348 350 349 347 347 347 343 343 346 348 348 348 345
322 322 321 322 322 322 320 326 355 358 354 355 358 358 357 353 352 353 353 339 344 344 346 347 349 349 348 347 348 349 347 346 348 349 349 349 348 348 344 347 348 348 348 347
322 322 323 323 323 321 322 319 347 355 353 354 353 358 355 358 357 355 351 341 344 344 343 345 348 348 346 346 346 345 345 346 345 348 349 349 349 349 348 348 349 348 349 348
322 322 322 323 323 320 321 321 340 352 353 354 359 352 350 357 360 357 353 343 342 344 343 344 346 346 345 347 347 347 346 347 345 347 348 350 350 349 347 347 348 349 350 350
320 319 320 320 321 320 322 339 342 341 344 350 354 353 355 356 357 355 353 347 342 344 344 343 346 346 344 348 348 348 348 346 346 346 348 349 348 347 349 349 347 349 350 350
320 322 320 319 320 319 322 333 340 350 350 350 344 352 344 350 351 353 353 349 345 342 344 344 345 346 346 349 348 348 347 347 347 347 351 350 349 346 345 350 349 349 351 351
321 323 321 320 319 318 319 325 328 344 348 344 345 348 347 348 347 349 351 351 351 350 345 344 344 345 346 348 349 348 348 347 347 348 350 350 351 348 347 349 350 351 351 351
320 324 323 321 320 319 322 323 321 325 326 344 347 347 346 350 347 352 352 352 353 350 348 347 343 345 346 347 349 351 349 347 347 346 347 350 352 350 348 348 351 349 347 350
319 323 323 324 321 325 320 321 327 323 330 344 350 353 353 357 354 347 353 351 349 349 349 348 348 346 347 348 349 350 351 349 348 348 347 349 351 350 350 348 349 349 348 347
319 320 323 322 321 323 327 328 323 322 324 343 351 352 353 355 357 356 353 349 348 349 347 347 347 346 346 348 348 348 349 349 351 350 349 350 352 351 350 350 348 348 349 349
320 316 322 324 321 319 324 326 324 327 333 337 343 353 351 353 352 351 350 348 346 342 341 342 344 347 346 346 345 344 343 343 347 350 351 350 350 351 351 350 348 349 351 352
319 318 324 323 319 319 318 318 319 320 327 336 344 353 350 349 349 348 349 347 345 346 345 343 341 343 344 344 343 342 338 342 341 345 346 347 347 348 349 347 347 348 348 351
318 316 321 323 321 320 320 320 318 318 322 337 342 357 355 351 346 343 343 343 342 341 340 340 340 341 342 342 340 339 338 339 340 340 340 342 344 342 346 347 349 349 350 351
317 320 320 320 319 319 320 325 321 320 324 332 350 354 352 350 345 338 337 338 336 336 334 334 334 336 338 340 341 342 344 345 342 342 338 338 342 338 342 344 344 347 349 351
316 320 322 324 322 319 320 319 333 339 345 344 348 350 346 342 333 332 332 330 330 329 328 327 329 330 332 333 333 333 336 341 344 342 341 342 340 339 339 339 339 344 345 348
320 320 321 325 320 319 321 319 321 341 340 346 351 347 340 337 334 330 329 327 326 326 324 324 324 325 328 329 329 328 328 330 333 335 340 344 345 343 343 342 341 337 342 345
313 319 318 322 323 325 319 321 338 341 340 339 341 340 335 332 328 325 324 322 322 321 319 319 320 322 325 325 325 325 325 325 325 326 327 329 332 337 341 343 343 344 344 345
310 314 316 319 325 324 325 318 320 333 342 339 338 335 329 326 325 323 319 318 315 316 317 317 319 323 323 322 321 322 321 321 321 321 323 324 327 326 325 326 324 326 330 336
311 310 314 318 321 324 328 323 321 330 342 331 331 329 327 326 327 322 318 316 316 317 317 317 320 319 319 318 320 319 316 316 316 318 320 321 323 324 324 326 325 323 325 326
315 313 315 318 319 321 319 319 320 325 324 328 327 326 325 326 322 317 316 316 315 315 315 316 316 315 315 315 316 315 313 312 312 316 317 319 321 321 322 323 325 325 323 329
320 316 318 315 320 324 318 318 322 318 316 325 324 323 320 319 318 316 317 316 314 313 312 313 312 312 312 313 314 312 311 311 312 314 315 317 317 317 319 321 322 322 322 322
318 317 319 319 318 316 316 316 313 312 316 320 321 318 317 317 315 314 312 312 313 312 311 311 311 311 310 310 310 309 310 309 310 312 312 312 313 313 314 315 316 317 318 318
316 314 318 318 319 319 316 314 312 312 313 317 317 317 316 316 314 312 310 309 309 310 310 309 309 309 308 308 309 307 307 306 306 306 306 307 308 309 310 311 312 313 313 313
313 314 313 315 317 316 316 314 312 310 311 314 316 316 315 313 312 310 309 309 309 309 309 309 308 307 307 308 307 306 305 305 304 304 305 306 305 304 304 304 305 306 306 307
313 314 313 315 313 313 314 313 312 311 310 310 311 311 311 311 308 309 309 308 308 308 307 307 307 306 307 306 306 305 304 303 303 303 303 302 302 302 302 302 302 303 303 304

GFSCGP_925_thetae_108.txt.gz
Theta_e
317 322 325 319 320 320 322 354 361 360 353 355 354 352 354 353 352 353 346 343 346 346 345 346 346 347 348 348 348 347 347 347 348 348 347 346 346 346 345 346 345 346 346 345
319 323 322 321 319 321 333 355 359 357 355 350 352 355 355 353 353 353 353 339 344 344 345 345 347 348 348 348 347 349 348 347 347 348 346 346 346 344 343 345 345 345 346 344
324 324 319 320 320 320 320 348 356 356 356 352 353 357 357 354 352 352 352 339 343 346 346 345 347 348 348 348 347 348 346 346 347 349 347 347 346 344 343 345 347 347 346 345
322 322 321 321 322 320 321 322 353 356 350 356 350 358 358 356 355 353 352 341 344 345 346 345 347 348 348 348 348 348 346 346 349 349 348 347 347 347 346 345 347 348 348 347
323 321 322 323 322 319 321 321 350 350 351 351 358 350 346 356 358 355 353 345 344 344 345 346 347 348 347 348 348 348 348 347 346 349 348 347 348 347 347 347 348 348 348 348
320 319 319 320 320 320 329 342 341 340 344 351 351 351 353 359 356 354 350 349 344 344 345 345 346 347 347 346 347 347 348 347 345 345 348 348 347 348 347 347 347 348 349 349
320 321 320 318 319 318 323 336 346 349 350 349 341 352 344 348 352 352 350 348 342 344 344 345 347 347 346 346 346 346 345 346 346 345 347 347 348 348 347 348 347 347 349 350
320 322 320 318 319 319 322 329 340 348 349 347 345 352 343 347 345 348 347 348 341 344 343 344 346 346 344 347 347 347 347 346 346 346 346 348 348 348 346 345 349 348 348 349
319 321 321 318 317 318 320 327 324 330 324 344 345 346 344 349 351 350 352 350 347 344 345 345 345 345 345 348 349 347 347 347 346 347 350 351 350 349 347 347 349 349 350 350
318 320 321 323 321 323 320 318 325 321 330 339 348 351 350 354 353 354 354 354 351 346 345 345 344 345 346 346 345 349 348 347 347 347 347 348 349 348 349 347 347 348 347 347
317 319 322 321 320 324 326 326 320 321 326 344 349 348 352 353 349 354 353 353 351 348 347 344 344 344 345 345 347 348 349 349 348 347 348 348 348 348 348 349 348 347 347 348
318 315 321 323 320 318 322 325 322 326 337 336 340 348 352 353 354 349 349 349 347 346 348 347 345 345 346 346 346 345 343 345 347 347 350 349 349 349 349 349 349 347 347 349
317 317 321 322 317 317 317 317 319 320 329 339 341 347 351 350 350 349 348 347 345 343 344 344 346 346 346 344 343 341 341 343 344 345 348 349 349 349 348 347 347 344 345 346
319 315 319 321 320 318 321 321 317 317 322 331 338 351 355 351 351 349 348 346 345 345 342 342 342 343 342 342 341 341 340 342 341 340 340 341 343 344 345 346 346 347 348 348
317 320 319 319 318 318 318 322 327 320 322 331 337 350 350 349 347 346 344 343 342 340 338 339 340 340 341 341 341 340 340 340 339 340 341 338 340 344 341 341 344 345 345 348
316 322 322 324 321 318 319 328 322 341 338 343 345 350 346 343 338 341 340 338 336 334 332 332 332 334 334 333 333 336 339 344 344 342 340 341 342 340 341 340 337 340 342 344
318 319 321 325 321 321 324 327 321 338 340 344 347 345 342 339 338 335 331 331 330 329 328 328 328 328 326 325 326 327 329 334 336 335 337 340 342 344 344 343 341 339 340 344
314 318 318 322 320 325 321 328 336 339 339 339 343 345 339 333 328 326 324 324 323 323 324 324 325 324 323 324 323 324 325 324 325 327 329 331 332 330 332 335 335 340 342 342
310 313 317 321 324 323 324 321 324 335 340 338 343 339 330 327 325 322 321 321 319 317 317 320 321 320 320 321 321 322 320 320 322 321 323 325 325 325 325 324 323 326 328 333
310 310 315 316 323 327 323 320 319 322 336 334 333 330 329 329 332 325 318 319 317 317 320 319 317 316 317 317 317 317 315 317 317 318 319 322 323 323 325 324 323 324 331 337
314 313 314 318 318 319 317 319 318 324 321 329 328 328 328 330 326 319 317 317 316 316 316 316 315 314 314 314 314 313 312 312 314 316 318 319 320 320 321 323 323 322 323 321
318 314 316 313 319 323 316 317 323 317 317 327 326 326 326 320 319 319 318 315 313 312 313 313 312 312 312 312 313 310 310 311 312 314 315 316 316 316 317 318 319 319 319 319
317 316 318 317 316 313 314 315 313 311 316 324 323 320 319 318 318 318 316 314 313 312 311 311 311 310 310 310 310 309 307 308 309 309 310 311 313 313 314 315 316 316 316 315
314 313 317 318 318 317 314 313 312 313 315 318 317 318 318 318 316 316 315 313 310 310 310 310 309 308 308 308 307 306 306 306 306 306 306 306 306 306 307 309 310 310 309 310
311 312 313 314 315 315 315 313 311 313 316 317 316 317 317 316 316 315 311 309 309 309 309 309 308 307 307 306 305 305 304 304 304 304 303 302 302 302 302 303 304 304 304 307
312 312 313 315 313 312 313 312 312 312 315 316 316 316 316 315 313 311 310 309 309 308 307 307 307 307 307 306 305 303 303 303 303 301 300 300 300 300 300 300 300 300 300 302

GFSCGP_925_thetae_114.txt.gz
Theta_e
319 323 327 338 341 334 336 337 356 357 358 359 358 355 358 354 351 348 347 348 348 348 348 347 346 346 348 349 350 351 351 351 351 350 348 348 348 349 349 349 351 351 350 351
322 324 326 335 339 330 339 340 356 358 359 358 359 358 356 355 351 350 349 348 348 348 347 349 348 348 349 351 351 351 351 352 352 351 350 349 349 349 349 350 351 351 350 352
323 322 328 335 335 331 348 347 353 355 356 354 356 362 361 355 352 349 348 349 348 347 349 350 349 349 349 351 352 352 352 352 352 351 352 351 351 351 350 350 350 351 352 351
323 327 329 335 336 332 337 337 349 357 356 360 356 360 362 359 357 353 349 349 348 347 346 348 349 349 349 350 352 352 352 354 351 352 351 351 350 350 349 349 350 350 351 351
324 326 331 335 337 331 333 336 346 350 349 354 355 350 358 360 361 356 352 348 346 345 345 347 348 349 349 350 351 352 353 354 352 352 350 350 349 349 349 350 352 351 353 352
328 327 332 331 332 329 329 338 342 343 347 346 348 351 361 363 360 358 353 351 346 345 344 345 345 348 350 349 350 351 352 354 353 354 352 351 351 350 351 351 352 351 350 350
328 329 328 330 331 330 334 341 344 343 345 345 342 344 349 351 351 354 354 351 350 345 343 345 347 348 350 350 350 350 352 353 353 353 353 352 350 350 349 351 350 349 350 350
327 328 328 326 327 331 333 339 340 345 346 344 348 347 349 347 348 349 352 351 350 348 344 345 347 349 351 350 351 351 353 354 353 353 352 353 352 350 349 349 352 351 351 349
326 328 326 326 326 326 331 336 336 338 339 342 346 347 350 351 352 351 352 352 351 350 347 346 347 348 351 351 352 352 353 354 353 352 353 353 352 350 348 351 350 352 354 351
326 327 325 325 325 325 327 333 338 337 343 344 346 346 354 358 355 353 352 353 351 349 348 348 347 349 351 350 353 352 353 354 353 352 352 351 352 352 350 349 349 353 355 355
325 325 325 325 325 325 326 328 330 332 334 340 343 345 354 359 356 355 353 350 350 350 348 349 349 351 351 352 352 352 354 353 352 350 351 350 351 351 352 352 353 351 353 355
325 326 330 325 324 325 325 326 328 332 337 336 342 359 354 355 356 353 354 352 350 351 348 350 352 352 353 352 350 347 352 352 353 352 353 353 351 352 351 352 353 354 354 355
327 327 329 329 327 326 327 326 327 329 331 336 336 343 356 356 356 356 357 355 353 351 353 353 350 349 349 350 351 349 349 350 352 353 352 351 351 352 352 353 350 352 353 354
323 328 330 329 328 326 328 328 328 329 332 332 336 347 358 358 357 354 354 353 353 353 353 350 350 349 350 349 347 348 349 349 351 352 353 353 353 353 352 352 352 352 354 353
326 331 329 327 329 328 328 328 328 329 329 331 332 335 347 355 356 353 351 352 353 351 351 351 349 346 347 346 344 344 345 343 343 347 349 350 352 353 354 354 353 353 354 353
326 329 329 328 326 330 331 331 329 330 330 331 332 345 351 352 352 353 351 349 350 350 349 348 349 348 348 348 344 343 343 343 340 342 344 346 349 350 350 351 352 352 352 353
327 329 330 330 327 327 335 337 336 337 338 340 332 349 351 353 351 350 347 344 344 342 341 337 335 333 335 340 342 340 341 343 345 344 344 345 345 345 347 347 348 348 349 351
327 328 329 331 329 332 332 332 332 338 342 341 343 346 350 349 345 343 341 341 339 337 336 333 331 330 327 330 333 334 335 338 339 341 341 342 342 342 344 344 346 347 348 349
326 326 326 329 331 331 328 331 331 332 340 339 345 347 346 344 342 339 336 337 337 335 331 328 325 324 324 324 326 327 328 330 332 333 335 337 337 338 337 336 338 341 345 345
323 324 326 325 330 333 331 326 324 326 337 340 344 344 344 344 351 342 335 333 332 328 326 324 324 321 321 320 321 322 323 325 327 330 332 333 334 333 333 333 335 337 340 341
325 326 325 325 328 329 325 323 324 333 335 329 340 341 341 344 343 337 330 329 326 325 323 322 322 320 318 318 320 319 319 319 321 324 325 327 328 329 329 331 334 334 334 333
327 326 324 325 325 327 324 325 330 329 327 327 336 338 338 335 335 335 333 334 328 323 321 320 321 319 318 318 319 320 320 320 320 321 323 324 324 325 326 326 326 328 329 329
329 327 330 327 329 325 323 324 324 325 328 328 332 335 336 335 334 333 331 331 329 328 326 324 321 320 320 319 319 320 318 318 319 320 320 320 321 322 324 324 324 324 324 325
324 325 327 327 326 325 323 323 323 324 327 329 329 333 334 334 332 331 329 328 326 324 322 321 319 319 317 316 316 316 315 316 317 317 317 317 318 318 319 319 319 321 322 322
322 323 324 325 325 325 323 323 323 324 324 327 329 330 331 331 331 329 327 325 322 321 319 319 318 318 316 314 314 313 313 314 314 313 313 313 313 314 314 311 312 311 305 310
322 321 322 321 324 323 325 322 321 322 323 325 327 328 328 329 329 327 325 321 319 318 318 317 316 316 314 313 312 311 311 312 311 311 310 310 310 310 311 309 306 304 301 303

GFSCGP_925_thetae_117.txt.gz
Theta_e
322 323 328 333 344 343 341 344 360 361 359 356 357 358 353 350 348 346 343 344 345 345 344 342 345 345 345 346 350 352 351 351 350 350 349 349 348 345 344 346 349 351 349 350
322 323 326 330 341 343 339 342 365 359 357 354 358 360 354 345 346 351 344 344 345 345 346 345 346 345 345 346 348 351 353 352 353 350 350 348 348 348 348 349 347 348 349 351
324 324 324 328 339 343 339 346 360 362 359 354 357 363 360 348 343 345 348 346 346 348 348 347 347 346 348 347 347 349 354 353 354 352 354 352 350 350 349 351 350 351 349 349
322 325 324 328 337 341 341 347 354 357 364 366 357 369 364 360 350 349 349 347 346 347 345 349 348 346 348 347 349 348 352 354 353 353 351 351 351 350 349 349 349 350 351 350
322 325 325 330 337 338 338 336 350 356 355 361 359 359 366 361 352 350 349 349 348 346 348 347 347 348 346 347 348 349 350 353 352 352 352 351 352 350 348 350 354 351 353 351
323 325 328 329 333 337 334 335 344 348 349 360 355 353 370 360 354 349 352 349 348 348 344 346 346 347 348 346 348 349 350 353 354 353 352 353 353 352 352 353 352 349 352 351
324 329 328 330 332 336 334 336 348 351 349 349 352 348 359 358 354 354 351 349 346 344 345 345 346 347 350 346 346 348 351 354 353 353 353 353 353 354 352 354 352 348 347 349
323 330 329 330 332 334 336 339 349 353 346 347 345 345 356 353 353 353 350 351 347 346 345 344 347 349 347 348 345 347 353 354 354 351 352 353 353 352 351 353 351 349 348 349
324 326 328 328 329 331 335 340 342 344 343 346 352 356 352 349 351 353 354 352 349 347 344 343 345 347 347 348 349 347 353 354 353 353 353 353 353 352 352 353 355 352 354 350
328 327 328 327 327 327 328 334 340 342 346 344 351 354 356 355 352 352 353 354 352 351 351 343 347 347 350 350 350 350 353 354 352 352 354 353 352 352 351 353 353 353 355 354
326 328 328 327 327 328 327 329 334 338 338 341 342 352 356 355 354 352 352 353 353 353 352 352 345 349 350 351 354 352 353 355 353 350 351 351 350 350 352 352 352 353 356 358
325 327 328 328 326 326 327 326 332 338 342 337 336 351 357 354 352 353 352 354 353 352 351 348 348 348 353 354 354 353 355 355 353 351 353 352 351 350 350 350 353 353 355 355
328 326 329 332 326 325 325 327 327 330 331 336 336 359 349 355 355 353 354 352 353 351 352 350 349 354 357 355 354 354 354 353 354 354 354 354 353 352 350 350 352 354 354 354
328 328 328 332 331 328 326 327 327 327 329 331 336 360 360 359 361 360 357 355 354 354 354 355 356 357 355 354 354 352 351 350 351 353 354 353 354 353 351 349 351 352 354 355
328 330 330 332 332 330 326 326 327 328 329 330 333 342 355 357 361 358 357 356 355 355 357 356 354 354 353 351 351 350 348 346 347 349 351 353 353 353 354 354 353 352 353 353
330 333 332 333 329 330 328 326 327 328 328 330 332 336 356 355 356 356 355 356 356 355 354 354 354 347 348 348 347 347 346 345 343 345 348 350 352 353 353 355 355 354 352 353
330 333 333 331 328 330 331 330 329 329 329 331 339 351 352 358 356 354 353 350 353 349 348 351 350 349 348 348 348 347 346 344 343 343 345 348 349 350 352 352 352 350 352 350
328 332 333 337 337 331 339 335 335 339 339 338 340 348 356 355 351 350 348 346 343 341 339 337 335 335 340 344 343 341 343 346 345 346 346 345 345 347 347 348 348 349 350 350
326 328 336 336 337 335 333 332 333 335 342 339 342 350 352 350 348 346 344 343 343 339 333 330 329 327 327 329 334 337 339 342 344 343 344 344 344 345 342 342 342 345 345 346
325 327 330 330 332 340 338 330 327 329 341 337 343 345 345 345 349 348 340 339 337 334 329 326 324 324 324 325 327 328 330 332 333 336 339 340 339 338 337 339 338 342 344 342
328 327 326 327 329 336 329 327 326 333 339 331 341 342 344 347 346 341 338 337 335 333 329 326 325 322 320 321 323 323 323 323 326 329 332 337 338 337 338 338 338 337 338 337
329 330 327 327 330 337 327 327 332 333 331 330 336 339 342 341 340 338 337 336 334 331 328 326 325 323 323 321 321 321 321 322 324 325 328 329 330 330 332 335 337 337 337 335
327 330 336 332 335 328 327 328 327 328 331 331 331 335 339 338 337 336 334 333 331 328 326 325 324 322 321 321 321 320 320 321 322 322 323 326 327 329 329 330 332 332 333 333
325 326 326 328 327 327 326 325 326 326 328 330 331 333 336 336 336 335 334 333 331 329 326 323 322 322 321 320 320 319 319 321 321 321 322 322 324 325 326 326 326 327 327 327
325 326 324 327 329 327 325 325 324 325 325 328 331 332 332 334 333 332 332 331 329 327 325 323 322 321 320 319 318 318 318 319 319 319 319 319 318 320 320 314 316 315 314 314
323 321 323 326 326 326 328 325 322 323 324 325 328 331 331 331 332 330 330 328 327 324 323 321 321 320 318 317 316 316 316 317 316 316 315 315 315 317 315 313 308 307 305 304

GFSCGP_925_thetae_120.txt.gz
Theta_e
325 325 326 331 337 343 346 350 360 357 355 355 357 357 353 353 344 342 343 343 343 342 342 341 343 348 349 348 348 351 348 349 347 348 347 344 346 345 349 347 347 352 349 350
323 323 324 329 332 341 345 359 363 359 357 354 355 356 353 351 350 346 343 344 344 344 343 343 344 347 351 351 346 350 350 350 350 349 349 349 345 345 349 350 348 348 349 350
323 324 324 325 330 338 346 352 358 361 354 349 353 358 357 349 345 346 348 347 344 346 343 348 345 344 347 353 351 353 352 352 350 349 350 348 349 348 350 348 346 350 348 350
322 324 324 324 328 333 345 350 354 358 356 361 356 369 361 352 347 346 348 349 344 347 343 345 345 346 345 349 354 354 355 353 352 352 352 348 347 347 349 350 348 349 349 349
321 322 325 324 327 332 344 353 354 357 359 360 361 365 364 355 349 347 345 350 346 343 344 347 346 347 345 347 349 356 355 355 354 350 352 349 351 350 348 349 350 350 350 349
322 323 326 326 327 334 338 348 352 353 357 358 355 364 371 365 360 350 348 350 349 345 347 344 346 346 348 347 348 352 354 354 353 350 350 351 351 350 350 351 350 351 353 350
321 323 326 328 328 331 338 338 354 364 364 363 354 361 361 360 357 349 349 349 347 346 347 345 346 348 347 348 350 350 355 355 353 354 353 353 352 351 351 352 351 352 353 350
322 322 329 327 330 331 340 338 346 354 353 360 352 357 354 357 353 346 345 348 348 347 343 347 345 349 348 349 352 351 356 355 354 355 352 352 353 353 353 352 352 351 348 350
326 324 327 329 330 331 336 337 337 346 346 349 358 357 358 354 350 345 347 350 349 348 344 347 351 348 344 348 351 354 356 353 354 353 351 352 353 353 354 355 352 355 350 353
327 330 326 328 328 330 333 334 339 341 352 353 353 358 362 358 353 350 352 352 350 348 348 347 350 349 345 345 347 356 357 356 355 353 353 352 353 353 354 355 356 353 350 353
326 329 330 328 329 328 329 330 332 337 339 344 360 361 359 355 352 357 354 351 351 348 350 353 351 350 346 343 348 356 358 356 355 356 353 352 352 353 352 354 354 354 355 354
328 328 330 331 328 327 327 327 330 334 339 340 342 352 345 346 353 355 353 355 350 350 351 354 350 350 350 352 348 354 355 355 354 352 353 354 353 353 351 351 353 353 356 353
329 328 329 330 330 328 327 327 326 327 332 340 343 353 345 348 356 353 352 355 353 357 353 347 348 349 345 337 346 345 354 354 354 351 354 351 352 351 352 350 349 355 355 354
328 329 330 331 333 333 327 325 327 326 330 333 335 354 354 349 358 356 356 356 358 356 350 346 344 354 347 346 347 354 349 346 348 354 353 352 353 352 350 351 351 351 353 355
327 330 331 330 332 332 332 327 325 328 327 330 338 349 356 352 356 355 356 357 356 356 356 352 349 353 342 341 346 355 353 351 350 349 346 350 348 351 352 353 353 351 352 354
329 332 333 333 333 332 332 332 326 327 327 327 329 353 340 340 344 356 359 356 356 356 353 357 357 354 347 348 353 352 350 346 343 344 345 348 350 351 352 352 352 352 352 353
331 336 339 338 335 333 333 339 337 331 329 329 339 355 340 339 339 344 353 356 357 357 357 356 354 351 350 348 350 350 348 347 345 344 344 346 348 348 350 352 354 354 351 353
329 335 335 339 339 340 337 336 335 338 343 346 352 353 342 341 348 350 349 345 345 344 343 341 343 348 349 348 348 347 348 347 346 345 342 343 343 343 346 348 352 352 347 348
325 329 333 341 340 337 337 335 333 333 346 337 350 339 346 350 348 348 346 343 342 335 332 331 330 330 333 339 343 343 346 347 347 346 345 343 343 345 343 342 343 344 345 347
324 330 330 334 340 342 337 334 331 329 341 336 336 344 347 349 353 348 342 340 337 334 329 327 326 327 329 331 335 337 337 337 339 341 342 343 344 343 342 339 339 342 342 340
331 328 330 330 333 337 332 332 327 334 340 334 342 345 341 346 346 342 340 339 334 330 325 324 324 323 324 326 329 327 327 327 329 335 339 339 340 340 338 337 338 340 339 336
331 334 332 332 335 340 327 329 334 334 333 332 338 342 344 343 342 340 339 336 333 329 327 325 323 323 323 324 325 323 323 325 328 329 331 334 334 336 337 338 339 337 336 335
332 325 337 336 336 330 329 330 329 330 333 332 332 339 338 339 339 337 336 334 332 329 328 327 326 326 325 323 322 321 322 323 325 327 327 328 331 331 332 334 335 336 337 336
324 325 333 334 330 328 327 326 327 327 329 329 331 336 338 339 338 336 334 332 329 327 326 325 324 323 324 323 321 321 322 322 322 322 323 326 327 328 328 329 326 323 323 324
327 326 323 331 330 328 326 326 325 325 326 327 329 330 336 337 337 334 334 332 328 326 323 323 323 322 321 320 319 320 321 321 321 321 322 321 323 323 321 316 316 315 315 314
322 322 323 330 331 330 329 327 323 323 324 325 327 329 333 334 334 333 333 331 330 328 326 325 322 320 319 319 318 318 319 319 319 318 318 319 319 320 317 314 311 308 310 309

GFSCGP_925_thetae_123.txt.gz
Theta_e
324 324 323 324 325 329 346 355 361 359 355 355 355 353 351 349 351 342 340 340 340 340 341 345 347 347 347 346 348 348 346 343 349 347 346 346 345 350 347 348 348 350 349 340
322 323 323 324 327 330 352 357 361 358 355 353 355 355 354 352 349 348 341 340 340 340 340 343 347 349 347 348 348 348 348 347 346 346 346 346 347 348 350 347 351 348 349 348
320 321 323 322 323 329 353 359 357 359 355 350 353 355 354 350 347 346 343 344 339 341 341 345 349 348 347 348 348 349 347 348 345 347 346 348 350 347 350 349 347 350 349 349
319 320 322 321 322 324 352 355 353 357 353 358 352 361 356 352 350 347 343 347 345 341 341 344 348 350 349 347 345 349 348 348 348 342 347 348 349 348 349 348 344 348 345 349
317 319 319 322 322 323 355 345 357 355 355 355 355 360 357 353 353 350 344 347 345 342 345 343 345 352 352 347 347 349 348 349 348 348 345 347 348 347 345 348 350 349 349 348
320 321 320 322 324 331 348 353 353 353 352 357 355 358 360 354 354 350 343 345 346 345 343 344 343 349 353 353 354 353 349 348 350 350 349 347 348 350 347 348 350 350 349 347
321 319 320 322 326 332 349 348 354 356 358 354 350 352 353 351 349 349 342 342 346 345 343 344 343 344 347 353 356 355 352 352 352 349 349 349 350 349 349 349 350 349 349 349
320 319 320 327 326 326 332 342 347 359 360 361 352 359 353 351 352 349 340 341 346 346 342 344 345 346 348 348 357 357 353 353 351 350 350 350 350 349 346 348 351 352 349 349
325 324 321 326 326 326 327 338 337 346 355 355 359 356 358 355 355 351 346 344 347 346 344 344 345 344 348 349 353 355 353 351 351 352 353 352 351 350 351 351 352 352 351 350
324 326 327 327 326 326 328 330 333 330 354 361 358 359 359 361 354 349 345 345 346 344 343 344 344 343 348 351 352 355 352 351 351 354 351 350 351 352 352 353 353 353 351 351
326 326 325 327 327 326 326 327 328 327 334 343 353 355 357 355 354 350 349 346 343 344 345 344 344 347 347 350 354 356 353 353 353 353 351 352 351 350 352 353 349 353 352 354
326 326 326 326 328 325 325 324 326 329 330 333 343 350 353 351 342 348 348 346 346 347 346 348 347 346 346 353 355 357 354 351 351 355 351 350 352 353 352 353 353 351 353 352
326 328 328 326 326 328 325 324 323 321 321 325 336 350 347 351 345 347 346 345 347 351 351 350 348 347 348 352 355 356 356 355 353 356 354 350 351 352 352 349 353 352 352 351
327 324 327 331 330 329 331 330 324 322 322 323 329 346 347 345 346 346 345 348 348 350 349 348 343 343 343 345 348 352 353 351 351 350 352 351 352 351 351 351 350 350 353 351
328 327 327 333 329 330 330 331 331 322 323 325 344 352 352 353 345 340 338 340 349 349 347 350 340 340 342 339 343 350 349 345 347 346 349 349 343 345 349 350 351 351 352 350
328 331 336 336 334 333 332 336 340 339 351 347 353 351 344 346 340 337 341 341 345 351 348 352 348 344 344 343 342 349 347 345 342 347 349 348 345 338 342 346 348 351 351 353
330 335 335 338 337 336 336 338 342 342 351 353 356 343 340 339 338 333 338 336 349 350 353 350 345 343 342 342 343 350 347 347 347 346 346 347 346 344 343 341 345 345 347 351
327 335 333 336 338 339 338 334 334 339 343 345 346 341 340 344 340 337 342 345 342 341 339 339 347 348 346 348 350 349 347 345 344 344 343 344 345 345 346 346 346 346 346 348
326 328 334 337 340 339 336 336 333 332 340 342 345 341 352 348 345 346 342 338 335 333 330 331 333 337 343 347 348 348 347 345 344 344 343 343 343 343 343 343 342 343 346 346
328 328 330 334 336 341 339 334 331 330 340 340 341 343 345 343 348 347 339 335 332 330 328 328 329 332 337 340 344 345 344 345 344 346 344 344 344 344 342 341 343 342 343 342
331 332 331 334 337 339 334 330 330 339 339 342 334 334 337 344 345 340 335 331 328 326 325 326 327 327 329 333 336 335 335 333 335 340 341 341 341 339 338 339 340 340 338 335
332 333 335 336 337 338 329 330 337 335 333 336 332 336 338 341 340 336 333 330 328 326 324 324 324 324 326 328 329 327 327 328 332 335 336 337 338 339 339 337 338 338 336 335
327 329 333 334 335 332 329 330 328 331 332 333 338 339 340 340 336 334 333 331 329 327 326 324 324 323 323 324 326 324 324 327 329 329 330 331 332 334 335 338 338 336 335 332
329 327 326 334 331 329 327 327 325 326 328 328 335 339 336 337 334 334 332 330 328 328 326 325 325 325 322 321 322 322 322 323 326 327 328 328 327 326 327 328 326 326 324 326
327 328 326 331 331 328 328 325 326 326 326 327 330 335 335 335 333 331 329 327 326 326 325 324 324 323 322 321 321 321 321 321 321 321 322 324 325 320 319 319 316 316 314 316
324 324 326 332 330 330 328 324 323 323 324 324 330 336 335 333 332 332 331 328 326 324 323 322 322 321 320 319 318 319 320 321 320 320 320 319 322 320 318 316 313 310 310 312